[[{"header":{"parameterUnit":"m.s-1","parameterCategory":1,"la1":30.6,"la2":29.2853,"lo1":-89.7004,"lo2":-87.6739,"dy":0.0162,"dx":0.0183,"nx":112,"ny":82,"refTime":"2024-05-28T12:00:00:Z","depth":0,"parameterNumber":2,"parameterNumberName":"U-component_of_WINDS"},"data":[0.0,0.0,0.0,0.0,0.0,0.0,0.0,0.0,0.0,0.0,0.0,0.0,0.0,0.0,0.0,0.0,0.0,0.0,0.0,0.0,0.0,0.0,0.0,0.0,0.0,0.0,0.0,0.0,0.0,0.0,0.0,0.0,0.0,0.0,0.0,0.0,0.0,0.0,0.0,0.0,0.0,0.0,0.0,0.0,0.0,0.0,0.0,0.0,0.0,0.0,0.0,0.0,0.0,0.0,0.0,0.0,0.0,0.0,0.0,0.0,0.0,0.0,0.0,0.0,0.0,0.0,0.0,0.0,0.0,0.0,0.0,0.0,0.0,0.0,0.0,0.0,0.0,0.0,0.0,0.0,0.0,0.0,0.0,0.0,0.0,0.0,0.0,0.0,0.0,0.0,-1.1438,-1.2947,-1.483,-1.6064,-1.6331,-1.605,-1.5453,-1.4404,0.0,0.0,0.0,0.0,0.0,0.0,0.0,0.0,0.0,0.0,0.0,0.0,0.0,0.0,0.0,0.0,0.0,0.0,0.0,0.0,0.0,0.0,0.0,0.0,0.0,0.0,0.0,0.0,0.0,0.0,0.0,0.0,0.0,0.0,0.0,0.0,0.0,0.0,0.0,0.0,0.0,0.0,0.0,0.0,0.0,0.0,0.0,0.0,0.0,0.0,0.0,0.0,0.0,0.0,0.0,0.0,0.0,0.0,0.0,0.0,0.0,0.0,0.0,0.0,0.0,0.0,0.0,0.0,0.0,0.0,0.0,0.0,0.0,0.0,0.0,0.0,0.0,0.0,0.0,0.0,0.0,0.0,0.0,0.0,0.0,0.0,0.0,0.0,0.0,0.0,0.0,0.0,0.0,0.0,0.0,0.0,0.0,0.0,0.0,0.0,0.0,0.0,0.0,0.0,-1.1118,-1.2979,-1.4505,-1.541,-1.5543,-1.572,-1.5321,-1.4222,0.0,0.0,0.0,0.0,0.0,0.0,0.0,0.0,0.0,0.0,0.0,0.0,0.0,0.0,0.0,0.0,0.0,0.0,0.0,0.0,0.0,0.0,0.0,0.0,0.0,0.0,0.0,0.0,0.0,0.0,0.0,0.0,0.0,0.0,0.0,0.0,0.0,0.0,0.0,0.0,0.0,0.0,0.0,0.0,0.0,0.0,0.0,0.0,0.0,0.0,0.0,0.0,0.0,0.0,0.0,0.0,0.0,0.0,0.0,0.0,0.0,0.0,0.0,0.0,0.0,0.0,0.0,0.0,0.0,0.0,0.0,0.0,0.0,0.0,0.0,0.0,0.0,0.0,0.0,0.0,0.0,0.0,0.0,0.0,0.0,0.0,0.0,0.0,0.0,0.0,0.0,0.0,0.0,0.0,0.0,0.0,0.0,0.0,0.0,0.0,0.0,0.0,0.0,-1.1387,-1.2303,-1.3622,-1.497,-1.5831,-1.6018,-1.5884,-1.5423,-1.4654,-1.2966,0.0,0.0,0.0,0.0,0.0,0.0,0.0,0.0,0.0,0.0,0.0,0.0,0.0,0.0,0.0,0.0,0.0,0.0,0.0,0.0,0.0,0.0,0.0,0.0,0.0,0.0,0.0,0.0,0.0,0.0,0.0,0.0,0.0,0.0,0.0,0.0,0.0,0.0,0.0,0.0,0.0,0.0,0.0,0.0,0.0,0.0,0.0,0.0,0.0,0.0,0.0,0.0,0.0,0.0,0.0,0.0,0.0,0.0,0.0,0.0,0.0,0.0,0.0,0.0,0.0,0.0,0.0,0.0,0.0,0.0,0.0,0.0,0.0,0.0,0.0,0.0,0.0,0.0,0.0,0.0,0.0,0.0,0.0,0.0,0.0,0.0,0.0,0.0,0.0,0.0,0.0,0.0,0.0,0.0,0.0,0.0,0.0,0.0,0.0,0.0,0.0,0.0,-1.2496,-1.3564,-1.4256,-1.536,-1.609,-1.635,-1.588,-1.5286,-1.4689,-1.2913,0.0,0.0,0.0,0.0,0.0,0.0,0.0,0.0,0.0,0.0,0.0,0.0,0.0,0.0,0.0,0.0,0.0,0.0,0.0,0.0,0.0,0.0,0.0,0.0,0.0,0.0,0.0,0.0,0.0,0.0,0.0,0.0,0.0,0.0,0.0,0.0,0.0,0.0,0.0,0.0,0.0,0.0,0.0,0.0,0.0,0.0,0.0,0.0,0.0,0.0,0.0,0.0,0.0,0.0,0.0,0.0,0.0,0.0,0.0,0.0,0.0,0.0,0.0,0.0,0.0,0.0,0.0,0.0,0.0,0.0,0.0,0.0,0.0,0.0,0.0,0.0,0.0,0.0,0.0,0.0,0.0,0.0,0.0,0.0,0.0,0.0,0.0,0.0,0.0,0.0,0.0,0.0,0.0,0.0,0.0,0.0,0.0,0.0,0.0,0.0,0.0,0.0,-1.2814,-1.3935,-1.4337,-1.5047,-1.5521,-1.5758,-1.5179,-1.4431,-1.3643,-1.2701,0.0,0.0,0.0,0.0,0.0,0.0,0.0,0.0,0.0,0.0,0.0,0.0,0.0,0.0,0.0,0.0,0.0,0.0,0.0,0.0,0.0,0.0,0.0,0.0,0.0,0.0,0.0,0.0,0.0,0.0,0.0,0.0,0.0,0.0,0.0,0.0,0.0,0.0,0.0,0.0,0.0,0.0,0.0,0.0,0.0,0.0,0.0,0.0,0.0,0.0,0.0,0.0,0.0,0.0,0.0,0.0,0.0,0.0,0.0,0.0,0.0,0.0,0.0,0.0,0.0,0.0,0.0,0.0,0.0,0.0,0.0,0.0,0.0,0.0,0.0,0.0,0.0,0.0,0.0,0.0,0.0,0.0,0.0,0.0,0.0,0.0,0.0,0.0,0.0,0.0,0.0,0.0,0.0,0.0,0.0,0.0,0.0,0.0,0.0,0.0,0.0,0.0,-1.283,-1.3907,0.0,-1.5534,-1.5866,-1.6082,-1.5614,-1.4818,-1.3676,0.0,0.0,0.0,0.0,0.0,0.0,0.0,0.0,0.0,0.0,0.0,0.0,0.0,0.0,0.0,0.0,0.0,0.0,0.0,0.0,0.0,0.0,0.0,0.0,0.0,0.0,0.0,0.0,0.0,0.0,0.0,0.0,0.0,0.0,0.0,0.0,0.0,0.0,0.0,0.0,0.0,0.0,0.0,0.0,0.0,0.0,0.0,0.0,0.0,0.0,0.0,0.0,0.0,0.0,0.0,0.0,0.0,0.0,0.0,0.0,0.0,0.0,0.0,0.0,0.0,0.0,0.0,0.0,0.0,0.0,0.0,0.0,0.0,0.0,0.0,0.0,0.0,0.0,0.0,0.0,0.0,0.0,0.0,0.0,0.0,0.0,0.0,0.0,0.0,0.0,0.0,0.0,0.0,0.0,0.0,0.0,0.0,0.0,0.0,0.0,0.0,0.0,-1.1979,-1.2987,-1.3983,0.0,-1.5583,-1.585,-1.5859,-1.5318,-1.4505,-1.3424,0.0,0.0,0.0,0.0,0.0,0.0,0.0,0.0,0.0,0.0,0.0,0.0,0.0,0.0,0.0,0.0,0.0,0.0,0.0,0.0,0.0,0.0,0.0,0.0,0.0,0.0,0.0,0.0,0.0,0.0,0.0,0.0,0.0,0.0,0.0,0.0,0.0,0.0,0.0,0.0,0.0,0.0,0.0,0.0,0.0,0.0,0.0,0.0,0.0,0.0,0.0,0.0,0.0,0.0,0.0,0.0,0.0,0.0,0.0,0.0,0.0,0.0,0.0,0.0,0.0,0.0,0.0,0.0,0.0,0.0,0.0,0.0,0.0,0.0,0.0,0.0,0.0,0.0,0.0,0.0,0.0,0.0,0.0,0.0,0.0,0.0,0.0,0.0,0.0,0.0,0.0,0.0,0.0,0.0,0.0,0.0,0.0,0.0,0.0,0.0,0.0,0.0,-1.1743,-1.3176,-1.4301,-1.4561,-1.4952,-1.5078,-1.4896,-1.4047,-1.3227,0.0,0.0,0.0,0.0,0.0,0.0,0.0,0.0,0.0,0.0,0.0,0.0,0.0,0.0,0.0,0.0,0.0,0.0,0.0,0.0,0.0,0.0,0.0,0.0,0.0,0.0,0.0,0.0,0.0,0.0,0.0,0.0,0.0,0.0,0.0,0.0,0.0,0.0,0.0,0.0,0.0,0.0,0.0,0.0,0.0,0.0,0.0,0.0,0.0,0.0,0.0,0.0,0.0,0.0,0.0,0.0,0.0,0.0,0.0,0.0,0.0,0.0,0.0,0.0,0.0,0.0,0.0,0.0,0.0,0.0,0.0,0.0,0.0,0.0,0.0,0.0,0.0,0.0,0.0,0.0,0.0,0.0,0.0,0.0,0.0,0.0,0.0,0.0,0.0,0.0,0.0,0.0,0.0,0.0,0.0,0.0,0.0,0.0,0.0,0.0,0.0,0.0,0.0,-1.2047,-1.2924,-1.381,-1.4514,-1.479,-1.4838,-1.4697,-1.4511,-1.3693,-1.1988,0.0,0.0,0.0,0.0,0.0,0.0,0.0,0.0,0.0,0.0,0.0,0.0,0.0,0.0,0.0,0.0,0.0,0.0,0.0,0.0,0.0,0.0,0.0,0.0,0.0,0.0,0.0,0.0,0.0,0.0,0.0,0.0,0.0,0.0,0.0,0.0,0.0,0.0,0.0,0.0,0.0,0.0,0.0,0.0,0.0,0.0,0.0,0.0,0.0,0.0,0.0,0.0,0.0,0.0,0.0,0.0,0.0,0.0,0.0,0.0,0.0,0.0,0.0,0.0,0.0,0.0,0.0,0.0,0.0,0.0,0.0,0.0,0.0,0.0,0.0,0.0,0.0,0.0,0.0,0.0,0.0,0.0,0.0,0.0,0.0,0.0,0.0,0.0,0.0,0.0,0.0,0.0,0.0,0.0,0.0,0.0,0.0,0.0,0.0,0.0,0.0,0.0,-1.1873,-1.2828,-1.3753,-1.4402,-1.4544,-1.45,-1.4228,-1.4171,-1.3385,-1.1663,0.0,0.0,0.0,0.0,0.0,0.0,0.0,0.0,0.0,0.0,0.0,0.0,0.0,0.0,0.0,0.0,0.0,0.0,0.0,0.0,0.0,0.0,0.0,0.0,0.0,0.0,0.0,0.0,0.0,0.0,0.0,0.0,0.0,0.0,0.0,0.0,0.0,0.0,0.0,0.0,0.0,0.0,0.0,0.0,0.0,0.0,0.0,0.0,0.0,0.0,0.0,0.0,0.0,0.0,0.0,0.0,0.0,0.0,0.0,0.0,0.0,0.0,0.0,0.0,0.0,0.0,0.0,0.0,0.0,0.0,0.0,0.0,0.0,0.0,0.0,0.0,0.0,0.0,0.0,0.0,0.0,0.0,0.0,0.0,0.0,0.0,0.0,0.0,0.0,0.0,0.0,0.0,0.0,0.0,0.0,0.0,0.0,0.0,0.0,0.0,0.0,0.0,-1.1586,-1.2826,-1.393,-1.426,-1.4305,-1.4207,-1.3791,-1.3346,-1.2661,-1.164,0.0,0.0,0.0,0.0,0.0,0.0,0.0,0.0,0.0,0.0,0.0,0.0,0.0,0.0,0.0,0.0,0.0,0.0,0.0,0.0,0.0,0.0,0.0,0.0,0.0,0.0,0.0,0.0,0.0,0.0,0.0,0.0,0.0,0.0,0.0,0.0,0.0,0.0,0.0,0.0,0.0,0.0,0.0,0.0,0.0,0.0,0.0,0.0,0.0,0.0,0.0,0.0,0.0,0.0,0.0,0.0,0.0,0.0,0.0,0.0,-1.5022,0.0,0.0,0.0,0.0,0.0,0.0,0.0,0.0,0.0,0.0,0.0,0.0,0.0,0.0,0.0,0.0,0.0,0.0,0.0,0.0,0.0,0.0,0.0,0.0,0.0,0.0,0.0,0.0,0.0,0.0,0.0,0.0,0.0,0.0,0.0,0.0,0.0,0.0,0.0,0.0,0.0,-1.186,-1.2889,-1.373,-1.4224,-1.4617,-1.4553,-1.4052,-1.3952,-1.3374,-1.2165,-1.0976,0.0,0.0,0.0,0.0,0.0,0.0,0.0,0.0,0.0,0.0,0.0,0.0,0.0,0.0,0.0,0.0,0.0,0.0,0.0,0.0,0.0,0.0,0.0,0.0,0.0,0.0,0.0,0.0,0.0,0.0,0.0,0.0,0.0,0.0,0.0,0.0,0.0,0.0,0.0,0.0,0.0,0.0,0.0,0.0,0.0,0.0,0.0,0.0,0.0,0.0,0.0,0.0,0.0,0.0,0.0,0.0,0.0,0.0,0.0,0.0,-1.6384,0.0,0.0,0.0,0.0,0.0,0.0,0.0,0.0,0.0,0.0,0.0,0.0,0.0,0.0,0.0,0.0,0.0,0.0,0.0,0.0,0.0,0.0,0.0,0.0,0.0,0.0,0.0,0.0,0.0,0.0,0.0,0.0,0.0,0.0,0.0,0.0,0.0,0.0,0.0,0.0,-1.2035,-1.3063,-1.394,-1.4553,-1.47,-1.4619,-1.4209,-1.3968,-1.3417,-1.2349,-1.1209,0.0,0.0,0.0,0.0,0.0,0.0,0.0,0.0,0.0,0.0,0.0,0.0,0.0,0.0,0.0,0.0,0.0,0.0,0.0,0.0,0.0,0.0,0.0,0.0,0.0,0.0,0.0,0.0,0.0,0.0,0.0,0.0,0.0,0.0,0.0,0.0,0.0,0.0,0.0,0.0,0.0,0.0,0.0,0.0,0.0,0.0,0.0,0.0,0.0,0.0,0.0,0.0,0.0,-1.8864,-1.9397,-2.032,-2.0266,-2.0588,-2.1114,-1.9424,-1.8835,-1.9048,-1.7388,0.0,0.0,0.0,0.0,0.0,0.0,0.0,0.0,0.0,0.0,0.0,0.0,0.0,0.0,0.0,0.0,0.0,0.0,0.0,0.0,0.0,0.0,0.0,0.0,-1.2632,-1.263,0.0,0.0,0.0,0.0,0.0,0.0,0.0,0.0,0.0,0.0,0.0,0.0,-1.221,-1.3297,-1.4188,-1.4728,-1.4767,-1.4611,-1.4372,-1.3899,-1.3243,-1.2463,-1.1572,-1.0602,0.0,0.0,0.0,0.0,0.0,0.0,0.0,0.0,0.0,0.0,0.0,0.0,0.0,0.0,0.0,0.0,0.0,0.0,0.0,0.0,0.0,0.0,0.0,0.0,0.0,0.0,0.0,0.0,0.0,0.0,0.0,0.0,-1.9051,-1.9885,0.0,0.0,0.0,0.0,0.0,0.0,0.0,0.0,0.0,0.0,0.0,0.0,0.0,-1.8732,-1.8336,-1.9834,-2.0591,-2.0496,-2.0803,-2.145,-2.2474,-2.2175,-2.2528,-2.334,-2.2769,0.0,-1.9853,-1.8747,0.0,0.0,0.0,0.0,0.0,0.0,0.0,0.0,0.0,0.0,0.0,0.0,0.0,0.0,0.0,0.0,0.0,0.0,0.0,0.0,0.0,0.0,-1.484,-1.4356,-1.453,-1.4531,0.0,-1.1998,-1.0623,-1.037,-1.0035,0.0,0.0,0.0,0.0,0.0,0.0,0.0,-1.2719,-1.365,-1.4239,-1.4453,-1.4799,-1.4866,-1.4461,-1.4108,-1.3632,-1.2859,-1.1986,-1.1037,-1.0063,-0.9017,0.0,0.0,0.0,0.0,0.0,0.0,0.0,0.0,0.0,0.0,0.0,0.0,0.0,0.0,0.0,0.0,0.0,0.0,0.0,0.0,0.0,0.0,0.0,0.0,0.0,0.0,0.0,0.0,0.0,-1.8115,-2.0061,-2.2019,-2.1294,-2.0562,0.0,0.0,0.0,0.0,0.0,0.0,0.0,0.0,0.0,-2.0059,-2.0677,-2.1094,-2.1209,-2.1694,-2.22,-2.2639,-2.2814,-2.3285,-2.3941,-2.3816,-2.3916,-2.4181,-2.3747,-2.306,-2.2204,-2.0669,-1.9508,-1.8598,0.0,0.0,0.0,0.0,-1.5828,-1.593,-1.675,-1.684,0.0,-1.6163,0.0,0.0,0.0,0.0,0.0,0.0,0.0,0.0,0.0,0.0,0.0,-1.5158,-1.5248,-1.5249,-1.4867,-1.3865,-1.2763,0.0,-1.1304,-1.1077,-1.0216,0.0,0.0,0.0,0.0,-1.1755,-1.258,-1.347,-1.4092,-1.436,-1.4566,-1.458,-1.4432,-1.4055,-1.3539,-1.2975,-1.2171,-1.1329,-1.0509,-0.9438,-0.8378,0.0,0.0,0.0,0.0,0.0,0.0,0.0,0.0,0.0,0.0,0.0,0.0,0.0,0.0,0.0,0.0,0.0,0.0,0.0,0.0,0.0,0.0,0.0,0.0,0.0,0.0,0.0,0.0,-1.9792,-2.1352,-2.3544,-2.2758,-2.2041,0.0,0.0,0.0,0.0,0.0,0.0,-2.0118,-2.1251,-2.2159,-2.2701,-2.2893,-2.3193,-2.3715,-2.3486,-2.3751,-2.459,-2.4543,-2.4748,-2.5126,-2.5048,-2.4954,-2.4917,-2.4394,-2.4169,-2.4049,-2.2321,-2.1133,-2.0324,-1.8948,-1.8145,-1.7824,-1.735,-1.7338,-1.7695,-1.8319,-1.8455,-1.8252,-1.7868,0.0,-1.599,-1.4737,0.0,0.0,0.0,0.0,-1.3818,-1.4825,-1.5065,-1.5268,-1.5825,-1.5947,-1.5855,-1.5598,-1.5383,-1.4721,0.0,-1.2676,-1.2319,-1.1114,0.0,0.0,0.0,0.0,-1.2088,-1.2469,-1.3404,-1.3967,-1.3988,-1.4212,-1.4321,-1.4271,-1.3913,-1.3424,-1.2843,-1.2331,-1.1663,-1.0846,-0.9822,-0.8941,-0.8154,0.0,0.0,0.0,0.0,0.0,0.0,0.0,0.0,0.0,0.0,0.0,0.0,0.0,0.0,0.0,0.0,0.0,0.0,0.0,0.0,0.0,0.0,0.0,0.0,0.0,0.0,0.0,0.0,0.0,-2.3871,-2.4157,0.0,0.0,0.0,0.0,-2.052,-2.1991,-2.3011,-2.327,-2.4292,-2.4679,-2.4234,-2.4333,-2.4572,-2.4927,-2.5123,-2.5502,-2.599,-2.5818,-2.5844,-2.614,-2.5693,-2.574,-2.6094,-2.5463,-2.5016,-2.459,-2.3225,-2.244,-2.1978,-2.0908,-2.0193,-1.9716,-1.9427,-1.9142,-1.8964,-1.934,-1.9291,-1.8937,-1.8791,-1.7648,-1.6218,-1.5385,-1.4863,0.0,0.0,-1.4985,-1.5564,-1.6321,-1.6415,-1.6476,-1.6936,-1.687,-1.655,-1.6162,-1.6072,-1.5687,0.0,-1.3586,-1.2927,-1.2051,0.0,-1.1596,-1.1882,-1.2138,-1.2424,-1.2884,-1.3597,-1.3895,-1.3326,-1.3899,-1.4223,-1.3795,-1.3724,-1.3424,-1.2687,-1.2414,-1.1837,-1.0812,-1.013,-0.9335,-0.8498,-0.6875,0.0,0.0,0.0,0.0,0.0,0.0,0.0,0.0,0.0,0.0,0.0,0.0,0.0,0.0,0.0,0.0,0.0,0.0,0.0,0.0,0.0,0.0,0.0,0.0,0.0,0.0,0.0,0.0,-2.6923,-2.6957,0.0,-2.5915,-2.5137,-2.4396,-2.369,-2.4461,-2.5066,-2.5345,-2.6061,-2.6666,-2.7187,-2.6866,-2.6869,-2.7258,-2.6923,-2.6862,-2.7117,-2.6916,-2.6905,-2.7037,-2.6891,-2.6591,-2.6176,-2.5955,-2.5594,-2.5052,-2.4495,-2.3619,-2.2582,-2.2105,-2.145,-2.0784,-2.0631,-2.0379,-2.0151,-2.0249,-2.0342,-2.0295,-1.9635,-1.8637,-1.7596,-1.6962,-1.6305,-1.5738,-1.5738,-1.5644,-1.5673,-1.6405,-1.6478,-1.6501,-1.7171,-1.7229,-1.7066,-1.6812,-1.673,-1.6577,-1.5928,-1.493,-1.3933,-1.3294,-1.2901,-1.2617,-1.2511,-1.252,-1.26,-1.2621,-1.3243,-1.3502,-1.3048,-1.3556,-1.3808,-1.3535,-1.322,-1.2908,-1.2453,-1.1841,-1.1241,-1.0658,-0.9956,-0.9186,-0.8372,-0.7194,-0.588,0.0,0.0,0.0,0.0,0.0,0.0,0.0,0.0,0.0,0.0,0.0,0.0,0.0,0.0,0.0,0.0,0.0,0.0,0.0,0.0,0.0,0.0,0.0,0.0,0.0,0.0,-2.7771,-2.9053,-2.9088,-2.8756,-2.8112,-2.7538,-2.6897,-2.6059,-2.6607,-2.7142,-2.7507,-2.7938,-2.855,-2.9367,-2.8823,-2.8594,-2.8914,-2.8278,-2.8052,-2.8255,-2.799,-2.7795,-2.7776,-2.7656,-2.7255,-2.6577,-2.6358,-2.6,-2.5499,-2.5241,-2.4531,-2.3555,-2.3316,-2.2689,-2.1947,-2.1603,-2.1406,-2.1277,-2.1063,-2.1116,-2.1155,-2.0301,-1.9468,-1.8778,-1.8276,-1.7614,-1.7018,-1.6884,-1.6685,-1.6538,-1.6885,-1.6884,-1.6876,-1.7357,-1.7383,-1.731,-1.7221,-1.7057,-1.6976,-1.6976,-1.5841,-1.4813,-1.4378,-1.3747,-1.3241,-1.2929,-1.2766,-1.2598,-1.2417,-1.2927,-1.3236,-1.2956,-1.3313,-1.3542,-1.3366,-1.3054,-1.2667,-1.2296,-1.1594,-1.0995,-1.0593,-0.9845,-0.9081,-0.8506,-0.7101,-0.5571,-0.388,0.0,0.0,0.0,0.0,0.0,0.0,0.0,0.0,0.0,0.0,0.0,0.0,0.0,0.0,0.0,0.0,0.0,0.0,0.0,0.0,0.0,0.0,0.0,-2.6753,-2.8066,-2.9295,-2.999,-3.0442,-2.9893,-2.7862,-2.8612,-2.8757,-2.7618,-2.857,-2.9358,-2.977,-3.0003,-3.0303,-3.0623,-2.9978,-2.9699,-2.9841,-2.9272,-2.9106,-2.9352,-2.8844,-2.8509,-2.8287,-2.7973,-2.7603,-2.7294,-2.6726,-2.6233,-2.5931,-2.5548,-2.5111,-2.4802,-2.4391,-2.3881,-2.3243,-2.2604,-2.2358,-2.2327,-2.1959,-2.1655,-2.1425,-2.0799,-2.0187,-1.9686,-1.925,-1.8873,-1.8461,-1.8035,-1.8149,-1.8276,-1.7847,-1.7723,-1.7666,-1.7674,-1.7367,-1.7221,-1.7392,-1.7066,-1.6902,-1.731,-1.634,-1.5449,-1.5303,-1.4159,-1.3266,-1.3192,-1.2856,0.0,-1.2466,-1.2735,-1.2923,-1.2844,-1.3137,-1.3348,-1.3366,-1.3137,-1.277,-1.2326,-1.1727,-1.1262,-1.0737,-0.988,-0.9158,-0.8776,-0.6547,-0.4609,-0.3023,0.0,0.0,0.0,0.0,0.0,0.0,0.0,0.0,0.0,0.0,0.0,0.0,0.0,0.0,0.0,0.0,0.0,0.0,0.0,0.0,0.0,-2.6428,-2.8164,-2.8452,-3.0351,-3.1753,-3.1873,-3.2292,-3.2206,-3.1285,-3.1655,-3.1665,-3.1016,-3.1007,-3.1176,-3.1515,-3.078,-3.0783,-3.1581,-3.093,-3.0593,-3.069,-3.0038,-2.9591,-2.9162,-2.8908,-2.8522,-2.8131,-2.817,-2.8,-2.7657,-2.7518,-2.7301,-2.7016,-2.6749,-2.6238,-2.549,-2.5135,-2.4478,-2.374,-2.3385,-2.268,-2.1959,-2.1807,-2.1731,-2.1655,-2.1349,-2.0827,-2.0317,-1.9997,-1.9535,-1.8995,-1.8406,-1.8119,-1.7963,-1.7517,-1.7362,-1.7355,-1.7552,-1.7675,-1.7708,-1.7627,-1.7538,-1.7456,-1.7619,-1.7092,-1.6591,-1.6287,-1.5017,-1.4057,-1.4082,-1.3074,0.0,-1.2607,-1.2556,-1.2463,-1.2312,-1.2772,-1.292,-1.2656,-1.2365,-1.208,-1.1783,-1.1071,-1.0509,-1.0354,-0.9565,-0.8604,-0.7456,-0.5697,-0.448,0.0,0.0,0.0,0.0,0.0,0.0,0.0,0.0,0.0,0.0,0.0,0.0,0.0,0.0,0.0,0.0,0.0,0.0,0.0,0.0,0.0,0.0,-2.8021,-3.0131,-3.1075,-3.2133,-3.3006,-3.3558,-3.3449,-3.3298,-3.3148,-3.3125,-3.2962,-3.2593,-3.2478,-3.255,-3.29,-3.2041,-3.1869,-3.2525,-3.1813,-3.1287,-3.1013,-3.045,-2.9837,-2.9253,-2.9113,-2.8844,-2.8522,-2.8509,-2.8357,0.0,-2.7828,-2.7621,-2.7336,-2.716,-2.6745,0.0,0.0,0.0,0.0,0.0,-2.2499,-2.1688,-2.1886,-2.1807,-2.1686,-2.1716,-2.1262,-2.0711,-2.0718,-2.0394,-1.9834,-1.907,-1.8826,-1.8611,-1.7852,-1.7682,-1.7666,-1.7734,-1.7789,-1.787,-1.787,-1.77,-1.7627,-1.7781,0.0,0.0,-1.6775,-1.5773,-1.4836,-1.4391,-1.345,-1.2661,-1.2456,-1.236,-1.2231,-1.2086,-1.2469,-1.2669,-1.2499,-1.2334,0.0,0.0,0.0,-1.0587,-1.0013,-0.9165,0.0,0.0,0.0,0.0,0.0,0.0,0.0,0.0,-0.0387,0.0196,0.0,0.0,0.0,0.0,0.0,0.0,0.0,0.0,0.0,0.0,0.0,0.0,0.0,0.0,0.0,0.0,-2.9762,-3.2093,-3.388,-3.3536,-3.3596,-3.4945,-3.4199,-3.3629,-3.3837,-3.3617,-3.3338,-3.3041,-3.3209,-3.353,-3.4007,0.0,0.0,0.0,0.0,-3.1819,-3.1053,-3.0598,-3.0074,-2.954,-2.9526,-2.9435,-2.9204,-2.899,-2.8733,-2.8329,-2.8146,-2.7803,-2.7381,-2.7179,-2.703,-2.6881,-2.6127,-2.4894,-2.3446,-2.2777,-2.2062,-2.1471,-2.1889,0.0,0.0,-2.1944,-2.1479,-2.0985,-2.1332,-2.1164,-2.0751,-1.9882,-1.9756,-1.964,-1.8691,-1.8372,-1.8292,-1.7971,-1.7836,-1.7781,-1.7951,-1.7716,-1.7554,-1.7951,-1.7716,-1.7338,-1.703,-1.6289,-1.5469,-1.4447,-1.3842,-1.3154,-1.2254,-1.2244,-1.2281,-1.1998,0.0,0.0,-1.2663,-1.2572,-1.224,-1.1664,-1.1534,-1.0958,-0.978,-0.879,-0.7986,-0.7136,-0.6058,-0.5017,-0.4041,-0.3258,-0.2566,-0.1983,-0.0767,-0.0277,0.0,0.0,0.0,0.0,0.0,0.0,0.0,0.0,0.0,0.0,0.0,0.0,0.0,0.0,0.0,-2.8941,-3.1031,-3.3048,-3.4811,-3.4955,-3.5116,-3.5725,-3.5064,-3.4292,-3.3703,-3.4602,-3.4735,-3.3613,-3.3922,-3.4315,-3.4662,-3.3598,-3.3158,-3.3419,-3.2492,-3.1679,-3.1174,-3.0985,-3.0734,-3.034,0.0,0.0,-2.9834,-2.9822,-2.9292,-2.8596,-2.9138,-2.901,-2.83,-2.8411,-2.7963,-2.7167,-2.6044,-2.4726,-2.3298,-2.3001,-2.2424,-2.1683,-2.1624,-2.1589,-2.1507,-2.155,-2.1253,-2.0908,-2.1183,-2.1095,0.0,-2.0274,-1.9947,-1.9526,-1.8661,-1.8273,-1.8048,-1.7656,-1.7729,-1.7951,-1.7951,-1.7959,-1.7878,-1.7959,-1.7959,-1.7814,-1.7441,-1.6514,-1.5563,-1.495,-1.3917,-1.3105,-1.2876,-1.2533,-1.211,-1.1839,-1.2005,-1.2236,-1.2302,-1.21,-1.1972,-1.1922,-1.1476,-1.0813,-0.9813,-0.9332,-0.857,-0.7426,-0.6407,-0.536,-0.437,-0.3479,-0.2885,-0.2474,-0.1618,-0.1021,0.0,0.0,0.0,0.0,0.0,0.0,0.0,0.0,0.0,0.0,0.0,-2.3053,-2.3857,0.0,-2.8402,-2.9733,-3.1562,-3.3593,-3.5762,-3.5695,-3.5777,-3.6637,-3.5884,-3.5227,-3.5064,-3.5377,-3.5153,-3.415,-3.4567,-3.4755,-3.4502,-3.3925,-3.3544,-3.3514,-3.2633,-3.1894,-3.1467,-3.1511,-3.1296,-3.0799,-3.1183,-3.1154,-3.0777,-3.0633,-3.0115,-2.9349,-2.9495,-2.9249,-2.8576,-2.8654,-2.8186,-2.7323,-2.6463,-2.5079,-2.3663,-2.321,-2.2688,-2.218,-2.2172,-2.2097,-2.1979,-2.1889,-2.15,-2.1036,-2.1172,-2.1007,-2.0654,-2.0342,-2.0033,-1.9639,-1.8921,-1.8765,-1.8686,-1.8232,-1.8453,-1.8745,-1.8665,-1.8523,-1.8371,-1.8371,-1.8121,-1.7912,-1.7535,-1.6852,-1.6159,-1.5486,-1.4613,-1.3785,-1.3092,-1.2833,-1.2408,-1.1574,-1.19,-1.2163,-1.2035,-1.1819,-1.1752,-1.1772,-1.1309,-1.0827,-1.0391,-0.9719,-0.8897,-0.7982,-0.6709,-0.5601,-0.4784,-0.3805,-0.3176,-0.284,-0.2167,-0.16,0.0,0.0,0.0,0.0,0.0,0.0,0.0,-2.3223,-2.3249,-2.3117,-2.3754,-2.4518,-2.5112,-2.7158,-2.9053,-3.0015,-3.1779,-3.3906,-3.6279,-3.6179,-3.6342,-3.7681,-3.676,-3.6082,-3.6309,-3.5899,-3.5295,-3.4375,-3.4931,-3.4964,-3.4162,-3.4088,-3.3944,-3.3699,-3.2959,-3.239,-3.1938,-3.2258,-3.2032,-3.1282,-3.2141,-3.2219,-3.1744,-3.1545,-3.096,-3.0078,-2.9531,-2.906,-2.8617,-2.8568,-2.8167,-2.7567,-2.6966,-2.5819,-2.4502,-2.3644,-2.3012,-2.2756,-2.2797,-2.2625,-2.2331,-2.2257,-2.1745,-2.124,-2.123,-2.1056,-2.0752,-2.0518,-2.0255,-1.9942,-1.9469,-1.9539,-1.9608,-1.9073,-1.9301,-1.9599,-1.9371,-1.9073,-1.8772,-1.87,-1.8362,-1.8017,-1.7629,-1.7209,-1.6687,-1.6011,-1.5445,-1.4588,-1.3403,-1.3286,-1.2829,-1.1606,-1.1998,-1.2254,-1.1849,-1.1721,-1.1576,-1.154,-1.1233,-1.1065,-1.0927,-1.0011,-0.925,-0.8629,-0.7127,-0.6025,-0.5431,-0.4403,-0.3662,-0.3313,-0.2669,-0.2144,-2.0338,-2.2264,-2.4193,-2.5033,-2.5103,-2.5393,0.0,-2.6879,-2.6435,-2.6233,-2.6436,-2.6655,-2.6746,-2.7731,-2.8844,-2.9856,-3.1842,-3.3911,-3.5757,-3.6637,-3.7574,-3.8861,-3.7757,-3.653,-3.5703,-3.5972,-3.5617,-3.4164,-3.4622,-3.4771,-3.4317,-3.4068,-3.4101,-3.4371,-3.3684,-3.3176,-3.2846,-3.3496,-3.3279,-3.2306,-3.2963,-3.3099,-3.2754,-3.2379,-3.1446,-3.0048,-2.9263,-2.8887,-2.8774,-2.8748,-2.8585,-2.8287,-2.7423,-2.6784,-2.6309,-2.458,-2.3829,-2.3562,-2.3082,-2.2443,-2.201,-2.2158,-2.1745,-2.123,-2.1391,-2.1431,-2.1392,-2.1161,-2.0964,-2.0712,-2.0479,-2.0245,-2.0079,-1.9825,-1.9825,-1.9825,-1.9599,-1.9371,-1.9152,-1.8772,-1.8531,-1.8264,-1.798,-1.7527,-1.6989,-1.6426,-1.5677,-1.5044,-1.4544,-1.4053,-1.3469,-1.2888,-1.2469,-1.2149,-1.1821,-1.2018,-1.1945,-1.1546,-1.1678,-1.1522,-1.0912,-1.0241,-0.9769,-0.9467,-0.7947,-0.6975,-0.6643,-0.5383,-0.4524,-0.4172,-0.334,-0.2567,-2.2955,-2.4228,-2.5545,-2.7964,-2.8421,-2.861,-2.9809,-2.9532,-2.8847,-2.8439,-2.8425,-2.8336,-2.779,-2.8567,-2.9482,-2.9936,-3.1443,-3.3374,-3.574,-3.6881,-3.7787,-3.864,-3.8766,-3.8209,-3.6675,-3.6371,-3.5703,-3.4398,-3.4672,-3.4605,-3.3874,-3.4313,-3.4587,-3.4643,-3.4366,-3.4114,-3.3808,-3.4226,-3.407,-3.3372,-3.3754,-3.3778,-3.3479,-3.2945,-3.1883,-3.0375,-2.9795,-2.9347,-2.8937,-2.8834,-2.8767,-2.8597,-2.7753,-2.7506,-2.7434,-2.5532,-2.4683,-2.4313,-2.3961,-2.3606,-2.3183,-2.2778,-2.2462,-2.2347,-2.2006,-2.2018,-2.209,-2.1876,-2.1577,-2.1272,-2.0858,-2.0799,-2.0722,-2.0391,-2.0547,-2.0789,-2.0566,-2.0001,-1.946,-1.9399,-1.8754,-1.8201,-1.8201,-1.783,-1.7412,-1.6945,-1.6243,-1.5532,-1.4967,-1.4423,-1.3772,-1.2848,-1.2391,-1.2087,-1.1916,-1.1948,-1.1796,-1.1444,-1.1432,-1.14,-1.1054,-1.0671,-1.0227,-0.9764,-0.8619,-0.7785,-0.7221,-0.6034,-0.5257,-0.4919,-0.4079,-0.3458,-2.4652,-2.5894,-2.7361,-3.0019,-3.0974,-3.1428,-3.1974,-3.1906,-3.1422,-3.0547,-3.0467,-3.013,-2.8719,-2.9215,-2.981,-2.9643,-3.0958,-3.2826,-3.5203,-3.6547,-3.7585,-3.8334,-3.9059,-3.9026,-3.77,-3.6946,-3.5977,-3.4622,-3.4861,-3.4757,-3.3973,-3.4883,-3.5384,-3.5202,-3.5266,-3.5074,-3.4706,-3.488,-3.4655,-3.4021,-3.4266,-3.4196,-3.3894,-3.3115,-3.2028,-3.0758,-3.033,-2.9792,-2.9172,-2.9003,-2.8924,-2.8755,-2.8156,-2.8095,-2.8119,-2.6405,-2.5488,-2.5044,-2.4872,-2.4374,-2.3798,-2.3257,-2.3032,-2.2955,-2.2551,-2.2533,-2.2635,-2.2551,-2.2198,-2.1778,-2.1446,-2.1363,-2.1282,-2.1031,-2.1262,-2.1502,-2.1359,-2.0644,-2.0001,-1.9942,-1.9143,-1.8425,-1.8434,-1.8127,-1.7819,-1.7339,-1.6791,-1.6158,-1.542,-1.4687,-1.3912,-1.2973,-1.2378,-1.2077,-1.2003,-1.1793,-1.1571,-1.1409,-1.1278,-1.1219,-1.1209,-1.0778,-1.0445,-1.012,-0.9145,-0.8365,-0.7749,-0.6853,-0.6162,-0.5808,-0.5001,-0.4444,-2.4771,-2.7364,-3.0251,-3.0324,-3.1774,-3.3229,-3.3423,-3.4216,-3.448,-3.2851,-3.2759,-3.2199,-2.9562,-2.9466,-2.9544,-2.8785,-3.0525,-3.243,-3.3707,-3.5405,-3.7029,-3.835,-3.8239,-3.8114,0.0,-3.7696,-3.6597,-3.4643,-3.5185,-3.5393,-3.4965,-3.578,-3.6367,-3.6508,-3.6316,-3.5939,-3.5445,-3.5594,-3.5085,-3.3977,-3.4309,-3.421,-3.3882,-3.2646,-3.175,-3.1158,-3.0659,-3.0012,-2.9409,-2.9394,-2.9172,-2.8755,-2.8554,-2.8498,-2.8371,-2.6964,-2.62,-2.5764,-2.5532,-2.4449,-2.3298,-2.3473,-2.3061,-2.2543,-2.2788,-2.2859,-2.2839,-2.3093,-2.2842,-2.249,-2.248,-2.2139,-2.1807,-2.1807,-2.1807,-2.1731,-2.1502,-2.1282,-2.0886,-2.0098,-1.9696,-1.9292,-1.8514,-1.8364,-1.8213,-1.7583,-1.7322,-1.6911,-1.6167,-1.4911,-1.392,-1.3492,-1.2753,-1.2224,-1.2003,-1.1855,-1.1632,-1.1409,-1.13,-1.1193,-1.1213,-1.0643,-1.0455,-1.0656,-0.9487,-0.8794,-0.8456,-0.7749,-0.7217,-0.6776,-0.6115,-0.5709,-2.8715,-3.0126,-3.1541,-3.3453,-3.4414,-3.5066,-3.586,-3.595,-3.5616,-3.4601,-3.3695,-3.2511,-3.0532,-2.9926,-2.9689,-2.9533,-3.0828,-3.2632,-3.5059,-3.6387,-3.7452,-3.8385,-3.9502,-3.9528,0.0,0.0,0.0,-3.6534,-3.6238,-3.6125,-3.6266,-3.6615,-3.6789,-3.6789,-3.6629,-3.6383,-3.6153,-3.5612,-3.5059,-3.4478,-3.4074,-3.3648,-3.3297,-3.2489,-3.1836,-3.1394,-3.0735,-3.0203,-2.9793,-2.9341,-2.9118,-2.8949,-2.8657,-2.851,-2.8407,-2.7817,-2.6927,-2.589,-2.4869,-2.4559,-2.4325,-2.3382,-2.3176,-2.333,-2.2941,-2.293,-2.3041,-2.2811,-2.2615,-2.2428,-2.2118,-2.1921,-2.1807,-2.1807,-2.1807,-2.1807,-2.1731,-2.1339,-2.0876,-2.0411,-1.9854,-1.9301,-1.8834,-1.8815,-1.8578,-1.8004,-1.718,-1.6351,-1.5797,-1.4999,-1.4209,-1.3564,-1.29,-1.2378,-1.2003,-1.1706,-1.1484,-1.1409,-1.0976,-1.0818,-1.0952,-1.053,-1.0378,-1.0429,-0.99,-0.936,-0.8732,-0.8197,-0.7669,-0.6959,-0.6471,-0.6054,-3.1641,-3.2917,-3.4083,-3.6055,-3.6696,-3.6985,-3.7618,-3.7031,-3.6075,-3.518,-3.4006,-3.2565,-3.0664,-3.0017,-2.9922,-3.0375,-3.1436,-3.3133,-3.5719,-3.6841,-3.7753,-3.8705,-3.9788,-3.9965,-3.8754,0.0,0.0,-3.7465,-3.7282,-3.7219,-3.7107,-3.7454,-3.7528,-3.7205,-3.6899,-3.6646,-3.6414,-3.5589,-3.4927,-3.4394,-3.3829,-3.3438,-3.3072,-3.2417,-3.1909,-3.1629,-3.0797,-3.0292,-3.0075,-2.9534,-2.9221,-2.9052,-2.8828,-2.8669,-2.8462,-2.7842,-2.7144,-2.641,-2.5081,-2.4557,-2.4381,-2.3308,-2.3185,-2.336,-2.3053,-2.2979,-2.2946,-2.2977,-2.2749,-2.247,-2.2335,-2.2133,-2.1883,-2.1883,-2.1949,-2.2025,-2.2025,-2.1634,-2.1252,-2.0954,-2.0323,-1.9618,-1.9301,-1.8837,-1.8475,-1.8126,-1.7135,-1.6272,-1.578,-1.507,-1.4353,-1.3702,-1.2966,-1.2452,-1.2003,-1.1632,-1.1409,-1.1409,-1.0812,-1.0633,-1.0901,-1.0434,-1.0172,-1.0312,-1.01,-0.9694,-0.9087,-0.8732,-0.8288,-0.7588,-0.7143,-0.6796,-3.3495,-3.5652,-3.7725,-3.7965,-3.8412,-3.879,-3.8663,-3.7481,-3.6043,-3.4699,-3.3746,-3.2427,-3.0052,-2.9842,-3.0275,-3.1148,-3.2395,-3.3888,-3.5757,-3.685,-3.7942,-3.9264,-3.9175,-3.9543,-4.0945,-4.0431,0.0,-3.7618,0.0,-3.8556,-3.7698,-3.8241,-3.8351,-3.7764,-3.7194,-3.6677,-3.6196,-3.5524,-3.4765,-3.3896,-3.3716,-3.3507,-3.3241,-3.2503,-3.1982,-3.1763,-3.082,-3.0228,-3.0037,-2.9793,-2.9471,-2.9094,-2.9015,-2.8779,-2.8263,-2.7102,-2.6895,-2.715,-2.5927,-2.4566,-2.3444,-2.3228,-2.2832,-2.2573,-2.2987,-2.2811,-2.2646,-2.3525,-2.3143,-2.2563,-2.2998,-2.2616,-2.2101,-2.2101,-2.2252,-2.2402,-2.2402,-2.2252,-2.1959,-2.1578,-2.0954,-2.0323,-1.9678,-1.8641,-1.7904,-1.8053,-1.7216,-1.6491,-1.6132,-1.5284,-1.4418,-1.3905,-1.3105,-1.2452,-1.2077,-1.1632,-1.1409,-1.1409,-1.0812,-1.0627,-1.0884,-1.0253,-0.9993,-1.0292,-1.0091,-0.9767,-0.9349,-0.9349,-0.9087,-0.8568,-0.812,-0.777,-3.5784,-3.7376,-3.8813,-3.9426,-3.9262,-3.8977,-3.9103,-3.791,-3.6353,-3.4842,-3.3465,-3.2009,-3.0367,-3.002,-3.0552,-3.2195,-3.3305,-3.4797,-3.7272,-3.7831,-3.849,-3.977,-4.0117,-4.0437,-4.0908,-4.1764,0.0,0.0,-3.9732,-3.9458,-3.9921,-3.9162,-3.8567,-3.8299,-3.7172,-3.6399,-3.6022,-3.5067,-3.4361,-3.3896,-3.3675,-3.3437,-3.3072,-3.2561,-3.2141,-3.1776,-3.0503,-2.9877,-2.9565,-2.855,-2.8248,-2.8451,-2.8154,-2.7909,-2.7651,-2.7299,-2.6712,-2.5993,-2.5302,-2.4835,-2.4382,-2.3022,-2.2769,-2.2917,-2.2531,-2.2373,-2.2408,-2.234,-2.2237,-2.2157,-2.2128,-2.2137,-2.2101,-2.2101,-2.2252,-2.2402,-2.2402,-2.2252,-2.1959,-2.1578,-2.0722,-1.9932,-1.946,-1.888,-1.8306,-1.7931,-1.7306,-1.6661,-1.6167,-1.5638,-1.4999,-1.4266,-1.3331,-1.2673,-1.2224,-1.1558,-1.1186,-1.1186,-1.0738,-1.0547,-1.0616,-1.0156,-0.9997,-1.031,-1.0036,-0.9881,-0.9777,-0.9432,-0.9082,-0.8552,-0.8288,-0.7918,-3.8,-3.9355,-4.037,-4.1173,-4.0492,-3.9499,-3.895,-3.7326,-3.5387,-3.3484,-3.2165,-3.0984,-2.985,-2.9976,-3.0849,-3.2688,-3.4147,-3.5777,-3.7928,-3.8576,-3.9275,-4.047,-4.0661,-4.0944,-4.1476,-4.2473,-4.2738,0.0,-4.1104,-4.0601,-4.0396,-3.9305,-3.8439,-3.7852,-3.6848,-3.6085,-3.5509,-3.4743,-3.4235,-3.3896,-3.373,-3.3437,-3.3143,-3.2704,-3.2431,-3.2187,0.0,-2.9878,-2.968,-2.8296,-2.7829,-2.79,-2.7673,-2.7428,-2.7145,-2.69,-2.639,-2.5756,-2.5078,-2.4872,-2.4623,-2.3176,-2.2735,-2.2754,-2.2336,-2.2327,-2.237,-2.2352,-2.2258,-2.2229,-2.2363,-2.2334,-2.2327,-2.2327,-2.2553,-2.2628,-2.2628,-2.2478,-2.2176,-2.1415,-2.0644,-2.002,-1.9381,-1.8971,-1.8556,-1.8252,-1.7503,-1.6838,-1.6403,-1.5803,-1.5062,-1.4274,-1.3477,-1.282,-1.2305,-1.1632,-1.1186,-1.1111,-1.0812,-1.0588,-1.0513,-1.0225,-1.0153,-1.0308,-1.0035,-0.9913,-1.0038,-0.9519,-0.9082,-0.8727,-0.8376,-0.8028,-3.957,-4.0926,-4.1903,-4.2485,-4.1524,-4.0,-3.8485,-3.6273,-3.3943,-3.1733,-3.0668,-2.9876,-2.9085,-2.982,-3.1114,-3.278,-3.4642,-3.6427,-3.8027,-3.8895,-3.9836,-4.1108,-4.0906,-4.1144,-4.2275,-4.2782,-4.2787,-4.2123,-4.2296,-4.1724,-4.013,-3.9232,-3.8162,-3.6799,-3.6321,-3.5688,-3.4868,-3.4566,-3.423,-3.3951,-3.3716,-3.3507,-3.3326,-3.2931,-3.2662,-3.2409,0.0,0.0,-2.9738,-2.8477,-2.7748,-2.741,-2.7336,-2.7073,-2.6693,-2.626,-2.6021,-2.5837,-2.5123,-2.4861,-2.4646,-2.353,-2.2852,-2.2553,-2.2542,-2.2478,-2.2563,-2.2892,-2.2711,-2.2563,-2.2913,-2.2863,-2.2703,-2.2703,-2.2852,-2.3001,-2.3001,-2.2852,-2.2317,-2.1098,-2.0722,-2.0323,-1.946,-1.9017,-1.877,-1.8638,-1.7886,-1.7188,-1.6709,-1.5859,-1.4991,-1.4274,-1.363,-1.3046,-1.2452,-1.1855,-1.1409,-1.1186,-1.0962,-1.0738,-1.0519,-1.0275,-1.019,-1.0262,-0.9995,-0.996,-1.0,-0.9506,-0.9174,-0.8911,-0.8464,-0.8116,-3.8678,-4.0409,-4.1922,-4.1439,-4.0539,-3.94,-3.8088,-3.5762,-3.346,-3.2014,-3.0886,-2.9982,-2.9281,-2.982,-3.0891,-3.2588,-3.3831,-3.5379,-3.7578,-3.8059,-3.8925,-4.0827,-4.0787,-4.1053,-4.2208,-4.3288,0.0,0.0,-4.2992,-4.2535,-4.0754,-3.9713,-3.8247,-3.6241,-3.5653,-3.5148,-3.4765,-3.4534,-3.4317,-3.4059,-3.3937,-3.3675,-3.3326,-3.3241,-3.261,-3.1507,-3.0847,0.0,-2.8394,-2.7347,-2.6892,-2.6784,-2.6469,-2.62,-2.6003,-2.608,-2.5721,-2.5301,-2.5265,-2.5052,-2.4718,-2.42,-2.3751,-2.3372,-2.3191,-2.3054,-2.2863,-2.2628,-2.2563,-2.266,-2.2563,-2.2617,-2.2703,-2.2703,-2.2852,-2.3001,-2.3001,-2.2703,-2.2166,-2.1098,-2.0722,-2.0323,-1.946,-1.9246,-1.9003,-1.8511,-1.8262,-1.7796,-1.6569,-1.5867,-1.5284,-1.4792,-1.4129,-1.355,-1.3046,-1.2526,-1.1929,-1.1409,-1.1186,-1.0887,-1.0513,-1.0332,-1.0171,-1.0016,-0.9928,-0.9902,-1.004,-0.9525,-0.9262,-0.9262,-0.8736,-0.83,-3.8339,-3.9663,-4.0769,-4.1255,-4.0392,-3.8892,-3.6906,-3.4821,-3.2723,-3.0743,-2.9959,-2.9527,-2.9208,-2.9865,-3.0728,-3.1578,-3.2881,-3.4433,-3.6384,-3.6983,-3.8007,-4.0157,-4.0534,-4.089,-4.1578,-4.3103,-4.3454,-4.2078,-4.275,-4.2507,-4.1015,-3.9141,-3.7394,-3.5778,-3.5279,-3.4949,-3.4698,-3.4481,-3.4278,-3.402,-3.4005,-3.373,-3.3326,-3.3382,-3.2807,-3.1691,-3.0868,0.0,-2.8209,-2.7163,-2.6491,-2.6137,-2.5923,-2.5768,-2.5709,-2.5768,-2.5683,-2.5477,-2.5465,-2.5324,-2.5206,-2.4897,-2.4394,-2.3897,-2.3582,-2.3361,-2.3224,-2.283,-2.282,-2.2809,-2.2767,-2.2777,-2.2852,-2.2703,-2.2777,-2.2852,-2.2703,-2.2553,-2.2101,-2.0944,-2.0644,-2.0323,-1.946,-1.9301,-1.9237,-1.8879,-1.8593,-1.8168,-1.7499,-1.6824,-1.6071,-1.5182,-1.4561,-1.4129,-1.3768,-1.3251,-1.2739,-1.2224,-1.1781,-1.1335,-1.0812,-1.0513,-1.0258,-1.0032,-0.9953,-0.9853,-0.9812,-0.9425,-0.9262,-0.9087,-0.874,-0.8388,-3.7571,-3.876,-3.9614,-4.0715,-3.9937,-3.8247,-3.5644,-3.3765,-3.193,-2.9499,-2.9044,-2.9089,-2.9067,-2.9695,-3.0383,-3.0745,-3.1946,-3.3436,-3.5163,-3.6017,-3.7264,-3.9447,-4.0213,-4.0744,-4.1245,-4.2873,0.0,-4.1844,-4.214,0.0,-4.0483,-3.8188,-3.6441,-3.5454,-3.5082,-3.4817,-3.4698,-3.4549,-3.4346,-3.4103,-3.4142,-3.3937,-3.3466,-3.3577,-3.3002,-3.1847,-3.0952,0.0,0.0,-2.7221,-2.6414,-2.5746,-2.5606,-2.5606,-2.5618,-2.5688,-2.5688,-2.5758,-2.5606,-2.5535,-2.5465,-2.5312,-2.4826,-2.4261,-2.3925,-2.374,-2.3553,-2.3224,-2.3065,-2.3001,-2.3001,-2.3001,-2.2927,-2.2777,-2.2703,-2.2628,-2.2478,-2.2402,-2.2101,-2.1031,-2.0722,-2.0401,-1.9539,-1.9381,-1.9301,-1.9301,-1.887,-1.8556,-1.8398,-1.789,-1.7037,-1.5682,-1.5248,-1.4856,-1.4489,-1.3977,-1.3542,-1.3039,-1.2519,-1.1929,-1.1335,-1.0887,-1.0383,-0.9958,-0.9927,-0.9804,-0.9511,-0.9339,-0.9109,-0.8939,-0.8682,-0.8436,-3.5613,-3.7765,-3.9429,-3.8761,-3.8353,-3.7436,-3.4816,-3.2859,-3.1134,-2.937,-2.9044,-2.9067,-2.8952,-2.903,-2.9604,-3.0929,-3.1243,-3.2101,-3.4462,-3.5513,-3.6825,-3.8833,-3.995,-4.0927,-4.2061,-4.3044,-4.3437,-4.298,-4.1557,0.0,-3.8519,-3.737,-3.6295,-3.5243,-3.5001,-3.4817,-3.4698,-3.4698,-3.4631,-3.4631,-3.4481,-3.4225,-3.3827,-3.3675,-3.2723,-3.1282,-3.1198,0.0,0.0,-2.7493,-2.6834,-2.6094,-2.5746,-2.5606,-2.5606,-2.5828,-2.5676,-2.5382,-2.5535,-2.5394,-2.5182,-2.5241,-2.5052,-2.4766,-2.4684,-2.4166,-2.359,-2.3593,-2.3276,-2.3001,-2.3001,-2.3001,-2.2927,-2.2777,-2.2703,-2.2628,-2.2478,-2.2402,-2.2176,-2.1578,-2.1108,-2.0634,-1.9942,-1.9539,-1.9301,-1.9301,-1.9265,-1.903,-1.8502,-1.8353,-1.7877,-1.6872,-1.643,-1.5858,-1.4935,-1.4633,-1.4201,-1.3462,-1.3039,-1.2526,-1.1929,-1.1335,-1.0674,-0.9949,-0.9925,-0.9737,-0.9315,-0.9142,-0.9074,-0.9168,-0.8572,-0.8311,-3.4711,-3.6345,-3.7757,-3.7806,-3.6977,-3.5672,-3.3849,-3.2182,-3.0613,-2.9219,-2.8998,-2.9021,-2.8952,-2.8952,-2.9247,-3.0192,-3.0321,-3.1102,-3.3358,-3.3911,-3.4914,-3.713,-3.8472,-3.9443,-4.0006,0.0,-4.1987,-4.1229,-4.0101,0.0,-3.7632,-3.6929,-3.6096,-3.5016,-3.4935,-3.4817,-3.4698,-3.4563,-3.4481,-3.4481,-3.4563,-3.4361,-3.3882,-3.3525,-3.2577,-3.1158,-3.0821,0.0,0.0,-2.7611,-2.7028,-2.6483,-2.5955,-2.5828,-2.598,-2.591,-2.591,-2.5828,-2.5676,-2.5465,-2.5241,-2.5312,-2.5182,-2.4909,-2.4707,-2.4322,-2.3892,-2.3519,-2.3213,-2.3001,-2.3001,-2.2927,-2.2852,-2.2852,-2.2777,-2.2628,-2.2478,-2.2478,-2.2327,-2.1502,-2.1108,-2.0712,-2.002,-1.9548,-1.9301,-1.9301,-1.9301,-1.9237,-1.9003,-1.8697,-1.8343,-1.7714,-1.7005,-1.6344,-1.5664,-1.5355,-1.4927,-1.4346,-1.3768,-1.3185,-1.2599,-1.1855,-1.1111,-1.0438,-1.0328,-0.9979,-0.9488,-0.9394,-0.9211,-0.8796,-0.8742,-0.8491,-3.3754,-3.5059,-3.6175,-3.6881,-3.5888,-3.4438,-3.3199,-3.1681,-3.0165,-2.896,-2.8827,-2.8947,-2.89,-2.8881,-2.9162,-2.9952,-3.0017,-3.0674,-3.2616,-3.2944,-3.3699,-3.5634,-3.6872,-3.7877,-3.877,-4.047,-4.108,-3.9914,0.0,0.0,-3.7311,-3.6607,-3.5887,-3.5016,-3.4868,-3.4817,-3.4698,-3.4426,-3.4359,-3.4534,-3.4354,-3.4083,-3.3704,-3.3249,-3.2321,-3.1096,-3.06,0.0,0.0,-2.7829,-2.7351,-2.6934,-2.6371,-2.6176,-2.6188,-2.6188,-2.6037,-2.591,-2.5828,-2.5477,-2.5182,-2.5241,-2.5182,-2.4981,-2.4634,-2.4418,-2.4127,-2.3593,-2.3224,-2.2927,-2.2927,-2.2777,-2.2703,-2.2777,-2.2777,-2.2628,-2.2478,-2.2553,-2.2478,-2.1731,-2.1339,-2.0944,-2.0333,-1.9775,-1.9423,-1.9146,-1.9127,-1.9091,-1.8971,-1.8715,-1.8385,-1.7981,-1.7251,-1.6641,-1.6167,-1.585,-1.5505,-1.5007,-1.4346,-1.3695,-1.3119,-1.2305,-1.1558,-1.0962,-1.0699,-1.0245,-0.9777,-0.9617,-0.9242,-0.8761,-0.8783,-0.8598,-3.2545,-3.3949,-3.4997,-3.5807,-3.5202,-3.4116,-3.2958,-3.1366,-2.9769,-2.8567,-2.8579,-2.8761,-2.8637,-2.8761,-2.9296,-3.0492,-3.0534,-3.0932,-3.2488,-3.3019,-3.3705,-3.4783,-3.5285,-3.6533,-3.9123,-4.0709,-4.1077,-3.9781,0.0,0.0,-3.7464,-3.6321,-3.5574,-3.5213,-3.4898,-3.4698,-3.4698,-3.425,-3.4301,-3.4854,-3.3735,-3.3265,-3.3398,-3.2803,-3.1997,0.0,0.0,0.0,0.0,-2.83,-2.7762,-2.7604,-2.6973,-2.6508,-2.6233,-2.6577,-2.6082,-2.5382,-2.598,-2.5572,-2.4861,-2.5182,-2.5052,-2.479,-2.479,-2.4502,-2.4127,-2.397,-2.3298,-2.2703,-2.2703,-2.2703,-2.2628,-2.2478,-2.2553,-2.2628,-2.2478,-2.2553,-2.2628,-2.2402,-2.2025,-2.1568,-2.1021,-2.0323,-1.9643,-1.8856,-1.8715,-1.8577,-1.8183,-1.8137,-1.7963,-1.755,-1.7297,-1.692,-1.6377,-1.6202,-1.585,-1.5204,-1.4705,-1.4137,-1.3492,-1.2746,-1.2003,-1.1409,-1.0847,-1.0396,-1.0223,-0.9617,-0.9183,-0.8955,-0.8752,-0.8464,-3.1083,-3.222,-3.3185,-3.3256,-3.2529,-3.1666,-3.1062,-3.0105,-2.9192,-2.8608,-2.8707,-2.8858,-2.8791,-2.8858,-2.9271,-3.037,-3.0516,-3.0871,-3.1969,-3.2663,-3.3523,-3.4805,-3.6498,-3.8075,0.0,0.0,-3.9137,-3.8942,0.0,0.0,-3.7254,-3.6693,-3.6133,-3.5574,-3.5213,-3.4794,-3.4336,-3.3986,-3.378,-3.372,-3.3243,-3.3107,-3.3094,-3.2386,-3.1743,0.0,0.0,0.0,0.0,-2.861,-2.8157,-2.8026,-2.704,-2.6589,-2.6383,-2.6245,-2.6037,-2.591,-2.5676,-2.5394,-2.5111,-2.5182,-2.4981,-2.4718,-2.449,-2.42,-2.3897,-2.3446,-2.3001,-2.2703,-2.2852,-2.2927,-2.2927,-2.2852,-2.2852,-2.2927,-2.2852,-2.2852,-2.2777,-2.2478,-2.2111,-2.1476,-2.0546,-2.0041,-1.945,-1.8583,-1.8527,-1.8406,-1.8137,-1.7871,-1.7642,-1.7513,-1.7186,-1.6827,-1.6551,-1.6272,-1.5921,-1.5426,-1.4856,-1.4353,-1.392,-1.3112,-1.2526,-1.2003,-1.1421,-1.0901,-1.0363,-1.0068,-0.9647,-0.9147,-0.8315,-0.7958,-2.964,-3.0742,-3.1674,-3.1768,-3.112,-3.0372,-3.0081,-2.9393,-2.8779,-2.8664,-2.8766,-2.8929,-2.8975,-2.891,-2.9186,-3.0032,-3.029,-3.069,-3.1533,-3.2323,-3.3214,-3.4406,-3.6574,0.0,0.0,-3.8161,-3.7978,0.0,0.0,0.0,-3.6877,-3.6518,-3.6137,-3.5813,-3.5439,-3.4937,-3.4154,-3.3711,-3.3387,-3.3099,-3.2626,-3.2522,-3.2606,-3.1896,-3.1406,0.0,0.0,0.0,0.0,-2.8867,-2.8417,-2.8222,-2.731,-2.6782,-2.644,-2.6164,-2.6037,-2.591,-2.5606,-2.5394,-2.5182,-2.5099,-2.4909,-2.4646,-2.42,-2.3824,-2.3446,-2.2927,-2.2777,-2.2703,-2.2852,-2.2927,-2.3001,-2.3001,-2.3001,-2.2957,-2.2783,-2.2881,-2.2818,-2.225,-2.1946,-2.1468,-2.0477,-1.9826,-1.9245,-1.8458,-1.8255,-1.8126,-1.7905,-1.7654,-1.7487,-1.7407,-1.7186,-1.689,-1.6603,-1.6333,-1.5921,-1.5426,-1.4856,-1.4425,-1.3992,-1.3266,-1.2746,-1.2452,-1.1855,-1.126,-1.0812,-1.0137,-0.9571,-0.9128,-0.8229,-0.7838,0.0,-2.9393,-3.0305,-3.1052,-3.0575,-2.9868,-2.9682,-2.8967,0.0,-2.8603,-2.8746,-2.8879,-2.9067,-2.8998,-2.9047,-2.9547,-2.9976,-3.0472,-3.117,-3.2115,-3.3083,-3.3898,-3.5869,0.0,-3.6473,-3.7269,0.0,0.0,0.0,0.0,-3.6285,-3.5935,-3.5742,-3.5861,-3.552,-3.4902,-3.3972,-3.3398,-3.3072,-3.2919,-3.1946,-3.1663,-3.1959,-3.1501,-3.1102,0.0,0.0,0.0,0.0,-2.9198,-2.861,-2.8222,-2.7762,-2.7079,-2.6427,-2.6465,-2.6119,-2.5688,-2.5828,-2.5548,-2.5111,-2.5016,-2.4754,-2.4418,-2.397,-2.3446,-2.2927,-2.2553,-2.2553,-2.2703,-2.2703,-2.2852,-2.3001,-2.3001,-2.2968,-2.2848,-2.2455,-2.2652,-2.2652,-2.18,-2.1668,-2.1426,-2.0523,-1.9807,-1.9102,-1.8389,-1.7967,-1.7694,-1.7517,-1.747,-1.7392,-1.7235,-1.7166,-1.7028,-1.6603,-1.6412,-1.5991,-1.5275,-1.4856,-1.4361,-1.3863,-1.3294,-1.2847,-1.2599,-1.2003,-1.1558,-1.1409,-0.983,-0.9038,-0.903,-0.8337,-0.7859,-2.6598,0.0,-2.7687,-2.8474,-2.7931,-2.7217,0.0,-2.697,-2.6989,-2.7853,-2.8054,-2.8287,-2.9045,-2.9021,-2.9095,-2.9712,-3.0242,-3.0683,-3.0953,-3.2938,-3.4772,-3.5879,-3.6868,-3.7379,-3.7036,-3.6669,0.0,0.0,0.0,-3.5575,-3.5631,-3.5518,-3.5388,-3.5143,-3.4948,-3.4346,-3.3231,-3.2615,-3.2228,-3.2077,-3.1456,-3.144,-3.1822,-3.1483,-3.1176,0.0,0.0,0.0,-3.005,-2.9352,-2.8675,-2.8039,-2.8007,-2.737,-2.6502,-2.6764,-2.6536,-2.598,-2.5758,-2.5606,-2.5394,-2.4992,-2.4562,-2.42,-2.3824,-2.3446,-2.3224,-2.315,-2.2927,-2.2703,-2.2927,-2.3075,-2.3224,-2.3001,-2.2739,-2.2542,-2.2783,-2.2357,-2.1892,-2.1941,-2.1635,-2.1101,-2.0136,-1.9645,-1.9143,-1.8223,-1.787,-1.7703,-1.7548,-1.7392,-1.7235,-1.7235,-1.7038,-1.683,-1.6412,-1.6342,-1.6061,-1.5497,-1.4927,-1.4425,-1.4065,-1.3726,-1.3219,-1.2606,-1.1706,-1.1186,-1.1186,-0.9841,-0.9202,-0.9183,-0.8418,-0.7859,-2.6301,-2.7042,-2.7675,-2.8114,-2.757,-2.6959,-2.6977,-2.6663,-2.6526,-2.7214,-2.7622,-2.8067,-2.8637,-2.8857,-2.9148,-2.9712,-3.0214,-3.0902,-3.2014,-3.3294,-3.4675,-3.6333,-3.6697,-3.6853,0.0,0.0,0.0,0.0,0.0,-3.5015,-3.5015,-3.4944,-3.4762,-3.4538,-3.4001,-3.3532,-3.3099,-3.2497,-3.205,-3.164,-3.1351,-3.1307,-3.1597,-3.1467,-3.1307,0.0,0.0,0.0,-2.9865,-2.9477,-2.8817,-2.8066,-2.8078,-2.754,-2.6752,-2.6848,-2.6507,-2.598,-2.5688,-2.5465,-2.5336,-2.5064,-2.4706,-2.4345,-2.3897,-2.3436,-2.3083,-2.301,-2.3001,-2.3001,-2.3075,-2.3372,-2.3519,-2.3446,-2.2933,-2.2512,-2.2765,-2.2166,-2.1592,-2.1485,-2.122,-2.0758,-2.0005,-1.9583,-1.9094,-1.8444,-1.8134,-1.793,-1.7745,-1.7657,-1.752,-1.7382,-1.7176,-1.683,-1.6342,-1.614,-1.5859,-1.5426,-1.4856,-1.4425,-1.4129,-1.3579,-1.3068,-1.2452,-1.1855,-1.1409,-1.126,-1.0143,-0.9453,-0.9111,-0.846,-0.7907,-2.6354,-2.7637,-2.8463,-2.8537,-2.8007,-2.75,-2.7564,-2.7043,-2.6622,-2.6935,-2.7548,-2.8081,-2.833,-2.8682,-2.9112,-2.9686,-3.0116,-3.121,-3.3527,-3.3414,-3.3889,-3.6051,-3.5922,0.0,0.0,0.0,0.0,0.0,0.0,-3.4393,-3.434,-3.4216,-3.4108,-3.3983,-3.3131,-3.2841,-3.3146,-3.2641,-3.2122,-3.1595,-3.1437,-3.1336,-3.1409,-3.1467,-3.1307,0.0,0.0,0.0,-2.9665,-2.9665,-2.9035,-2.8145,-2.8172,-2.7668,-2.6985,-2.6802,-2.6458,-2.591,-2.5688,-2.5394,-2.5194,-2.5123,-2.4992,-2.4718,-2.4116,-2.3462,-2.2932,-2.2772,-2.2837,-2.3099,-2.3165,-2.3481,-2.3806,-2.3801,-2.3212,-2.2661,-2.2728,-2.2121,-2.1374,-2.1103,-2.0782,-2.042,-1.9943,-1.9473,-1.9142,-1.8942,-1.8539,-1.8279,-1.8076,-1.8008,-1.7872,-1.7539,-1.7314,-1.689,-1.6342,-1.5929,-1.5576,-1.5204,-1.4713,-1.4305,-1.4061,-1.3287,-1.2774,-1.2446,-1.2177,-1.1855,-1.1484,-1.0443,-0.969,-0.9089,-0.8573,-0.8024,-2.5382,-2.6451,-2.7345,-2.7752,-2.7222,-2.6661,-2.6888,-2.6814,-2.6905,-2.7727,-2.7948,-2.8223,-2.8989,-2.8865,-2.898,-2.9948,-3.0563,-3.1706,0.0,0.0,-3.3835,-3.6054,0.0,0.0,0.0,0.0,0.0,0.0,0.0,-3.3762,-3.3662,-3.362,-3.3583,-3.3414,-3.3143,-3.3036,-3.3091,-3.2231,-3.1887,-3.2079,-3.1667,-3.1625,-3.1883,-3.1524,-3.1234,0.0,0.0,-3.0447,-2.9761,-2.9761,-2.9184,-2.8289,-2.8451,-2.7874,-2.7037,-2.7189,-2.6726,-2.6131,-2.5758,-2.5535,-2.5465,-2.5194,-2.5052,-2.4909,-2.4334,-2.375,-2.3208,-2.2728,-2.2248,-2.1969,-2.2568,-2.2894,-2.3149,-2.3565,-2.3139,-2.275,-2.3318,-2.2158,-2.1136,-2.1614,-2.0884,-2.0096,-1.9944,-1.9671,-1.9473,-1.9285,-1.8808,-1.8482,-1.8414,-1.8056,-1.7647,-1.7539,-1.7185,-1.676,-1.6342,-1.5859,-1.5363,-1.4935,-1.4569,-1.4194,-1.3812,-1.3188,-1.2945,-1.2982,-1.235,-1.2003,-1.1929,-1.0738,-0.9992,-0.9776,-0.8894,-0.8349,-2.5121,-2.6118,-2.6986,-2.7429,-2.7273,-2.7068,-2.7343,-2.7013,-2.6751,-2.7114,-2.7497,-2.786,-2.816,-2.8557,-2.9138,-3.0115,-3.0879,-3.1888,-3.3551,-3.333,-3.3715,0.0,0.0,0.0,0.0,0.0,0.0,0.0,0.0,0.0,-3.3848,-3.367,-3.353,-3.3398,-3.333,-3.3293,-3.3203,-3.2703,-3.2468,-3.2382,-3.2064,-3.191,-3.1996,-3.1754,-3.1482,-3.1087,0.0,-3.0613,-2.9808,-2.9931,-2.9435,-2.86,-2.8675,-2.8146,-2.7214,-2.6823,-2.6494,-2.6131,-2.5828,-2.5688,-2.5535,-2.5394,-2.5324,-2.5052,-2.4213,-2.3618,-2.3075,-2.2045,-2.1815,-2.1973,-2.2254,-2.2391,-2.2666,-2.3232,-2.2831,-2.2615,-2.3436,-2.2581,-2.174,-2.2358,-2.1518,-2.0776,-2.071,-2.0435,-2.0064,-1.9671,-1.9407,-1.9152,-1.8849,-1.8347,-1.794,-1.7783,-1.7125,-1.6621,-1.6342,-1.5709,-1.507,-1.4497,-1.4217,-1.385,-1.3482,-1.3124,-1.2889,-1.2804,-1.2371,-1.2077,-1.2003,-1.0887,-1.0218,-0.9857,-0.9133,-0.8509,-2.4689,-2.5632,-2.6407,-2.694,-2.7318,-2.7743,-2.8393,-2.7843,-2.7282,-2.7567,-2.8068,-2.8359,-2.7924,-2.8737,-2.9671,-3.0267,-3.1184,-3.2221,-3.3423,-3.3235,-3.3671,-3.5453,0.0,0.0,0.0,0.0,0.0,0.0,0.0,0.0,-3.4101,-3.3896,-3.3706,-3.3555,-3.3575,-3.3523,-3.3398,-3.3309,-3.3081,-3.2711,-3.2244,-3.1962,-3.1866,-3.1697,-3.1357,-3.091,-3.1102,-3.0732,-3.0007,-3.0068,-2.9713,-2.9022,-2.8844,-2.8183,-2.7323,-2.6602,-2.6339,-2.627,-2.605,-2.5828,-2.5676,-2.5606,-2.5453,-2.5087,-2.4132,-2.3502,-2.2852,-2.1587,-2.1452,-2.18,-2.1855,-2.1968,-2.2092,-2.2725,-2.2486,-2.2383,-2.3307,-2.2652,-2.2148,-2.2812,-2.2115,-2.1375,-2.1375,-2.1072,-2.0662,-2.0085,-1.9933,-1.9747,-1.9271,-1.8771,-1.8289,-1.7998,-1.7263,-1.6533,-1.6061,-1.5417,-1.4776,-1.4201,-1.3935,-1.3645,-1.3273,-1.3046,-1.2826,-1.2599,-1.2452,-1.2231,-1.2003,-1.0962,-1.0293,-0.9927,-0.924,-0.8629,-2.3598,-2.4331,-2.4964,-2.5885,-2.6933,-2.8246,-2.9996,-2.9675,-2.9425,-3.0905,-3.117,-3.0782,-2.9646,-3.0224,-3.0815,-3.0612,-3.1637,-3.2985,-3.4555,0.0,-3.3671,0.0,0.0,0.0,0.0,0.0,0.0,0.0,0.0,0.0,-3.4101,-3.4101,-3.3949,-3.3694,-3.3697,-3.3697,-3.3642,-3.3658,-3.345,-3.3043,-3.1982,-3.1459,-3.1405,-3.0875,-3.0499,-3.0359,-3.0676,-3.0702,-3.0507,-3.0219,-2.9974,-2.9623,-2.8894,-2.7987,-2.704,-2.6973,-2.6782,-2.6465,-2.627,-2.6062,-2.5828,-2.5676,-2.5453,-2.5158,-2.436,-2.3606,-2.2809,-2.1815,-2.1185,-2.0882,-2.1197,-2.1252,-2.1442,-2.208,-2.2112,-2.2154,-2.301,-2.2125,-2.1575,-2.2956,-2.2195,-2.1375,-2.1375,-2.1341,-2.1107,-2.0466,-2.0074,-1.9813,-1.9615,-1.9075,-1.8549,-1.8086,-1.752,-1.6673,-1.5417,-1.4919,-1.4569,-1.4353,-1.4008,-1.3717,-1.3492,-1.3273,-1.2973,-1.2599,-1.2599,-1.2378,-1.2003,-1.0962,-1.0368,-1.0148,-0.9174,-0.8671,-2.2963,-2.4161,-2.5269,-2.5793,-2.7061,-2.8415,-2.9333,-2.9899,-3.0553,-3.152,-3.1719,-3.1265,-2.9872,-3.0409,-3.1083,-3.1087,-3.1774,-3.3019,-3.4995,-3.4386,0.0,0.0,0.0,0.0,0.0,0.0,0.0,0.0,0.0,0.0,-3.4497,-3.4382,-3.4283,-3.4201,-3.4185,-3.3925,-3.3387,-3.3338,-3.3139,-3.2886,-3.2396,-3.1742,-3.1027,-3.0766,-3.0624,-3.0537,-3.058,-3.0675,-3.0807,-3.0522,-3.0266,-2.987,-2.8958,-2.8197,-2.7603,-2.7175,-2.6905,-2.6782,-2.6465,-2.6258,-2.6062,-2.5828,-2.5688,-2.5334,-2.4578,-2.4002,-2.335,-2.2161,-2.1519,-2.1149,-2.0775,-2.0687,-2.0864,-2.1419,-2.1531,-2.1732,-2.2304,-2.2252,-2.2219,-2.2604,-2.2196,-2.1718,-2.1718,-2.1456,-2.113,-2.0627,-2.0475,-2.0281,-1.9834,-1.9075,-1.8482,-1.8232,-1.7282,-1.6263,-1.5497,-1.5133,-1.4927,-1.4721,-1.4152,-1.379,-1.3717,-1.3346,-1.3046,-1.2826,-1.2673,-1.2378,-1.2003,-1.0962,-1.0363,-1.0148,-0.9316,-0.8829,-2.2436,-2.3536,-2.4778,-2.5508,-2.7014,-2.8559,-2.9528,-3.0514,-3.1495,-3.2433,-3.2242,-3.1601,-3.0588,-3.0721,-3.1217,0.0,-3.2276,-3.3266,-3.5584,0.0,0.0,0.0,0.0,0.0,0.0,0.0,0.0,0.0,0.0,0.0,0.0,-3.418,-3.4069,-3.4297,-3.3968,-3.3512,-3.2899,-3.2999,-3.2919,-3.2563,-3.2724,-3.2106,-3.0842,-3.0807,-3.052,-3.0142,-3.0413,-3.0622,-3.0807,-3.0719,-3.0387,-2.9946,-2.9135,-2.8573,-2.8131,-2.7523,-2.7175,-2.6973,-2.6714,-2.6465,-2.6131,-2.598,-2.5758,-2.5463,-2.4821,-2.4247,-2.3618,-2.2626,-2.1957,-2.1385,-2.0852,-2.0586,-2.0488,-2.0809,-2.0952,-2.1086,-2.1596,-2.1846,-2.2093,-2.2275,-2.2183,-2.1996,-2.1884,-2.1686,-2.1346,-2.0767,-2.0669,-2.0475,-1.9965,-1.9274,-1.8617,-1.8105,-1.6936,-1.6061,-1.5576,-1.5284,-1.507,-1.4935,-1.4289,-1.3863,-1.3863,-1.3492,-1.3193,-1.29,-1.2673,-1.2378,-1.1929,-1.0887,-1.0293,-1.0073,-0.9319,-0.8802,-2.1928,-2.232,-2.3041,-2.4764,-2.669,-2.8731,-3.108,-3.1768,-3.2409,-3.4057,-3.3069,-3.1956,-3.2074,-3.1408,-3.1392,-3.3108,-3.3168,-3.3888,0.0,0.0,0.0,0.0,0.0,0.0,0.0,0.0,0.0,0.0,0.0,0.0,0.0,-3.3367,-3.3122,-3.3756,-3.2833,-3.2274,-3.2183,-3.285,-3.2803,-3.2012,-3.2835,-3.2434,-3.0992,-3.074,-2.9961,-2.897,-3.0008,-3.0481,-3.0541,-3.0719,-3.0372,-2.9747,-2.9435,-2.8917,-2.83,-2.8131,-2.7656,-2.6973,-2.6973,-2.6658,-2.6131,-2.598,-2.5758,-2.5477,-2.5004,-2.4213,-2.3431,-2.3279,-2.2365,-2.1419,-2.1386,-2.0885,-2.041,-2.041,-2.0281,-2.0347,-2.1019,-2.0951,-2.1025,-2.2014,-2.2207,-2.2122,-2.1775,-2.1999,-2.1873,-2.0834,-2.0669,-2.0464,-1.9933,-1.9736,-1.8998,-1.7579,-1.6621,-1.5921,-1.5576,-1.515,-1.4872,-1.4872,-1.4425,-1.4129,-1.4129,-1.3702,-1.3346,-1.29,-1.2673,-1.2305,-1.1706,-1.0663,-1.0067,-0.9916,-0.9084,-0.8581,-2.2421,-2.3329,-2.4435,-2.6021,-2.8172,-3.0211,-3.1216,-3.2633,-3.3988,-3.4976,-3.4357,-3.3354,-3.2301,-3.2115,0.0,-3.3389,-3.3085,-3.3592,0.0,0.0,0.0,0.0,0.0,0.0,0.0,0.0,0.0,0.0,0.0,0.0,0.0,-3.3554,-3.3121,-3.3217,-3.2896,-3.2387,-3.1703,-3.181,-3.1981,-3.2152,-3.2301,-3.2047,-3.1421,-3.0734,-3.0329,-3.0058,-2.965,-2.9644,-3.0003,-3.0327,-3.0338,-3.0129,-2.9931,-2.9449,-2.8766,-2.8118,-2.7656,-2.7255,-2.6782,-2.6521,-2.6327,-2.598,-2.584,-2.5758,-2.5253,-2.4732,-2.4116,-2.3746,-2.2891,-2.2038,-2.1809,-2.1407,-2.1031,-2.0658,-2.0733,-2.0884,-2.0848,-2.0963,-2.1133,-2.143,-2.1537,-2.1509,-2.1516,-2.1486,-2.1335,-2.0767,-2.0669,-2.0335,-1.9473,-1.8808,-1.8134,-1.7373,-1.6621,-1.6132,-1.5921,-1.5426,-1.5133,-1.5133,-1.4489,-1.4129,-1.4129,-1.3702,-1.3346,-1.29,-1.2673,-1.2305,-1.1706,-1.0663,-1.0067,-0.9916,-0.9084,-0.866,-2.236,-2.3618,-2.5128,-2.6958,-2.9042,-3.1057,-3.2519,-3.3888,-3.5,-3.5665,-3.5109,-3.4204,-3.3332,-3.309,0.0,-3.4321,-3.3618,-3.374,0.0,0.0,0.0,0.0,0.0,0.0,0.0,0.0,0.0,0.0,0.0,0.0,0.0,-3.3039,-3.2604,-3.2698,-3.2319,-3.1781,-3.112,-3.1271,-3.1544,-3.1896,-3.2329,-3.2448,-3.2208,-3.1166,-3.0492,-3.0118,-2.9429,-2.9422,-2.9863,-3.0308,-3.0406,-3.0249,-3.0151,-2.9775,-2.9226,-2.8444,-2.7987,-2.7523,-2.7066,-2.6726,-2.6465,-2.6119,-2.598,-2.598,-2.5618,-2.5182,-2.4624,-2.4449,-2.3711,-2.2982,-2.2619,-2.2356,-2.191,-2.1088,-2.1031,-2.1094,-2.0797,-2.0914,-2.1031,-2.0914,-2.1014,-2.1109,-2.1112,-2.1088,-2.1019,-2.0816,-2.0529,-2.014,-1.9407,-1.8539,-1.7872,-1.7442,-1.6751,-1.6272,-1.6132,-1.5559,-1.5204,-1.5204,-1.4482,-1.4129,-1.4129,-1.363,-1.32,-1.29,-1.2599,-1.2231,-1.1706,-1.0663,-1.0067,-0.9916,-0.9084,-0.8627,-2.1933,-2.3393,-2.5236,-2.758,-2.9468,-3.1523,-3.4485,-3.5222,-3.5421,-3.6061,-3.5357,-3.4638,-3.4778,-3.415,-3.4092,-3.5528,-3.4458,0.0,0.0,0.0,0.0,0.0,0.0,0.0,0.0,0.0,0.0,0.0,0.0,0.0,0.0,-3.2008,-3.1752,-3.2083,-3.1321,-3.0773,-3.0526,-3.1061,-3.1336,0.0,-3.2626,-3.319,-3.3144,-3.1901,-3.0613,-2.9362,-2.93,-2.9516,-2.9887,-3.0337,-3.0432,-3.0288,-3.0129,-2.9903,-2.9602,-2.9035,-2.8379,-2.7776,-2.7523,-2.7066,-2.6465,-2.627,-2.6213,-2.6131,-2.598,-2.5535,-2.5087,-2.5241,-2.4718,-2.3999,-2.3716,-2.3441,-2.2886,-2.1602,-2.121,-2.1135,-2.0786,-2.085,-2.0903,-2.0604,-2.0726,-2.0862,-2.0824,-2.0823,-2.0871,-2.0876,-2.0324,-1.9802,-1.9605,-1.8674,-1.794,-1.7706,-1.689,-1.6272,-1.6132,-1.5559,-1.5204,-1.5204,-1.4482,-1.4129,-1.4129,-1.3484,-1.3134,-1.2942,-1.2493,-1.2123,-1.1745,-1.0697,-1.0089,-0.9916,-0.9084,-0.8627,-2.2207,-2.3586,-2.498,-2.725,-2.9864,-3.2517,-3.5015,-3.5182,-3.4948,-3.5424,-3.5044,-3.4665,-3.4856,-3.47,-3.4726,-3.531,0.0,0.0,0.0,0.0,0.0,0.0,0.0,0.0,0.0,0.0,0.0,0.0,0.0,0.0,-3.2801,-3.2004,-3.1453,-3.1251,-3.1036,-3.0831,-3.0651,-3.065,-3.0929,0.0,-3.1597,-3.2041,-3.2869,-3.2428,-3.1083,-2.9078,-2.851,-2.8798,-2.9642,-2.9426,-3.0018,-3.0967,-3.0178,-2.9985,-3.0083,-2.9275,-2.856,-2.7868,-2.743,-2.6918,-2.6465,-2.627,-2.6213,-2.6131,-2.598,-2.5828,-2.5688,-2.5382,-2.4985,-2.4626,-2.4566,-2.403,-2.3164,-2.2255,-2.1987,-2.18,-2.1233,-2.1308,-2.1498,-2.1434,-2.1055,-2.0918,-2.1404,-2.0881,-2.0398,-2.0515,-1.9998,-1.9671,-1.9615,-1.8674,-1.794,-1.7706,-1.689,-1.6272,-1.6132,-1.5559,-1.5204,-1.5204,-1.4482,-1.4129,-1.4129,-1.3484,-1.3233,-1.3174,-1.2659,-1.2285,-1.2063,-1.0893,-1.0176,-0.9916,-0.9084,-0.8703,-2.1919,-2.361,-2.5502,-2.8052,-3.0664,-3.2978,-3.4213,-3.4442,-3.4399,-3.4388,-3.4672,-3.4922,-3.4832,-3.5046,-3.5255,-3.5122,0.0,0.0,0.0,0.0,0.0,0.0,0.0,0.0,0.0,0.0,0.0,0.0,0.0,-3.2217,-3.2059,-3.1705,-3.1329,-3.0855,-3.0992,-3.0935,-3.0692,-3.0667,-3.0809,-3.1191,-3.1281,-3.1841,-3.2787,-3.2336,-3.1138,-2.9366,-2.9027,-2.8989,-2.9175,-2.9144,-2.978,-3.0664,-3.0056,-3.0046,-3.0326,-2.9588,-2.8881,-2.8208,-2.763,-2.7108,-2.6589,-2.6396,-2.6339,-2.6339,-2.6314,-2.6188,-2.605,-2.5955,-2.5802,-2.5549,-2.5419,-2.4818,-2.4041,-2.3107,-2.2603,-2.2111,-2.1463,-2.1498,-2.1628,-2.1233,-2.1026,-2.0862,-2.0703,-2.0446,-2.0296,-2.0526,-2.0074,-1.9736,-1.9605,-1.8741,-1.8066,-1.7706,-1.695,-1.6342,-1.6132,-1.5559,-1.5204,-1.5204,-1.4482,-1.4198,-1.4294,-1.3793,-1.3418,-1.3272,-1.2898,-1.2529,-1.2235,-1.1134,-1.0379,-0.9916,-0.9084,-0.8703,-2.111,-2.3267,-2.5908,-2.8979,-3.1175,-3.266,-3.3016,-3.3582,-3.389,-3.3468,-3.4239,-3.4856,-3.4498,-3.506,-3.5426,0.0,0.0,0.0,0.0,0.0,0.0,0.0,0.0,0.0,0.0,0.0,0.0,0.0,0.0,-3.1483,-3.123,-3.1445,-3.1312,-3.0733,-3.1032,-3.1032,-3.0733,-3.0814,-3.0814,-3.0749,-3.1272,-3.1892,-3.2466,-3.2108,-3.1299,-3.0154,-2.9951,-2.9528,-2.901,-2.9107,-2.9506,-3.0023,-2.9729,-3.0017,-3.0437,-2.987,-2.9198,-2.8481,-2.7973,-2.7323,-2.6658,-2.6589,-2.6521,-2.6589,-2.6726,-2.6533,-2.6408,-2.6577,-2.6564,-2.6451,-2.6238,-2.5651,-2.49,-2.3941,-2.3096,-2.2347,-2.1651,-2.1675,-2.162,-2.0976,-2.1089,-2.0936,-1.9932,-2.0034,-2.0387,-2.0602,-2.0205,-1.9802,-1.9539,-1.8798,-1.8192,-1.7774,-1.7019,-1.6473,-1.6132,-1.5559,-1.5204,-1.5204,-1.4482,-1.4187,-1.4469,-1.3962,-1.3532,-1.3355,-1.3175,-1.2769,-1.2376,-1.1486,-1.071,-1.0127,-0.9251,-0.8856,-1.9421,-2.1995,-2.5121,-2.8737,-3.0096,-3.0959,-3.2433,-3.3182,-3.3553,-3.334,-3.3498,-3.3568,-3.3332,-3.4064,-3.4624,0.0,0.0,0.0,0.0,0.0,0.0,0.0,0.0,0.0,0.0,0.0,0.0,0.0,-3.1385,-3.1462,-3.1295,-3.1334,-3.1196,-3.0871,-3.0975,-3.0992,-3.0871,-3.0912,-3.0912,-3.0871,-3.1203,-3.134,-3.1342,-3.2127,-3.2225,-3.1734,-3.0474,-3.0141,-3.0266,-2.8901,-2.8992,-2.9856,-2.9256,-2.9488,-3.0133,-3.0093,-2.9512,-2.8675,-2.8157,-2.7443,-2.6714,-2.6658,-2.6658,-2.6726,-2.6875,-2.6956,-2.6875,-2.6595,-2.6688,-2.696,-2.7196,-2.6311,-2.5027,-2.4142,-2.3466,-2.2836,-2.2247,-2.2185,-2.2211,-2.2027,-2.1892,-2.1466,-2.0461,-2.0597,-2.0696,-2.0226,-1.9987,-1.9736,-1.9208,-1.8787,-1.824,-1.7774,-1.7019,-1.6542,-1.6272,-1.563,-1.5204,-1.5204,-1.4482,-1.4152,-1.4126,-1.3769,-1.3534,-1.3575,-1.3304,-1.3094,-1.287,-1.1739,-1.1099,-1.0987,-0.9937,-0.9544,-2.0175,-2.2339,-2.4594,-2.7455,-2.8878,-2.9927,-3.1038,-3.1752,-3.2103,-3.1758,-3.174,-3.186,-3.2166,-3.3539,-3.4305,0.0,0.0,0.0,0.0,0.0,0.0,0.0,0.0,0.0,0.0,0.0,0.0,0.0,-3.1112,-3.1134,-3.1117,-3.1218,-3.1196,-3.0912,-3.1078,-3.1095,-3.0912,-3.1032,-3.1032,-3.0912,-3.0815,-3.0937,-3.1214,-3.1605,-3.1566,-3.1228,-3.0844,-3.027,-2.9574,-2.8611,-2.8636,-2.9327,-2.888,-2.9229,-2.9958,-2.9718,-2.9324,-2.8881,-2.817,-2.7456,-2.6875,-2.6726,-2.6714,-2.6726,-2.6943,-2.6943,-2.6863,-2.7027,-2.7053,-2.7066,-2.7378,-2.6414,-2.5167,-2.4798,-2.3876,-2.3017,-2.2678,-2.2482,-2.2359,-2.2061,-2.1388,-2.0911,-2.0943,-2.0591,-2.0333,-2.0409,-1.9998,-1.9605,-1.9274,-1.8808,-1.8182,-1.7501,-1.695,-1.6403,-1.5921,-1.5355,-1.4999,-1.4848,-1.4346,-1.4149,-1.42,-1.3918,-1.3766,-1.3684,-1.3417,-1.2999,-1.2587,-1.1702,-1.097,-1.045,-0.9743,-0.9473,-2.0351,-2.1862,-2.329,-2.5507,-2.7356,-2.8867,-2.9596,-3.0511,-3.1035,0.0,-3.0529,-3.0844,-3.1185,-3.2853,-3.3804,0.0,0.0,0.0,0.0,0.0,0.0,0.0,0.0,0.0,0.0,0.0,0.0,0.0,-3.0972,-3.0952,-3.1095,-3.1274,-3.1274,-3.1095,-3.1312,-3.1312,-3.1055,-3.1112,-3.1072,-3.0912,-3.0584,-3.0613,-3.1024,-3.101,-3.0739,-3.035,-3.0863,-3.0354,-2.9171,-2.8427,-2.8347,-2.8662,-2.8473,-2.8766,-2.9347,-2.9163,-2.8962,-2.8688,-2.8051,-2.7469,-2.7011,-2.6863,-2.6794,-2.6863,-2.7011,-2.6998,-2.6918,-2.7297,-2.7152,-2.6928,-2.7155,-2.6168,-2.5139,-2.5089,-2.4149,-2.3138,-2.2909,-2.2604,-2.2297,-2.1987,-2.1162,-2.0758,-2.1323,-2.0723,-2.0243,-2.0549,-2.0074,-1.9539,-1.9218,-1.8808,-1.8269,-1.7382,-1.689,-1.6403,-1.5709,-1.5213,-1.4864,-1.4713,-1.4281,-1.4172,-1.4223,-1.4007,-1.3816,-1.3656,-1.3279,-1.2858,-1.2318,-1.1557,-1.0889,-1.0312,-0.9803,-0.9544,-1.8413,-1.9374,-2.0487,-2.2902,-2.5383,-2.741,-2.831,-2.9922,-3.1018,-3.037,-3.0847,-3.1198,-3.0749,-3.1683,-3.2679,0.0,0.0,0.0,0.0,0.0,0.0,0.0,0.0,0.0,0.0,0.0,0.0,0.0,-3.1133,-3.1015,-3.1257,-3.1466,-3.1579,-3.1542,-3.1709,-3.1671,-3.1466,-3.1173,-3.0975,-3.0912,-3.0584,-3.0349,-3.0271,-3.0587,-3.0312,-2.9614,-3.0334,-3.0449,-3.0022,-2.8532,-2.7944,-2.8031,-2.7827,-2.7781,-2.7871,-2.8418,-2.8324,-2.7974,-2.7853,-2.759,-2.7268,-2.7011,-2.7146,-2.7268,-2.7268,-2.7268,-2.7255,-2.7232,-2.6815,-2.6453,-2.6427,-2.5597,-2.4671,-2.4561,-2.4051,-2.345,-2.286,-2.2555,-2.2297,-2.1987,-2.1827,-2.1729,-2.1451,-2.106,-2.0752,-2.0464,-2.014,-1.9605,-1.8942,-1.8808,-1.8472,-1.7608,-1.7116,-1.663,-1.6132,-1.5559,-1.507,-1.4872,-1.4425,-1.4065,-1.4088,-1.3732,-1.3455,-1.3243,-1.2854,-1.2612,-1.2546,-1.1618,-1.1187,-1.1426,-1.0557,-1.0293,-1.8083,-1.9152,-2.0331,-2.1934,-2.3815,-2.5497,-2.6489,-2.7718,-2.8697,-2.901,-2.9453,-2.9911,-3.0291,-3.155,-3.266,0.0,0.0,0.0,0.0,0.0,0.0,0.0,0.0,0.0,0.0,0.0,0.0,0.0,0.0,0.0,-3.1145,-3.1079,-3.1265,-3.1785,-3.1839,-3.1765,-3.1579,-3.1312,-3.1196,-3.1157,-3.0878,-3.0609,-3.0333,-3.0364,-3.0085,-2.9608,-2.9529,-2.9407,-2.9218,-2.8281,-2.783,-2.7735,-2.7515,-2.7489,-2.759,-2.7558,-2.7693,-2.7816,-2.74,-2.7288,-2.7268,-2.7214,-2.7214,-2.7204,-2.6841,-2.6655,-2.6547,-2.6362,-2.5845,-2.5456,-2.5807,-2.5012,-2.399,-2.3588,-2.324,-2.2982,-2.2751,-2.2494,-2.2185,-2.1824,-2.1761,-2.1624,-2.1158,-2.0903,-2.0646,-2.0248,-1.9802,-1.9407,-1.9075,-1.8674,-1.8269,-1.7725,-1.7097,-1.6542,-1.6132,-1.5426,-1.4935,-1.4721,-1.4346,-1.4065,-1.3928,-1.3492,-1.32,-1.3046,-1.2599,-1.2263,-1.2012,-1.1433,-1.0926,-1.0564,-1.0251,-1.0205,-1.7197,-1.8492,-1.9969,-2.0835,-2.2367,-2.3948,-2.5153,-2.5986,-2.6811,-2.7714,-2.8355,-2.8982,-2.9894,-3.1162,-3.2088,0.0,0.0,0.0,0.0,0.0,0.0,0.0,0.0,0.0,0.0,0.0,0.0,0.0,0.0,0.0,-3.0417,-3.064,-3.1167,-3.2038,-3.202,-3.1875,-3.1671,-3.1504,-3.1372,-3.1295,-3.1095,-3.0773,-3.0342,-3.0172,-2.9886,-2.9547,-2.9059,-2.8842,-2.8873,-2.8189,-2.7845,-2.7619,-2.7321,-2.7173,-2.7095,-2.6898,-2.7028,-2.7244,-2.7027,-2.6921,-2.6856,-2.6998,-2.6933,-2.67,-2.6194,-2.6077,-2.6037,-2.5792,-2.5345,-2.495,-2.5189,-2.4478,-2.3491,-2.294,-2.2712,-2.2689,-2.2565,-2.2372,-2.2073,-2.1761,-2.1698,-2.1509,-2.0967,-2.0786,-2.0529,-2.0172,-1.9726,-1.9274,-1.9008,-1.8539,-1.7998,-1.751,-1.689,-1.6333,-1.5921,-1.5363,-1.4856,-1.4641,-1.4281,-1.3992,-1.3717,-1.3346,-1.3046,-1.282,-1.2452,-1.215,-1.1781,-1.1335,-1.0831,-1.0431,-1.022,-1.0075,0.0,0.0,0.0,-1.9489,-2.1014,-2.2848,-2.4309,-2.4894,-2.5496,-2.6731,-2.773,-2.8632,-2.9572,-3.0292,-3.0829,0.0,0.0,0.0,0.0,0.0,0.0,0.0,0.0,0.0,0.0,0.0,0.0,0.0,0.0,-2.9299,-2.9102,-3.0231,-3.1358,-3.2335,-3.2232,-3.2038,-3.1731,-3.162,-3.1452,-3.1266,-3.1083,-3.0707,-3.0243,-2.9919,-2.9601,-2.9273,-2.8842,-2.8811,-2.9029,-2.8301,-2.7925,-2.774,-2.7218,-2.6698,-2.6304,-2.6456,-2.6337,-2.6167,-2.6845,-2.6585,-2.6041,-2.6298,-2.609,-2.5749,-2.5408,-2.5534,-2.5735,-2.5597,-2.5244,-2.4875,-2.4667,-2.4013,-2.3179,-2.2609,-2.2533,-2.2541,-2.2293,-2.2187,-2.2037,-2.1761,-2.1698,-2.1498,-2.0967,-2.0786,-2.0529,-2.0172,-1.9791,-1.9407,-1.8875,-1.8347,-1.7735,-1.6978,-1.6551,-1.6132,-1.5576,-1.5346,-1.5062,-1.4641,-1.4274,-1.392,-1.3492,-1.3273,-1.2973,-1.2599,-1.2378,-1.2157,-1.2003,-1.1403,-1.104,-1.0994,-1.0341,-0.9986,-1.7019,0.0,0.0,0.0,0.0,0.0,0.0,0.0,-2.4595,-2.6246,-2.7013,-2.7636,-2.8486,-2.8796,-2.9033,-2.9277,0.0,0.0,0.0,0.0,0.0,0.0,0.0,0.0,0.0,0.0,0.0,0.0,-2.8932,-2.8516,-2.8665,-3.0196,-3.1148,-3.1323,-3.1409,-3.1113,-3.0369,-3.082,-3.0732,-3.0231,-3.0296,-2.9921,-2.9076,-2.9223,-2.9049,-2.8614,-2.8089,-2.8186,-2.8795,-2.8204,-2.7875,-2.7575,-2.6997,-2.663,-2.6433,-2.6131,-2.6147,-2.629,-2.6326,-2.6222,-2.6007,-2.5998,-2.5903,-2.566,-2.4944,-2.4857,-2.4916,-2.4499,-2.3927,-2.3376,-2.301,-2.2541,-2.2085,-2.1807,-2.1364,-2.1041,-2.0943,-2.0818,-2.0913,-2.1557,-2.1549,-2.1348,-2.085,-2.0733,-2.0464,-1.9868,-1.9539,-1.9208,-1.8875,-1.8472,-1.8066,-1.751,-1.7038,-1.6551,-1.6132,-1.5559,-1.507,-1.4864,-1.4353,-1.392,-1.3492,-1.3193,-1.2826,-1.2378,-1.2157,-1.2003,-1.1781,-1.1284,-1.0838,-1.0581,-0.9892,-0.9563,-1.7949,-1.8584,-1.9449,-1.9514,0.0,0.0,-2.242,-2.2847,-2.3481,0.0,-2.583,-2.6369,-2.6838,-2.7173,-2.7361,-2.7328,0.0,0.0,0.0,0.0,0.0,0.0,0.0,0.0,0.0,-3.0169,-2.9967,-2.9339,-2.8884,-2.8755,-2.8977,-2.9712,-3.0239,-3.052,-3.0637,-3.0427,-2.9892,-3.0576,-3.049,-2.9659,-3.0105,-2.9671,-2.8477,-2.8652,-2.8362,-2.7767,-2.734,-2.7394,-2.7705,-2.7267,-2.7312,-2.7575,-2.7167,-2.6788,-2.6457,-2.6056,-2.5883,-2.5935,-2.5922,-2.5608,-2.5214,-2.5286,-2.5127,-2.481,-2.4218,-2.3965,-2.3842,-2.3515,-2.3107,-2.268,-2.2333,-2.22,-2.2065,-2.1583,-2.1257,-2.0921,-2.0449,-2.0181,-2.0323,-2.1155,-2.1098,-2.0836,-2.0355,-2.0164,-1.9832,-1.9062,-1.871,-1.8448,-1.8238,-1.7792,-1.7379,-1.6828,-1.6591,-1.6263,-1.5799,-1.5401,-1.5035,-1.4657,-1.4292,-1.3765,-1.3107,-1.2816,-1.2452,-1.2077,-1.1781,-1.1445,-1.1002,-1.0959,-1.0603,-0.9953,-0.9591,-0.9463,-1.8939,-1.9258,-2.0,-2.061,0.0,0.0,-2.2511,-2.2513,-2.2542,0.0,-2.4469,-2.4974,-2.5077,-2.5575,-2.5838,-2.5429,0.0,0.0,0.0,0.0,0.0,0.0,0.0,0.0,-2.8697,-2.9081,-2.9197,-2.8916,-2.9098,-2.9328,-2.9592,-2.9062,-2.9036,-2.9782,-2.9831,-2.9828,-2.9741,-3.0464,-3.0298,-2.9299,-2.9971,-2.951,-2.8097,-2.8075,-2.7591,-2.6785,-2.6667,-2.657,-2.6486,-2.5986,-2.6432,-2.735,-2.7164,-2.685,-2.6357,-2.5943,-2.5591,-2.5411,-2.5405,-2.4819,-2.4132,-2.4408,-2.412,-2.3569,-2.339,-2.3114,-2.277,-2.2706,-2.2509,-2.2337,-2.2297,-2.2399,-2.237,-2.1631,-2.152,-2.1314,-2.0344,-1.9924,-1.9819,-2.034,-2.0346,-2.0075,-1.9654,-1.9331,-1.8805,-1.8029,-1.7657,-1.7362,-1.7171,-1.6751,-1.6145,-1.5534,-1.5592,-1.5494,-1.492,-1.4969,-1.4796,-1.4093,-1.3972,-1.3435,-1.2396,-1.2294,-1.2031,-1.1662,-1.1218,-1.0682,-1.0061,-1.0402,-1.0172,-0.9281,-0.9281,-0.9282,-2.0965,-2.0734,-2.0792,0.0,0.0,0.0,-2.1835,-2.2483,-2.3292,0.0,-2.3884,-2.432,-2.5003,-2.4297,-2.3846,-2.4519,0.0,0.0,0.0,0.0,0.0,0.0,0.0,0.0,-2.7016,-2.7709,-2.79,-2.7217,-2.7332,-2.7902,-2.8999,-2.8528,-2.8387,-2.8708,-2.8935,-2.8745,-2.8157,-2.8774,-2.8711,-2.7979,-2.8169,-2.7771,-2.6855,-2.7015,-2.6727,-2.6172,-2.6073,-2.6502,-2.7149,-2.6167,-2.5858,-2.5941,-2.5555,-2.5531,-2.5687,-2.5121,-2.5146,-2.5287,-2.4613,-2.4243,-2.4041,-2.3526,-2.3458,-2.3535,-2.3271,-2.2997,-2.2693,-2.2107,-2.17,-2.1587,-2.1848,-2.1304,-2.0724,-2.0985,-2.0323,-1.9527,-1.908,-1.8736,-1.8531,-1.8873,-1.9115,-1.9193,-1.8951,-1.8646,-1.8184,-1.7326,-1.7129,-1.6908,-1.6296,-1.6048,-1.5725,-1.5164,-1.4962,-1.473,-1.4396,-1.4195,-1.3934,-1.3324,-1.3119,-1.2655,-1.1859,-1.1773,-1.152,-1.1159,-1.0513,-0.9935,-0.9648,-0.9553,-0.9192,-0.8647,-0.838,-0.8363,-2.2281,-2.1741,0.0,-2.1721,0.0,0.0,0.0,-2.2362,-2.2718,-2.293,-2.2667,-2.2601,-2.3383,-2.2587,-2.1962,-2.2395,0.0,0.0,0.0,0.0,0.0,0.0,0.0,0.0,-2.5916,-2.6253,-2.6687,-2.7301,-2.7452,-2.7722,-2.8258,-2.7487,-2.7257,-2.7799,-2.7735,-2.7724,-2.7795,-2.8399,-2.8307,-2.7496,-2.7875,-2.7538,-2.6538,-2.6465,-2.6341,-2.6141,-2.5993,-2.6065,-2.629,-2.6001,-2.5605,-2.5164,-2.581,-2.5893,-2.5683,-2.541,-2.5133,-2.4819,-2.4136,-2.3957,-2.3884,-2.3167,-2.3191,-2.3475,-2.3198,-2.2677,-2.2069,-2.1107,-2.0853,-2.0927,-2.1301,-2.11,-2.076,-2.0889,-2.0241,-1.9436,-1.8851,-1.8204,-1.7844,-1.7913,-1.7791,-1.7787,-1.8175,-1.786,-1.7295,-1.6628,-1.6236,-1.5898,-1.5673,-1.5377,-1.4997,-1.4375,-1.4408,-1.4254,-1.3672,-1.3621,-1.3361,-1.2758,-1.2691,-1.2222,-1.1256,-1.1119,-1.087,-1.0292,-0.9741,-0.9406,-0.9222,-0.8726,-0.8427,-0.8376,-0.8225,-0.8204,-2.3446,0.0,0.0,0.0,0.0,-2.2748,0.0,0.0,0.0,-2.2273,-2.1609,0.0,0.0,0.0,0.0,0.0,0.0,0.0,0.0,0.0,0.0,0.0,0.0,0.0,0.0,-2.458,-2.531,-2.7445,-2.7441,-2.7328,-2.7267,-2.6318,-2.6148,-2.6908,-2.6708,-2.6981,-2.7888,-2.8338,-2.8185,-2.7404,-2.7885,-2.7588,-2.6606,-2.6191,-2.6052,-2.6094,-2.6012,-2.5701,-2.5323,-2.5925,-2.5712,-2.5166,-2.6337,-2.6345,-2.5734,-2.5547,-2.5105,-2.4477,-2.3769,-2.3572,-2.3645,-2.2994,-2.3051,-2.3305,-2.3012,-2.2329,-2.1433,-2.0433,-2.0238,-2.0345,-2.0791,-2.0986,-2.1021,-2.0961,-2.0417,-1.9703,-1.9011,-1.8137,-1.7468,-1.7256,-1.6786,-1.6665,-1.7365,-1.703,-1.6424,-1.5944,-1.5313,-1.4915,-1.5007,-1.4595,-1.4089,-1.3534,-1.3679,-1.3607,-1.2981,-1.3032,-1.2825,-1.2129,-1.2145,-1.1657,-1.0544,-1.0409,-1.0125,-0.9572,-0.915,-0.8959,-0.8936,-0.8071,-0.7787,-0.8112,-0.8092,-0.811,0.0,0.0,0.0,0.0,-2.457,0.0,0.0,0.0,-2.2944,-2.1917,0.0,0.0,0.0,0.0,0.0,0.0,0.0,0.0,0.0,0.0,0.0,0.0,0.0,0.0,0.0,0.0,-2.3458,-2.5945,-2.5146,-2.4858,-2.5616,-2.5475,-2.5593,-2.6011,-2.6281,-2.6895,-2.7888,-2.7722,-2.7583,-2.7496,-2.719,-2.6944,-2.6674,-2.6013,-2.5584,-2.5336,-2.5693,-2.5686,-2.554,-2.6412,-2.6773,-2.665,-2.5701,-2.5471,-2.5494,-2.4404,-2.4405,-2.4761,-2.3229,-2.2871,-2.3088,-2.2865,-2.2921,-2.305,-2.2548,-2.197,-2.1423,-2.0927,-2.0263,-1.9828,-2.032,-2.0067,-1.9975,-2.0867,-2.003,-1.9091,-1.9387,-1.8418,-1.7401,-1.7067,-1.6694,-1.6384,-1.6483,-1.609,-1.5673,-1.5215,-1.4784,-1.4437,-1.4012,-1.3535,-1.3108,-1.2923,-1.2647,-1.2469,-1.2429,-1.2142,-1.1667,-1.1037,-1.0835,-1.0424,-0.9658,-0.9544,-0.9455,-0.9353,-0.8857,-0.8669,-0.8725,-0.7932,-0.7591,-0.7727,-0.7489,-0.7302,0.0,0.0,0.0,0.0,0.0,0.0,-2.2342,0.0,-2.1521,0.0,0.0,0.0,0.0,0.0,0.0,0.0,-1.906,0.0,0.0,0.0,0.0,0.0,0.0,0.0,0.0,0.0,0.0,0.0,0.0,-2.3183,-2.3909,-2.3798,-2.4328,-2.5637,-2.572,-2.6405,-2.7777,-2.7587,-2.7496,-2.7496,-2.7137,-2.6942,-2.6859,-2.6279,-2.6077,-2.6089,-2.6078,-2.5853,-2.5512,-2.6184,-2.6183,-2.5711,-2.5716,-2.5675,-2.5566,-2.5256,-2.4801,-2.4311,-2.3514,-2.3154,-2.3054,-2.2897,-2.2705,-2.2548,-2.1995,-2.1443,-2.0945,-2.0391,-1.9947,-1.9676,-1.9951,-1.9701,-1.9441,-1.9773,-1.9079,-1.8349,-1.8339,-1.7621,-1.6922,-1.6786,-1.641,-1.6087,-1.6077,-1.5846,-1.5614,-1.5439,-1.4784,-1.424,-1.407,-1.3407,-1.2928,-1.2805,-1.249,-1.2243,-1.2058,-1.1615,-1.1163,-1.0551,-0.9977,-0.9484,-0.921,-0.9124,-0.9021,-0.8884,-0.8554,-0.8429,-0.8319,-0.7674,-0.733,-0.74,-0.7138,-0.7073,-2.7041,0.0,0.0,0.0,0.0,0.0,0.0,0.0,0.0,0.0,0.0,0.0,0.0,0.0,-1.8911,-1.8428,0.0,-1.8024,0.0,0.0,0.0,0.0,0.0,0.0,0.0,0.0,0.0,0.0,0.0,0.0,-2.2055,-2.2325,-2.3275,-2.5092,-2.5229,-2.5998,-2.7624,-2.7539,-2.7496,-2.7483,-2.7137,-2.6975,-2.6959,-2.6452,-2.629,-2.6406,-2.6206,-2.5717,-2.5149,-2.5832,-2.5576,-2.4882,-2.566,-2.5689,-2.5269,-2.5493,-2.481,-2.3757,-2.3326,-2.3063,-2.2851,-2.2485,-2.2255,-2.2065,-2.1606,-2.1104,-2.063,-2.0162,-1.9872,-1.9639,-1.9606,-1.9388,-1.9116,-1.9043,-1.8396,-1.7772,-1.7722,-1.7132,-1.6574,-1.6627,-1.6249,-1.5914,-1.5914,-1.573,-1.5614,-1.5614,-1.4784,-1.4189,-1.413,-1.3407,-1.2805,-1.2683,-1.2305,-1.1996,-1.1747,-1.131,-1.0744,-1.0104,-0.9239,-0.8792,-0.8759,-0.8673,-0.8596,-0.8456,-0.8255,-0.812,-0.8049,-0.7499,-0.7204,-0.7204,-0.6942,-0.6876,0.0,0.0,0.0,-2.5845,0.0,0.0,0.0,0.0,-2.1781,0.0,0.0,0.0,0.0,-2.0312,-1.9535,-1.8156,-1.8004,0.0,0.0,0.0,0.0,0.0,0.0,0.0,0.0,0.0,0.0,0.0,0.0,0.0,-2.005,-2.1311,-2.2753,-2.4288,-2.4837,-2.5872,-2.7478,-2.7496,-2.7483,-2.7407,-2.7122,-2.6959,-2.6893,-2.6277,-2.5881,-2.5632,-2.5652,-2.5102,-2.4399,-2.5394,-2.5409,-2.4852,-2.5186,-2.4959,-2.4427,-2.424,-2.3754,-2.3107,-2.2247,-2.202,-2.205,-2.1347,-2.1406,-2.166,-2.1549,-2.1104,-2.0718,-2.0693,-2.0238,-1.9759,-1.9485,-1.9129,-1.8898,-1.9309,-1.8317,-1.7476,-1.8134,-1.7402,-1.6627,-1.657,-1.6249,-1.5914,-1.5914,-1.5604,-1.541,-1.541,-1.4715,-1.413,-1.401,-1.3164,-1.256,-1.2367,-1.1872,-1.1622,-1.1622,-1.1122,-1.0421,-0.9582,-0.87,-0.8252,-0.8236,-0.8117,-0.8027,-0.8035,-0.7844,-0.7778,-0.7777,-0.7366,-0.7204,-0.7204,-0.6872,-0.6609,0.0,0.0,-2.9816,-2.7595,0.0,0.0,0.0,0.0,0.0,0.0,0.0,0.0,0.0,-2.036,-1.9633,-1.8551,-1.8144,-1.747,0.0,0.0,0.0,0.0,0.0,0.0,0.0,0.0,0.0,0.0,-1.7404,0.0,0.0,-1.9882,-2.1279,-2.3266,-2.4386,-2.5754,-2.7417,-2.7434,-2.7373,-2.7261,-2.6909,-2.6708,-2.6674,-2.617,-2.568,-2.5278,-2.5051,-2.4627,-2.4097,-2.4279,-2.4251,-2.416,-2.4268,-2.3885,-2.3355,-2.3885,-2.3608,-2.2777,-2.1826,-2.1663,-2.1725,-2.1135,-2.1018,-2.1049,-2.0995,-2.0552,-2.0087,-2.0087,-1.991,-1.9552,-1.9105,-1.8667,-1.8271,-1.8036,-1.7433,-1.6906,-1.7113,-1.6675,-1.6285,-1.6285,-1.6019,-1.573,-1.5594,-1.543,-1.5264,-1.5264,-1.4606,-1.401,-1.389,-1.2981,-1.2367,-1.2305,-1.1872,-1.1435,-1.1122,-1.0161,-0.9402,-0.8894,-0.8436,-0.8177,-0.8047,-0.8052,-0.7887,-0.7692,-0.763,-0.7433,-0.7176,-0.6973,-0.6872,-0.6872,-0.6609,-0.6548,-3.0479,-3.0754,0.0,-2.8447,-2.7261,0.0,-2.3699,0.0,0.0,0.0,0.0,0.0,0.0,0.0,-2.0065,-1.8882,-1.7849,-1.6571,0.0,-1.4764,0.0,0.0,0.0,0.0,0.0,0.0,-1.6327,-1.6195,-1.6145,0.0,0.0,0.0,-2.0337,-2.224,-2.3964,-2.5515,-2.6895,-2.7141,-2.723,-2.7149,-2.6725,-2.6503,-2.6521,-2.6046,-2.5567,-2.5091,-2.4679,-2.4245,-2.3839,-2.3566,-2.345,-2.3537,-2.3348,-2.2987,-2.2634,-2.3307,-2.294,-2.2009,-2.1186,-2.108,-2.1217,-2.0714,-2.0534,-2.0416,-2.0416,-2.01,-1.9759,-1.9759,-1.9467,-1.9062,-1.8606,-1.8119,-1.7583,-1.7181,-1.6802,-1.6524,-1.6524,-1.6239,-1.6009,-1.6009,-1.5778,-1.5546,-1.541,-1.5128,-1.497,-1.497,-1.4369,-1.383,-1.3571,-1.2789,-1.2182,-1.2058,-1.1685,-1.1185,-1.0555,-0.9588,-0.8882,-0.8641,-0.8312,-0.8052,-0.7922,-0.7857,-0.7722,-0.7521,-0.7456,-0.7265,-0.7007,-0.6876,-0.6741,-0.6675,-0.6482,-0.6482]},{"header":{"parameterUnit":"m.s-1","parameterCategory":1,"la1":30.6,"la2":29.2853,"lo1":-89.7004,"lo2":-87.6739,"dy":0.0162,"dx":0.0183,"nx":112,"ny":82,"refTime":"2024-05-28T12:00:00:Z","depth":0,"parameterNumber":3,"parameterNumberName":"V-component_of_WINDS"},"data":[0.0,0.0,0.0,0.0,0.0,0.0,0.0,0.0,0.0,0.0,0.0,0.0,0.0,0.0,0.0,0.0,0.0,0.0,0.0,0.0,0.0,0.0,0.0,0.0,0.0,0.0,0.0,0.0,0.0,0.0,0.0,0.0,0.0,0.0,0.0,0.0,0.0,0.0,0.0,0.0,0.0,0.0,0.0,0.0,0.0,0.0,0.0,0.0,0.0,0.0,0.0,0.0,0.0,0.0,0.0,0.0,0.0,0.0,0.0,0.0,0.0,0.0,0.0,0.0,0.0,0.0,0.0,0.0,0.0,0.0,0.0,0.0,0.0,0.0,0.0,0.0,0.0,0.0,0.0,0.0,0.0,0.0,0.0,0.0,0.0,0.0,0.0,0.0,0.0,0.0,-2.1856,-2.3238,-2.5176,-2.5959,-2.4909,-2.4952,-2.3569,-2.0194,0.0,0.0,0.0,0.0,0.0,0.0,0.0,0.0,0.0,0.0,0.0,0.0,0.0,0.0,0.0,0.0,0.0,0.0,0.0,0.0,0.0,0.0,0.0,0.0,0.0,0.0,0.0,0.0,0.0,0.0,0.0,0.0,0.0,0.0,0.0,0.0,0.0,0.0,0.0,0.0,0.0,0.0,0.0,0.0,0.0,0.0,0.0,0.0,0.0,0.0,0.0,0.0,0.0,0.0,0.0,0.0,0.0,0.0,0.0,0.0,0.0,0.0,0.0,0.0,0.0,0.0,0.0,0.0,0.0,0.0,0.0,0.0,0.0,0.0,0.0,0.0,0.0,0.0,0.0,0.0,0.0,0.0,0.0,0.0,0.0,0.0,0.0,0.0,0.0,0.0,0.0,0.0,0.0,0.0,0.0,0.0,0.0,0.0,0.0,0.0,0.0,0.0,0.0,0.0,-2.2544,-2.561,-2.6439,-2.6691,-2.6387,-2.5528,-2.3934,-2.1386,0.0,0.0,0.0,0.0,0.0,0.0,0.0,0.0,0.0,0.0,0.0,0.0,0.0,0.0,0.0,0.0,0.0,0.0,0.0,0.0,0.0,0.0,0.0,0.0,0.0,0.0,0.0,0.0,0.0,0.0,0.0,0.0,0.0,0.0,0.0,0.0,0.0,0.0,0.0,0.0,0.0,0.0,0.0,0.0,0.0,0.0,0.0,0.0,0.0,0.0,0.0,0.0,0.0,0.0,0.0,0.0,0.0,0.0,0.0,0.0,0.0,0.0,0.0,0.0,0.0,0.0,0.0,0.0,0.0,0.0,0.0,0.0,0.0,0.0,0.0,0.0,0.0,0.0,0.0,0.0,0.0,0.0,0.0,0.0,0.0,0.0,0.0,0.0,0.0,0.0,0.0,0.0,0.0,0.0,0.0,0.0,0.0,0.0,0.0,0.0,0.0,0.0,0.0,-2.3217,-2.4812,-2.7472,-2.8008,-2.7981,-2.7467,-2.6435,-2.5046,-2.3224,-2.0061,0.0,0.0,0.0,0.0,0.0,0.0,0.0,0.0,0.0,0.0,0.0,0.0,0.0,0.0,0.0,0.0,0.0,0.0,0.0,0.0,0.0,0.0,0.0,0.0,0.0,0.0,0.0,0.0,0.0,0.0,0.0,0.0,0.0,0.0,0.0,0.0,0.0,0.0,0.0,0.0,0.0,0.0,0.0,0.0,0.0,0.0,0.0,0.0,0.0,0.0,0.0,0.0,0.0,0.0,0.0,0.0,0.0,0.0,0.0,0.0,0.0,0.0,0.0,0.0,0.0,0.0,0.0,0.0,0.0,0.0,0.0,0.0,0.0,0.0,0.0,0.0,0.0,0.0,0.0,0.0,0.0,0.0,0.0,0.0,0.0,0.0,0.0,0.0,0.0,0.0,0.0,0.0,0.0,0.0,0.0,0.0,0.0,0.0,0.0,0.0,0.0,0.0,-2.5762,-2.6911,-2.8749,-2.9194,-2.9178,-2.8606,-2.7367,-2.595,-2.4327,-2.0766,0.0,0.0,0.0,0.0,0.0,0.0,0.0,0.0,0.0,0.0,0.0,0.0,0.0,0.0,0.0,0.0,0.0,0.0,0.0,0.0,0.0,0.0,0.0,0.0,0.0,0.0,0.0,0.0,0.0,0.0,0.0,0.0,0.0,0.0,0.0,0.0,0.0,0.0,0.0,0.0,0.0,0.0,0.0,0.0,0.0,0.0,0.0,0.0,0.0,0.0,0.0,0.0,0.0,0.0,0.0,0.0,0.0,0.0,0.0,0.0,0.0,0.0,0.0,0.0,0.0,0.0,0.0,0.0,0.0,0.0,0.0,0.0,0.0,0.0,0.0,0.0,0.0,0.0,0.0,0.0,0.0,0.0,0.0,0.0,0.0,0.0,0.0,0.0,0.0,0.0,0.0,0.0,0.0,0.0,0.0,0.0,0.0,0.0,0.0,0.0,0.0,0.0,-2.7017,-2.7949,-2.9232,-2.9532,-2.9815,-3.011,-2.825,-2.6034,-2.363,-2.1033,0.0,0.0,0.0,0.0,0.0,0.0,0.0,0.0,0.0,0.0,0.0,0.0,0.0,0.0,0.0,0.0,0.0,0.0,0.0,0.0,0.0,0.0,0.0,0.0,0.0,0.0,0.0,0.0,0.0,0.0,0.0,0.0,0.0,0.0,0.0,0.0,0.0,0.0,0.0,0.0,0.0,0.0,0.0,0.0,0.0,0.0,0.0,0.0,0.0,0.0,0.0,0.0,0.0,0.0,0.0,0.0,0.0,0.0,0.0,0.0,0.0,0.0,0.0,0.0,0.0,0.0,0.0,0.0,0.0,0.0,0.0,0.0,0.0,0.0,0.0,0.0,0.0,0.0,0.0,0.0,0.0,0.0,0.0,0.0,0.0,0.0,0.0,0.0,0.0,0.0,0.0,0.0,0.0,0.0,0.0,0.0,0.0,0.0,0.0,0.0,0.0,0.0,-2.7204,-2.8355,0.0,-3.0818,-3.1307,-3.1394,-2.9678,-2.7291,-2.4173,0.0,0.0,0.0,0.0,0.0,0.0,0.0,0.0,0.0,0.0,0.0,0.0,0.0,0.0,0.0,0.0,0.0,0.0,0.0,0.0,0.0,0.0,0.0,0.0,0.0,0.0,0.0,0.0,0.0,0.0,0.0,0.0,0.0,0.0,0.0,0.0,0.0,0.0,0.0,0.0,0.0,0.0,0.0,0.0,0.0,0.0,0.0,0.0,0.0,0.0,0.0,0.0,0.0,0.0,0.0,0.0,0.0,0.0,0.0,0.0,0.0,0.0,0.0,0.0,0.0,0.0,0.0,0.0,0.0,0.0,0.0,0.0,0.0,0.0,0.0,0.0,0.0,0.0,0.0,0.0,0.0,0.0,0.0,0.0,0.0,0.0,0.0,0.0,0.0,0.0,0.0,0.0,0.0,0.0,0.0,0.0,0.0,0.0,0.0,0.0,0.0,0.0,-2.5985,-2.7692,-2.9316,0.0,-3.1949,-3.2318,-3.2336,-3.0555,-2.8164,-2.5247,0.0,0.0,0.0,0.0,0.0,0.0,0.0,0.0,0.0,0.0,0.0,0.0,0.0,0.0,0.0,0.0,0.0,0.0,0.0,0.0,0.0,0.0,0.0,0.0,0.0,0.0,0.0,0.0,0.0,0.0,0.0,0.0,0.0,0.0,0.0,0.0,0.0,0.0,0.0,0.0,0.0,0.0,0.0,0.0,0.0,0.0,0.0,0.0,0.0,0.0,0.0,0.0,0.0,0.0,0.0,0.0,0.0,0.0,0.0,0.0,0.0,0.0,0.0,0.0,0.0,0.0,0.0,0.0,0.0,0.0,0.0,0.0,0.0,0.0,0.0,0.0,0.0,0.0,0.0,0.0,0.0,0.0,0.0,0.0,0.0,0.0,0.0,0.0,0.0,0.0,0.0,0.0,0.0,0.0,0.0,0.0,0.0,0.0,0.0,0.0,0.0,0.0,-2.6221,-2.8745,-3.1022,-3.2898,-3.2808,-3.2707,-3.2876,-3.0645,-2.8528,0.0,0.0,0.0,0.0,0.0,0.0,0.0,0.0,0.0,0.0,0.0,0.0,0.0,0.0,0.0,0.0,0.0,0.0,0.0,0.0,0.0,0.0,0.0,0.0,0.0,0.0,0.0,0.0,0.0,0.0,0.0,0.0,0.0,0.0,0.0,0.0,0.0,0.0,0.0,0.0,0.0,0.0,0.0,0.0,0.0,0.0,0.0,0.0,0.0,0.0,0.0,0.0,0.0,0.0,0.0,0.0,0.0,0.0,0.0,0.0,0.0,0.0,0.0,0.0,0.0,0.0,0.0,0.0,0.0,0.0,0.0,0.0,0.0,0.0,0.0,0.0,0.0,0.0,0.0,0.0,0.0,0.0,0.0,0.0,0.0,0.0,0.0,0.0,0.0,0.0,0.0,0.0,0.0,0.0,0.0,0.0,0.0,0.0,0.0,0.0,0.0,0.0,0.0,-2.7219,-2.9372,-3.1201,-3.2791,-3.3416,-3.3523,-3.3009,-3.2214,-3.0398,-2.7245,0.0,0.0,0.0,0.0,0.0,0.0,0.0,0.0,0.0,0.0,0.0,0.0,0.0,0.0,0.0,0.0,0.0,0.0,0.0,0.0,0.0,0.0,0.0,0.0,0.0,0.0,0.0,0.0,0.0,0.0,0.0,0.0,0.0,0.0,0.0,0.0,0.0,0.0,0.0,0.0,0.0,0.0,0.0,0.0,0.0,0.0,0.0,0.0,0.0,0.0,0.0,0.0,0.0,0.0,0.0,0.0,0.0,0.0,0.0,0.0,0.0,0.0,0.0,0.0,0.0,0.0,0.0,0.0,0.0,0.0,0.0,0.0,0.0,0.0,0.0,0.0,0.0,0.0,0.0,0.0,0.0,0.0,0.0,0.0,0.0,0.0,0.0,0.0,0.0,0.0,0.0,0.0,0.0,0.0,0.0,0.0,0.0,0.0,0.0,0.0,0.0,0.0,-2.7635,-3.0222,-3.2206,-3.3521,-3.4056,-3.4159,-3.3723,-3.2983,-3.1343,-2.8507,0.0,0.0,0.0,0.0,0.0,0.0,0.0,0.0,0.0,0.0,0.0,0.0,0.0,0.0,0.0,0.0,0.0,0.0,0.0,0.0,0.0,0.0,0.0,0.0,0.0,0.0,0.0,0.0,0.0,0.0,0.0,0.0,0.0,0.0,0.0,0.0,0.0,0.0,0.0,0.0,0.0,0.0,0.0,0.0,0.0,0.0,0.0,0.0,0.0,0.0,0.0,0.0,0.0,0.0,0.0,0.0,0.0,0.0,0.0,0.0,0.0,0.0,0.0,0.0,0.0,0.0,0.0,0.0,0.0,0.0,0.0,0.0,0.0,0.0,0.0,0.0,0.0,0.0,0.0,0.0,0.0,0.0,0.0,0.0,0.0,0.0,0.0,0.0,0.0,0.0,0.0,0.0,0.0,0.0,0.0,0.0,0.0,0.0,0.0,0.0,0.0,0.0,-2.7461,-3.0964,-3.3424,-3.4641,-3.4749,-3.4726,-3.4788,-3.3452,-3.1937,-3.0323,0.0,0.0,0.0,0.0,0.0,0.0,0.0,0.0,0.0,0.0,0.0,0.0,0.0,0.0,0.0,0.0,0.0,0.0,0.0,0.0,0.0,0.0,0.0,0.0,0.0,0.0,0.0,0.0,0.0,0.0,0.0,0.0,0.0,0.0,0.0,0.0,0.0,0.0,0.0,0.0,0.0,0.0,0.0,0.0,0.0,0.0,0.0,0.0,0.0,0.0,0.0,0.0,0.0,0.0,0.0,0.0,0.0,0.0,0.0,0.0,-1.8143,0.0,0.0,0.0,0.0,0.0,0.0,0.0,0.0,0.0,0.0,0.0,0.0,0.0,0.0,0.0,0.0,0.0,0.0,0.0,0.0,0.0,0.0,0.0,0.0,0.0,0.0,0.0,0.0,0.0,0.0,0.0,0.0,0.0,0.0,0.0,0.0,0.0,0.0,0.0,0.0,0.0,-2.6639,-2.9643,-3.2152,-3.4339,-3.5507,-3.6019,-3.5672,-3.5648,-3.4615,-3.2109,-3.057,0.0,0.0,0.0,0.0,0.0,0.0,0.0,0.0,0.0,0.0,0.0,0.0,0.0,0.0,0.0,0.0,0.0,0.0,0.0,0.0,0.0,0.0,0.0,0.0,0.0,0.0,0.0,0.0,0.0,0.0,0.0,0.0,0.0,0.0,0.0,0.0,0.0,0.0,0.0,0.0,0.0,0.0,0.0,0.0,0.0,0.0,0.0,0.0,0.0,0.0,0.0,0.0,0.0,0.0,0.0,0.0,0.0,0.0,0.0,0.0,-2.0233,0.0,0.0,0.0,0.0,0.0,0.0,0.0,0.0,0.0,0.0,0.0,0.0,0.0,0.0,0.0,0.0,0.0,0.0,0.0,0.0,0.0,0.0,0.0,0.0,0.0,0.0,0.0,0.0,0.0,0.0,0.0,0.0,0.0,0.0,0.0,0.0,0.0,0.0,0.0,0.0,-2.7032,-3.0589,-3.3653,-3.6019,-3.6612,-3.6876,-3.7015,-3.6626,-3.5415,-3.325,-3.1875,0.0,0.0,0.0,0.0,0.0,0.0,0.0,0.0,0.0,0.0,0.0,0.0,0.0,0.0,0.0,0.0,0.0,0.0,0.0,0.0,0.0,0.0,0.0,0.0,0.0,0.0,0.0,0.0,0.0,0.0,0.0,0.0,0.0,0.0,0.0,0.0,0.0,0.0,0.0,0.0,0.0,0.0,0.0,0.0,0.0,0.0,0.0,0.0,0.0,0.0,0.0,0.0,0.0,-2.2185,-2.3014,-2.4432,-2.4476,-2.5424,-2.6903,-2.4529,-2.3999,-2.4601,-2.297,0.0,0.0,0.0,0.0,0.0,0.0,0.0,0.0,0.0,0.0,0.0,0.0,0.0,0.0,0.0,0.0,0.0,0.0,0.0,0.0,0.0,0.0,0.0,0.0,-3.0685,-3.1066,0.0,0.0,0.0,0.0,0.0,0.0,0.0,0.0,0.0,0.0,0.0,0.0,-2.7915,-3.2502,-3.6017,-3.763,-3.7489,-3.7571,-3.8186,-3.7174,-3.5897,-3.4476,-3.2907,-3.1011,0.0,0.0,0.0,0.0,0.0,0.0,0.0,0.0,0.0,0.0,0.0,0.0,0.0,0.0,0.0,0.0,0.0,0.0,0.0,0.0,0.0,0.0,0.0,0.0,0.0,0.0,0.0,0.0,0.0,0.0,0.0,0.0,-0.7697,-0.8186,0.0,0.0,0.0,0.0,0.0,0.0,0.0,0.0,0.0,0.0,0.0,0.0,0.0,-2.0532,-2.1093,-2.2716,-2.3688,-2.4104,-2.4792,-2.5905,-2.7263,-2.7507,-2.8449,-2.9874,-2.9673,0.0,-2.6346,-2.5803,0.0,0.0,0.0,0.0,0.0,0.0,0.0,0.0,0.0,0.0,0.0,0.0,0.0,0.0,0.0,0.0,0.0,0.0,0.0,0.0,0.0,0.0,-3.2944,-3.3414,-3.4231,-3.4866,0.0,-3.1462,-2.8223,-2.7191,-2.4994,0.0,0.0,0.0,0.0,0.0,0.0,0.0,-2.8737,-3.4213,-3.7338,-3.6227,-3.733,-3.8227,-3.8423,-3.8242,-3.7709,-3.6823,-3.4811,-3.2988,-3.1436,-2.9961,0.0,0.0,0.0,0.0,0.0,0.0,0.0,0.0,0.0,0.0,0.0,0.0,0.0,0.0,0.0,0.0,0.0,0.0,0.0,0.0,0.0,0.0,0.0,0.0,0.0,0.0,0.0,0.0,0.0,-0.6818,-0.7852,-0.946,-0.9314,-0.9698,0.0,0.0,0.0,0.0,0.0,0.0,0.0,0.0,0.0,-2.0323,-2.1412,-2.2229,-2.2844,-2.3884,-2.4873,-2.5815,-2.6129,-2.7143,-2.8786,-2.8891,-2.9666,-3.0951,-3.067,-3.0188,-2.9465,-2.8318,-2.7349,-2.6438,0.0,0.0,0.0,0.0,-2.5829,-2.7044,-2.8578,-2.9316,0.0,-2.916,0.0,0.0,0.0,0.0,0.0,0.0,0.0,0.0,0.0,0.0,0.0,-3.528,-3.5921,-3.6366,-3.7029,-3.52,-3.282,0.0,-2.9448,-2.7417,-2.3777,0.0,0.0,0.0,0.0,-2.6558,-2.9457,-3.3549,-3.6474,-3.7166,-3.7945,-3.8483,-3.8601,-3.8615,-3.7971,-3.6389,-3.5346,-3.4105,-3.2585,-3.063,-2.8745,0.0,0.0,0.0,0.0,0.0,0.0,0.0,0.0,0.0,0.0,0.0,0.0,0.0,0.0,0.0,0.0,0.0,0.0,0.0,0.0,0.0,0.0,0.0,0.0,0.0,0.0,0.0,0.0,-0.7351,-0.825,-1.0115,-1.0014,-1.0454,0.0,0.0,0.0,0.0,0.0,0.0,-1.7878,-1.9219,-2.0483,-2.1731,-2.2793,-2.3705,-2.4451,-2.4967,-2.592,-2.719,-2.7258,-2.8096,-2.968,-2.9719,-3.0407,-3.1466,-3.1082,-3.1356,-3.1914,-3.0303,-2.9356,-2.8758,-2.7313,-2.6775,-2.6802,-2.7366,-2.8431,-2.9743,-3.1099,-3.2127,-3.2758,-3.2234,0.0,-3.0716,-2.8923,0.0,0.0,0.0,0.0,-2.9632,-3.1792,-3.3057,-3.4294,-3.6396,-3.6896,-3.7127,-3.7891,-3.76,-3.6435,0.0,-3.3022,-3.1274,-2.6832,0.0,0.0,0.0,0.0,-2.8478,-3.0478,-3.3176,-3.5684,-3.7662,-3.8266,-3.8559,-3.8682,-3.875,-3.7908,-3.5772,-3.5559,-3.4858,-3.338,-3.139,-2.9944,-2.9155,0.0,0.0,0.0,0.0,0.0,0.0,0.0,0.0,0.0,0.0,0.0,0.0,0.0,0.0,0.0,0.0,0.0,0.0,0.0,0.0,0.0,0.0,0.0,0.0,0.0,0.0,0.0,0.0,0.0,-0.9584,-1.0567,0.0,0.0,0.0,0.0,-1.5184,-1.7027,-1.8634,-1.9699,-2.1117,-2.2124,-2.2697,-2.3808,-2.4787,-2.5588,-2.659,-2.7467,-2.8239,-2.8423,-2.9083,-3.007,-3.035,-3.0949,-3.1796,-3.2155,-3.2454,-3.2632,-3.153,-3.0604,-2.9974,-3.0564,-3.0363,-2.9929,-3.109,-3.17,-3.2034,-3.2833,-3.3246,-3.3471,-3.3554,-3.2844,-3.1829,-3.1198,-3.0475,0.0,0.0,-3.1067,-3.263,-3.4217,-3.5403,-3.6363,-3.7163,-3.745,-3.7613,-3.7846,-3.7863,-3.741,0.0,-3.4491,-3.2609,-3.0015,0.0,-2.8345,-2.8162,-2.8945,-3.018,-3.189,-3.4298,-3.5964,-3.6366,-3.7674,-3.8554,-3.8688,-3.8755,-3.7908,-3.5828,-3.5799,-3.5377,-3.4293,-3.3134,-3.2027,-3.0904,-2.707,0.0,0.0,0.0,0.0,0.0,0.0,0.0,0.0,0.0,0.0,0.0,0.0,0.0,0.0,0.0,0.0,0.0,0.0,0.0,0.0,0.0,0.0,0.0,0.0,0.0,0.0,0.0,0.0,-1.047,-1.1373,0.0,-1.3707,-1.4586,-1.5542,-1.6665,-1.7936,-1.9147,-2.0251,-2.1198,-2.2276,-2.3323,-2.4191,-2.5055,-2.5867,-2.6689,-2.7575,-2.8576,-2.8738,-2.9361,-3.0426,-3.0529,-3.0997,-3.1754,-3.191,-3.2176,-3.2501,-3.2213,-3.1919,-3.1658,-3.1278,-3.121,-3.1401,-3.1921,-3.2613,-3.3372,-3.3701,-3.4192,-3.4627,-3.4355,-3.3796,-3.3093,-3.2412,-3.1828,-3.1393,-3.1393,-3.1898,-3.286,-3.4393,-3.5137,-3.5794,-3.7033,-3.7372,-3.7447,-3.754,-3.7577,-3.7452,-3.7075,-3.5822,-3.4057,-3.151,-3.0954,-3.0459,-2.9296,-3.0414,-3.1583,-3.2247,-3.4499,-3.6113,-3.6342,-3.7757,-3.8725,-3.8759,-3.8393,-3.8025,-3.7765,-3.591,-3.434,-3.3297,-3.2064,-3.1012,-3.0189,-2.7815,-2.5723,0.0,0.0,0.0,0.0,0.0,0.0,0.0,0.0,0.0,0.0,0.0,0.0,0.0,0.0,0.0,0.0,0.0,0.0,0.0,0.0,0.0,0.0,0.0,0.0,0.0,0.0,-1.0383,-1.108,-1.2049,-1.3105,-1.4478,-1.5501,-1.6402,-1.7248,-1.8286,-1.9361,-2.0354,-2.1244,-2.2306,-2.357,-2.4293,-2.5187,-2.6149,-2.6835,-2.7687,-2.8753,-2.8984,-2.9547,-3.0312,-3.0447,-3.0807,-3.1394,-3.1552,-3.1823,-3.2201,-3.2453,-3.2554,-3.257,-3.2092,-3.2253,-3.2691,-3.2639,-3.328,-3.4217,-3.4372,-3.4798,-3.5207,-3.4986,-3.4585,-3.4052,-3.3659,-3.3128,-3.2691,-3.2782,-3.3103,-3.3721,-3.4812,-3.5398,-3.5985,-3.7011,-3.7279,-3.7334,-3.7354,-3.7429,-3.7466,-3.7466,-3.6432,-3.4896,-3.2872,-3.1996,-3.1193,-3.0094,-3.101,-3.1983,-3.2347,-3.4347,-3.5878,-3.6333,-3.7595,-3.8508,-3.8818,-3.8182,-3.7859,-3.8125,-3.595,-3.4091,-3.2846,-3.1464,-3.0411,-2.9664,-2.796,-2.6211,-2.4499,0.0,0.0,0.0,0.0,0.0,0.0,0.0,0.0,0.0,0.0,0.0,0.0,0.0,0.0,0.0,0.0,0.0,0.0,0.0,0.0,0.0,0.0,0.0,-0.9408,-1.0146,-1.088,-1.1362,-1.2454,-1.3387,-1.3891,-1.5455,-1.6519,-1.6759,-1.8114,-1.934,-2.027,-2.1303,-2.2321,-2.3392,-2.4275,-2.5254,-2.6401,-2.7059,-2.7863,-2.8844,-2.9352,-2.9651,-2.9808,-3.0129,-3.0522,-3.085,-3.1292,-3.1682,-3.1879,-3.2262,-3.2578,-3.2765,-3.3266,-3.3634,-3.3818,-3.3355,-3.3779,-3.4546,-3.4804,-3.4994,-3.5135,-3.5487,-3.5142,-3.4618,-3.4907,-3.4401,-3.3825,-3.4098,-3.4679,-3.5295,-3.5601,-3.6338,-3.7038,-3.7055,-3.7243,-3.7354,-3.7297,-3.7447,-3.7521,-3.7334,-3.6275,-3.5111,-3.4171,-3.2179,-3.0693,-3.0704,-3.0846,0.0,-3.2265,-3.3835,-3.5265,-3.627,-3.7098,-3.7956,-3.8818,-3.8153,-3.735,-3.6572,-3.5825,-3.4661,-3.3045,-3.1576,-3.0429,-2.9626,-2.7533,-2.614,-2.5544,0.0,0.0,0.0,0.0,0.0,0.0,0.0,0.0,0.0,0.0,0.0,0.0,0.0,0.0,0.0,0.0,0.0,0.0,0.0,0.0,0.0,-1.0812,-1.067,-0.9936,-1.0599,-1.1322,-1.168,-1.272,-1.3753,-1.4755,-1.6129,-1.7282,-1.7997,-1.8816,-1.9766,-2.0859,-2.1353,-2.216,-2.3582,-2.4493,-2.5557,-2.6796,-2.7525,-2.8204,-2.9035,-2.9289,-2.9665,-3.0036,-2.9946,-3.0557,-3.1676,-3.1796,-3.2393,-3.3363,-3.3628,-3.3583,-3.337,-3.2905,-3.3081,-3.3591,-3.3553,-3.4104,-3.4804,-3.4899,-3.4947,-3.4994,-3.5182,-3.4834,-3.432,-3.4462,-3.4007,-3.3573,-3.39,-3.3722,-3.3606,-3.4565,-3.5014,-3.5387,-3.5987,-3.6644,-3.7126,-3.7164,-3.7185,-3.7223,-3.7147,-3.6445,-3.558,-3.473,-3.3336,-3.2138,-3.1444,-3.1178,0.0,-3.2211,-3.336,-3.4476,-3.5504,-3.6833,-3.8062,-3.8952,-3.7774,-3.6366,-3.4962,-3.3573,-3.2832,-3.284,-3.153,-3.0509,-2.9905,-2.8319,-2.7133,0.0,0.0,0.0,0.0,0.0,0.0,0.0,0.0,0.0,0.0,0.0,0.0,0.0,0.0,0.0,0.0,0.0,0.0,0.0,0.0,0.0,0.0,-1.125,-1.1265,-1.0776,-1.1064,-1.1526,-1.2131,-1.2924,-1.3878,-1.5194,-1.6335,-1.7342,-1.8067,-1.8941,-1.9849,-2.0658,-2.1409,-2.2419,-2.3849,-2.4855,-2.5791,-2.6722,-2.7537,-2.8314,-2.8999,-2.9113,-2.9352,-2.9665,-2.9651,-3.0145,0.0,-3.1316,-3.2198,-3.3607,-3.4298,-3.4697,0.0,0.0,0.0,0.0,0.0,-3.4154,-3.4374,-3.4688,-3.4899,-3.5044,-3.5438,-3.5211,-3.4813,-3.5172,-3.4796,-3.4353,-3.4761,-3.4494,-3.4277,-3.5227,-3.5465,-3.5626,-3.6159,-3.6675,-3.7048,-3.7048,-3.7108,-3.7164,-3.7069,0.0,0.0,-3.4974,-3.3634,-3.2367,-3.1217,-3.0933,-3.0948,-3.122,-3.2411,-3.3605,-3.461,-3.6214,-3.759,-3.8469,-3.7681,0.0,0.0,0.0,-3.3073,-3.2496,-3.1445,0.0,0.0,0.0,0.0,0.0,0.0,0.0,0.0,-2.9568,-2.9941,0.0,0.0,0.0,0.0,0.0,0.0,0.0,0.0,0.0,0.0,0.0,0.0,0.0,0.0,0.0,0.0,-1.1574,-1.176,-1.1749,-1.1547,-1.1732,-1.2719,-1.3042,-1.3844,-1.5331,-1.6396,-1.717,-1.7568,-1.8885,-1.9849,-2.0232,0.0,0.0,0.0,0.0,-2.5881,-2.6405,-2.743,-2.829,-2.8903,-2.8889,-2.8926,-2.9077,-2.9372,-2.9624,-2.9984,-3.0582,-3.1703,-3.3216,-3.4632,-3.5708,-3.6162,-3.3743,-3.3185,-3.3797,-3.425,-3.4136,-3.3865,-3.4525,0.0,0.0,-3.5985,-3.5924,-3.5626,-3.6397,-3.611,-3.5583,-3.6053,-3.6011,-3.5985,-3.6487,-3.6649,-3.6689,-3.6847,-3.6978,-3.7069,-3.7009,-3.7143,-3.722,-3.7009,-3.7143,-3.6761,-3.5111,-3.3582,-3.207,-3.0631,-3.0373,-3.0252,-2.9953,-3.1283,-3.2629,-3.3647,0.0,0.0,-3.7572,-3.7849,-3.7671,-3.6994,-3.6031,-3.4492,-3.2241,-3.1694,-3.1161,-3.0605,-3.1533,-3.213,-3.2326,-3.3082,-3.3535,-3.3633,-3.1963,-3.1776,0.0,0.0,0.0,0.0,0.0,0.0,0.0,0.0,0.0,0.0,0.0,0.0,0.0,0.0,0.0,-1.184,-1.1757,-1.1703,-1.1986,-1.1866,-1.2177,-1.3535,-1.346,-1.4029,-1.5716,-1.6783,-1.7698,-1.8441,-1.9487,-2.0517,-2.1449,-2.2028,-2.2789,-2.3948,-2.5158,-2.6114,-2.6625,-2.8022,-2.8786,-2.8918,0.0,0.0,-2.8937,-2.9563,-3.0333,-3.107,-3.2504,-3.3372,-3.4027,-3.5399,-3.5952,-3.5727,-3.425,-3.3723,-3.3899,-3.4101,-3.4366,-3.47,-3.4944,-3.5058,-3.5268,-3.6223,-3.6081,-3.5672,-3.6506,-3.6173,0.0,-3.5834,-3.5436,-3.5045,-3.5469,-3.567,-3.5806,-3.6001,-3.6552,-3.7009,-3.7009,-3.7027,-3.7066,-3.7027,-3.7027,-3.6728,-3.5759,-3.4428,-3.2998,-3.1344,-3.0189,-2.9783,-3.052,-3.1021,-3.1754,-3.275,-3.4618,-3.6046,-3.6766,-3.8085,-3.8555,-3.7813,-3.6398,-3.4825,-3.3128,-3.3652,-3.4055,-3.4203,-3.4567,-3.4824,-3.4962,-3.4552,-3.4724,-3.5382,-3.3692,-3.3402,0.0,0.0,0.0,0.0,0.0,0.0,0.0,0.0,0.0,0.0,0.0,-1.0689,-1.0809,0.0,-1.1403,-1.1488,-1.1332,-1.1321,-1.1793,-1.1684,-1.2058,-1.3607,-1.3775,-1.4322,-1.5795,-1.7064,-1.7911,-1.8063,-1.9657,-2.0883,-2.1559,-2.2242,-2.3054,-2.4016,-2.504,-2.5943,-2.6521,-2.7756,-2.8552,-2.8973,-2.9334,-2.9564,-2.9592,-3.0103,-3.0512,-3.0928,-3.2471,-3.2771,-3.2585,-3.5228,-3.6076,-3.5608,-3.4643,-3.436,-3.443,-3.4737,-3.5103,-3.5495,-3.6006,-3.6235,-3.6398,-3.6975,-3.6683,-3.6253,-3.6671,-3.6202,-3.5594,-3.5773,-3.5589,-3.5429,-3.5773,-3.5855,-3.5896,-3.6173,-3.6411,-3.6591,-3.6632,-3.6748,-3.6846,-3.6846,-3.6948,-3.6724,-3.5952,-3.4937,-3.3688,-3.2105,-3.0985,-3.0249,-3.0109,-3.0982,-3.1701,-3.2015,-3.4076,-3.5576,-3.597,-3.6924,-3.7273,-3.6775,-3.6143,-3.5413,-3.4525,-3.5044,-3.5685,-3.6381,-3.62,-3.6388,-3.6957,-3.6207,-3.6307,-3.7118,-3.5422,-3.4905,0.0,0.0,0.0,0.0,0.0,0.0,0.0,-1.0645,-1.0351,-1.0596,-1.0514,-1.047,-1.0919,-1.1041,-1.108,-1.1073,-1.071,-1.0609,-1.1265,-1.1061,-1.1459,-1.3067,-1.3835,-1.4761,-1.6071,-1.7509,-1.8276,-1.8181,-1.9965,-2.1217,-2.1659,-2.2563,-2.3438,-2.426,-2.5063,-2.5764,-2.6445,-2.7551,-2.8464,-2.9171,-2.9451,-2.9914,-3.0389,-3.0596,-3.0691,-3.0741,-3.2227,-3.2416,-3.1922,-3.5122,-3.6215,-3.5765,-3.5143,-3.5052,-3.5155,-3.5386,-3.5777,-3.6241,-3.702,-3.7285,-3.7349,-3.7597,-3.7287,-3.6789,-3.6772,-3.6287,-3.5763,-3.5718,-3.58,-3.5975,-3.6233,-3.6174,-3.6114,-3.6444,-3.6301,-3.6097,-3.6241,-3.6444,-3.6643,-3.6702,-3.6829,-3.6738,-3.6145,-3.5285,-3.4214,-3.2827,-3.1843,-3.0932,-2.9929,-3.111,-3.1954,-3.1671,-3.3647,-3.509,-3.5414,-3.5806,-3.5894,-3.5516,-3.5901,-3.5912,-3.5464,-3.5794,-3.6422,-3.7376,-3.7095,-3.7507,-3.8644,-3.7909,-3.8027,-3.8843,-3.7013,-3.6363,-1.6034,-1.5088,-1.348,-1.2209,-1.2108,-1.2317,0.0,-1.2605,-1.2538,-1.2372,-1.1978,-1.1728,-1.1908,-1.17,-1.1508,-1.1386,-1.0269,-0.9564,-1.0,-0.9817,-1.0244,-1.1974,-1.3556,-1.5412,-1.751,-1.8626,-1.954,-2.0426,-2.1216,-2.1939,-2.2499,-2.2979,-2.3657,-2.463,-2.5498,-2.6154,-2.6599,-2.8356,-2.9443,-2.9733,-2.9941,-3.0197,-3.0543,-3.0996,-3.1309,-3.1664,-3.3515,-3.4733,-3.5533,-3.598,-3.6259,-3.6369,-3.59,-3.5869,-3.588,-3.5268,-3.5662,-3.6631,-3.7119,-3.6985,-3.663,-3.7429,-3.7287,-3.6772,-3.6679,-3.6565,-3.6316,-3.5568,-3.5412,-3.5515,-3.565,-3.5783,-3.5854,-3.595,-3.595,-3.595,-3.6097,-3.6241,-3.6402,-3.6643,-3.6766,-3.6834,-3.6865,-3.5542,-3.4261,-3.3493,-3.2142,-3.119,-3.119,-3.1564,-3.1923,-3.2099,-3.3351,-3.4547,-3.5588,-3.6181,-3.6226,-3.5535,-3.621,-3.5994,-3.4609,-3.5424,-3.6144,-3.6608,-3.7387,-3.8574,-4.0236,-3.9557,-3.9704,-4.0548,-3.8174,-3.7901,-1.8015,-1.7123,-1.5731,-1.4635,-1.456,-1.4577,-1.39,-1.3615,-1.3375,-1.2811,-1.2507,-1.2321,-1.23,-1.1979,-1.1539,-1.1118,-0.9914,-0.8865,-0.8251,-0.8515,-0.9509,-1.1354,-1.2971,-1.4859,-1.7199,-1.8532,-1.9587,-2.0262,-2.1247,-2.1834,-2.1998,-2.3036,-2.3882,-2.4484,-2.5662,-2.6414,-2.6772,-2.8213,-2.9098,-2.9396,-3.0259,-3.0816,-3.1083,-3.1676,-3.2444,-3.344,-3.4579,-3.5443,-3.6054,-3.6087,-3.6165,-3.6275,-3.5843,-3.6009,-3.6406,-3.6294,-3.6594,-3.7261,-3.816,-3.8334,-3.8204,-3.8287,-3.8134,-3.7748,-3.736,-3.7194,-3.6947,-3.605,-3.5911,-3.5933,-3.5588,-3.5487,-3.5532,-3.5677,-3.5588,-3.547,-3.5622,-3.5898,-3.6216,-3.6293,-3.6609,-3.6908,-3.6908,-3.5959,-3.4923,-3.4174,-3.2756,-3.167,-3.1379,-3.2018,-3.2643,-3.3039,-3.3588,-3.4134,-3.4607,-3.4947,-3.4999,-3.4705,-3.5715,-3.6155,-3.5875,-3.6316,-3.7194,-3.8447,-3.848,-3.9136,-4.0434,-3.9779,-3.9929,-4.0798,-3.881,-3.8556,-1.9174,-1.8555,-1.7684,-1.6384,-1.6296,-1.6187,-1.508,-1.4624,-1.432,-1.36,-1.3247,-1.2945,-1.2711,-1.2251,-1.1667,-1.1009,-0.9761,-0.8489,-0.7322,-0.7768,-0.885,-1.0721,-1.2128,-1.4012,-1.6884,-1.8521,-1.9737,-2.0496,-2.1573,-2.2143,-2.2168,-2.3308,-2.4205,-2.4878,-2.5858,-2.6671,-2.7115,-2.8246,-2.895,-2.9185,-3.0449,-3.1198,-3.1468,-3.2259,-3.3311,-3.4461,-3.5045,-3.5504,-3.5864,-3.5976,-3.6039,-3.615,-3.5876,-3.6122,-3.6646,-3.6848,-3.7086,-3.7481,-3.8668,-3.9007,-3.8835,-3.8706,-3.8522,-3.8204,-3.7718,-3.7501,-3.7302,-3.6621,-3.6402,-3.6245,-3.5693,-3.5379,-3.5245,-3.535,-3.5211,-3.5088,-3.5198,-3.5577,-3.5898,-3.5975,-3.6385,-3.6753,-3.6771,-3.616,-3.5353,-3.4588,-3.3312,-3.2231,-3.1616,-3.2414,-3.3178,-3.3577,-3.378,-3.3868,-3.3895,-3.4009,-3.4086,-3.4099,-3.5231,-3.613,-3.6664,-3.6977,-3.7985,-3.9848,-3.9221,-3.9355,-4.0336,-3.9884,-4.0036,-4.0681,-3.9312,-3.9005,-1.918,-1.8806,-1.8629,-1.6722,-1.6453,-1.6477,-1.5853,-1.5864,-1.5804,-1.5232,-1.4585,-1.3917,-1.355,-1.266,-1.1861,-1.1339,-0.9771,-0.8462,-0.7937,-0.7687,-0.8124,-0.9829,-1.1055,-1.331,0.0,-1.8897,-2.0391,-2.2176,-2.2741,-2.3315,-2.3919,-2.4248,-2.4878,-2.6041,-2.6507,-2.7082,-2.7693,-2.8823,-2.944,-2.9535,-3.0488,-3.1211,-3.1596,-3.2789,-3.3604,-3.4153,-3.4654,-3.5139,-3.5518,-3.5657,-3.5864,-3.615,-3.6383,-3.6476,-3.6477,-3.644,-3.6562,-3.6966,-3.8212,-3.8011,-3.7284,-3.8118,-3.8003,-3.7518,-3.7369,-3.7303,-3.727,-3.7136,-3.6555,-3.5992,-3.5976,-3.5429,-3.4899,-3.4899,-3.4899,-3.4947,-3.5088,-3.5245,-3.5458,-3.5888,-3.6088,-3.6284,-3.6731,-3.604,-3.5174,-3.4509,-3.3633,-3.2835,-3.2249,-3.2719,-3.3196,-3.3393,-3.3661,-3.3815,-3.3895,-3.3947,-3.4023,-3.4099,-3.5039,-3.577,-3.6112,-3.6813,-3.8022,-3.9769,-3.914,-3.9261,-4.0214,-4.0336,-4.0415,-4.0492,-3.9727,-3.9373,-1.946,-1.9378,-1.914,-1.7415,-1.7252,-1.7388,-1.6913,-1.6859,-1.6513,-1.5586,-1.4738,-1.3884,-1.3196,-1.2626,-1.192,-1.1189,-1.0166,-0.928,-0.8498,-0.8484,-0.856,-0.8598,-1.1327,-1.4289,0.0,0.0,0.0,-2.2169,-2.2316,-2.2683,-2.3551,-2.4581,-2.5403,-2.588,-2.7104,-2.7917,-2.8246,-2.9356,-3.0075,-3.0504,-3.136,-3.193,-3.2155,-3.2917,-3.3548,-3.3962,-3.4587,-3.5052,-3.535,-3.5752,-3.5958,-3.607,-3.6352,-3.6492,-3.6523,-3.6582,-3.6225,-3.5799,-3.6869,-3.7637,-3.8183,-3.7784,-3.7819,-3.7885,-3.7436,-3.7236,-3.7053,-3.6506,-3.6191,-3.5893,-3.5396,-3.5081,-3.4899,-3.4899,-3.4899,-3.4899,-3.4947,-3.5165,-3.5441,-3.5711,-3.6002,-3.6301,-3.6568,-3.6336,-3.5688,-3.4402,-3.3179,-3.244,-3.2388,-3.2722,-3.3073,-3.3364,-3.3605,-3.378,-3.3895,-3.3998,-3.4074,-3.4099,-3.4548,-3.5109,-3.5824,-3.6723,-3.774,-3.892,-3.934,-3.9753,-4.0215,-4.0288,-4.0392,-4.05,-4.0284,-3.9914,-1.939,-1.939,-1.9283,-1.8075,-1.77,-1.7641,-1.7442,-1.7268,-1.6822,-1.5388,-1.461,-1.3907,-1.2937,-1.2357,-1.1862,-1.1281,-1.0442,-0.9657,-0.9238,-0.9185,-0.9238,-0.9292,-1.188,-1.4744,-1.7254,0.0,0.0,-2.2289,-2.2291,-2.2585,-2.3868,-2.4908,-2.5672,-2.6172,-2.7428,-2.8247,-2.8578,-2.9599,-3.0496,-3.1241,-3.1823,-3.215,-3.2359,-3.2988,-3.3479,-3.377,-3.4505,-3.5001,-3.5213,-3.5668,-3.5925,-3.6037,-3.6241,-3.6367,-3.643,-3.6121,-3.5696,-3.5368,-3.6323,-3.7101,-3.7544,-3.7301,-3.7285,-3.7384,-3.7253,-3.6953,-3.6721,-3.6771,-3.6406,-3.5959,-3.5744,-3.5248,-3.4851,-3.4851,-3.4787,-3.4739,-3.4739,-3.4961,-3.5195,-3.5396,-3.5739,-3.6131,-3.6301,-3.5994,-3.5302,-3.4271,-3.2916,-3.2108,-3.2353,-3.269,-3.3011,-3.3286,-3.3559,-3.3753,-3.3895,-3.4023,-3.4099,-3.4099,-3.4293,-3.4778,-3.5656,-3.669,-3.7634,-3.8486,-3.941,-3.9994,-4.0157,-4.0215,-4.0289,-4.0447,-4.0508,-4.0072,-1.8854,-1.8857,-1.9015,-1.8619,-1.7912,-1.727,-1.7315,-1.718,-1.6521,-1.4729,-1.4324,-1.3932,-1.2679,-1.1906,-1.1546,-1.1723,-1.0526,-0.9717,-1.0,-0.9702,-1.0078,-1.1724,-1.2729,-1.4588,-1.7803,-1.8001,0.0,-2.2603,0.0,-2.3167,-2.4716,-2.5311,-2.599,-2.6937,-2.7522,-2.8143,-2.8791,-2.9677,-3.0622,-3.1609,-3.1716,-3.1936,-3.2241,-3.2931,-3.3409,-3.3618,-3.438,-3.4927,-3.5169,-3.535,-3.5593,-3.5928,-3.5991,-3.618,-3.6338,-3.5161,-3.505,-3.5543,-3.6517,-3.6249,-3.5589,-3.6636,-3.6539,-3.6125,-3.6787,-3.6506,-3.6241,-3.7649,-3.7036,-3.6108,-3.6804,-3.5844,-3.4691,-3.4691,-3.4594,-3.4497,-3.4497,-3.4594,-3.4804,-3.5041,-3.5396,-3.5739,-3.6054,-3.5059,-3.4211,-3.4133,-3.2896,-3.2018,-3.2179,-3.259,-3.2961,-3.316,-3.3484,-3.3753,-3.3868,-3.4023,-3.4099,-3.4099,-3.4293,-3.4759,-3.56,-3.666,-3.7621,-3.8411,-3.9372,-3.9916,-4.0096,-4.0096,-4.0157,-4.031,-4.0363,-3.9974,-1.8135,-1.8533,-1.893,-1.776,-1.7071,-1.6645,-1.6297,-1.5606,-1.4872,-1.4077,-1.3521,-1.2851,-1.1581,-1.1448,-1.1423,-1.1243,-1.0822,-1.0638,-1.0952,-1.0848,-1.131,-1.273,-1.4206,-1.6235,-1.9076,-1.9364,0.0,0.0,-2.3404,-2.3826,-2.4344,-2.6044,-2.7257,-2.7698,-2.8138,-2.8566,-2.904,-3.0216,-3.1075,-3.1609,-3.1817,-3.2009,-3.2359,-3.2846,-3.3283,-3.3632,-3.3877,-3.4068,-3.4312,-3.4328,-3.4728,-3.5292,-3.5554,-3.5722,-3.5873,-3.5577,-3.4969,-3.4338,-3.4826,-3.5304,-3.5642,-3.5282,-3.5399,-3.5629,-3.5366,-3.5119,-3.5005,-3.5579,-3.5414,-3.5117,-3.5413,-3.5084,-3.4691,-3.4691,-3.4594,-3.4497,-3.4497,-3.4594,-3.4804,-3.5041,-3.5532,-3.5958,-3.6216,-3.5508,-3.4794,-3.4263,-3.3422,-3.2699,-3.2249,-3.2422,-3.2722,-3.3006,-3.3415,-3.3671,-3.3815,-3.4049,-3.4173,-3.4173,-3.4316,-3.4498,-3.4722,-3.5713,-3.6669,-3.7495,-3.8458,-3.9264,-3.9954,-4.0057,-4.0138,-4.0234,-4.0289,-4.0264,-1.7218,-1.7728,-1.8185,-1.7371,-1.6772,-1.626,-1.5638,-1.4703,-1.3761,-1.3105,-1.2347,-1.1661,-1.1012,-1.0836,-1.0773,-1.07,-1.0358,-1.0428,-1.1145,-1.1153,-1.1821,-1.3541,-1.5001,-1.6647,-1.9011,-1.9693,-2.0729,0.0,-2.3493,-2.4275,-2.4876,-2.6636,-2.7672,-2.7881,-2.8402,-2.8961,-2.9664,-3.0469,-3.1097,-3.1609,-3.173,-3.2009,-3.2286,-3.2704,-3.3002,-3.3185,0.0,-3.3623,-3.3695,-3.3572,-3.391,-3.4607,-3.4789,-3.5106,-3.5375,-3.4898,-3.4083,-3.3264,-3.3584,-3.4076,-3.452,-3.436,-3.4676,-3.5037,-3.4726,-3.4546,-3.4611,-3.5086,-3.4938,-3.4725,-3.5103,-3.4889,-3.4546,-3.4546,-3.4399,-3.4349,-3.4349,-3.4448,-3.4643,-3.5118,-3.5577,-3.5932,-3.6259,-3.568,-3.5082,-3.4691,-3.3804,-3.3047,-3.272,-3.2581,-3.2672,-3.3024,-3.3357,-3.3615,-3.3807,-3.4023,-3.4173,-3.4197,-3.4293,-3.4363,-3.4386,-3.5368,-3.6302,-3.7171,-3.8115,-3.9034,-3.9889,-4.0036,-4.0138,-4.0196,-4.0271,-4.0362,-1.6189,-1.6743,-1.7037,-1.7057,-1.6566,-1.5959,-1.5063,-1.4015,-1.2945,-1.1943,-1.1162,-1.0653,-1.0658,-1.0341,-1.0109,-1.0414,-0.9852,-0.9846,-1.1084,-1.1245,-1.1989,-1.4155,-1.5294,-1.6519,-1.8272,-1.9723,-2.0984,-2.2162,-2.3687,-2.4947,-2.5812,-2.7089,-2.7854,-2.7983,-2.8633,-2.9419,-3.0444,-3.0581,-3.0957,-3.1522,-3.1716,-3.1936,-3.2182,-3.2503,-3.2662,-3.2693,0.0,0.0,-3.3173,-3.2904,-3.3216,-3.3848,-3.3908,-3.4342,-3.4787,-3.3763,-3.3008,-3.2481,-3.2741,-3.2843,-3.3005,-3.3761,-3.4201,-3.4399,-3.4382,-3.4448,-3.4579,-3.525,-3.4972,-3.4579,-3.5283,-3.4872,-3.43,-3.43,-3.4201,-3.4101,-3.4101,-3.4201,-3.4529,-3.5287,-3.5532,-3.5739,-3.6216,-3.5766,-3.5301,-3.5238,-3.4177,-3.3373,-3.3331,-3.2879,-3.2705,-3.3024,-3.3316,-3.3549,-3.3753,-3.3947,-3.4099,-3.4173,-3.4245,-3.4316,-3.4404,-3.5252,-3.613,-3.7002,-3.7964,-3.8861,-3.9738,-3.9979,-4.0137,-4.0196,-4.0252,-4.0344,-1.4944,-1.5613,-1.6303,-1.5597,-1.5765,-1.5619,-1.3675,-1.2928,-1.2344,-1.0867,-1.0786,-1.0764,-1.0226,-1.0341,-1.0712,-1.1062,-1.0911,-1.107,-1.221,-1.2183,-1.2741,-1.4658,-1.5555,-1.6795,-1.8572,-2.0071,0.0,0.0,-2.5451,-2.6579,-2.6466,-2.7936,-2.8821,-2.8828,-2.9521,-3.0152,-3.0622,-3.0823,-3.1035,-3.1347,-3.1508,-3.1817,-3.2182,-3.2241,-3.2327,-3.2484,-3.2791,0.0,-3.2094,-3.2736,-3.3061,-3.3224,-3.3426,-3.3686,-3.3888,-3.3532,-3.3069,-3.253,-3.2484,-3.2648,-3.2951,-3.3309,-3.3607,-3.3848,-3.3901,-3.4018,-3.4217,-3.4513,-3.4415,-3.4235,-3.4579,-3.4497,-3.43,-3.43,-3.4201,-3.4101,-3.4101,-3.43,-3.4626,-3.5287,-3.5532,-3.5739,-3.6216,-3.6197,-3.5928,-3.5371,-3.5082,-3.4554,-3.3598,-3.2897,-3.259,-3.2838,-3.3086,-3.3327,-3.3549,-3.3726,-3.3921,-3.4099,-3.4173,-3.4269,-3.4386,-3.4604,-3.518,-3.6117,-3.7052,-3.7948,-3.882,-3.9673,-4.0117,-4.0117,-4.0234,-4.0346,-1.3671,-1.3851,-1.3938,-1.3904,-1.3711,-1.3392,-1.2618,-1.2075,-1.1508,-1.0661,-1.0536,-1.0528,-1.02,-1.0211,-1.0281,-1.026,-1.0289,-1.0692,-1.1647,-1.2017,-1.2901,-1.4616,-1.556,-1.6729,-1.8403,-2.0099,-2.2141,-2.4539,-2.6455,-2.7604,-2.7665,-2.8831,-2.9479,-2.9493,-2.9998,-3.0381,-3.0698,-3.0911,-3.1136,-3.1447,-3.1434,-3.173,-3.2182,-3.2096,-3.2099,-3.2249,-3.1825,0.0,-3.2594,-3.2228,-3.2279,-3.2566,-3.2737,-3.2834,-3.2906,-3.2834,-3.2578,-3.2318,-3.2302,-3.2413,-3.2554,-3.2742,-3.3118,-3.3503,-3.3678,-3.3832,-3.3949,-3.4168,-3.4152,-3.4136,-3.4234,-3.425,-3.4201,-3.43,-3.425,-3.4201,-3.43,-3.4399,-3.4691,-3.5379,-3.5577,-3.5739,-3.6216,-3.6301,-3.618,-3.5883,-3.5526,-3.5087,-3.453,-3.3929,-3.3319,-3.2745,-3.2898,-3.3086,-3.3238,-3.3426,-3.3625,-3.3815,-3.3972,-3.4124,-3.4293,-3.4386,-3.4911,-3.587,-3.6823,-3.7759,-3.8637,-3.9637,-4.0117,-4.0157,-4.0253,-4.0328,-1.248,-1.2035,-1.164,-1.2254,-1.1925,-1.1511,-1.184,-1.1544,-1.0994,-1.0664,-1.0428,-1.0301,-1.0364,-1.0225,-1.0019,-0.9916,-1.0072,-1.0542,-1.1425,-1.2139,-1.3196,-1.4847,-1.5739,-1.6981,-1.8905,-2.0449,0.0,-2.5391,-2.7236,0.0,-2.901,-2.9702,-3.004,-2.9882,-3.0228,-3.0533,-3.0698,-3.0836,-3.1061,-3.1386,-3.1286,-3.1508,-3.2036,-3.1863,-3.187,-3.1986,-3.1223,0.0,0.0,-3.1872,-3.176,-3.2079,-3.2191,-3.2191,-3.2206,-3.215,-3.215,-3.2094,-3.2191,-3.2247,-3.2302,-3.2398,-3.2796,-3.324,-3.3387,-3.3591,-3.3793,-3.3949,-3.4034,-3.4101,-3.4101,-3.4101,-3.4151,-3.425,-3.43,-3.4349,-3.4448,-3.4497,-3.4691,-3.535,-3.5532,-3.5694,-3.6174,-3.6259,-3.6301,-3.6301,-3.5866,-3.5457,-3.5342,-3.4923,-3.4172,-3.2877,-3.2887,-3.298,-3.293,-3.3129,-3.3309,-3.353,-3.3707,-3.3921,-3.4124,-3.4269,-3.4772,-3.5606,-3.6729,-3.757,-3.8148,-3.9276,-3.9851,-3.9909,-3.9986,-4.0119,-1.0973,-1.0651,-1.0565,-1.0932,-1.1361,-1.1624,-1.1481,-1.1475,-1.1255,-1.0617,-1.0428,-1.0364,-1.0681,-1.0638,-1.0775,-1.1641,-1.1915,-1.2403,-1.3229,-1.3543,-1.4321,-1.6284,-1.6446,-1.7796,-2.1086,-2.1696,-2.2853,-2.5317,-2.7768,0.0,-3.023,-3.0261,-3.0186,-3.01,-3.0292,-3.0533,-3.0698,-3.0698,-3.0773,-3.0773,-3.0911,-3.1224,-3.1683,-3.1817,-3.1738,-3.1418,-3.1886,0.0,0.0,-3.1767,-3.2122,-3.1796,-3.2079,-3.2191,-3.2191,-3.2038,-3.2135,-3.2342,-3.2247,-3.2358,-3.2523,-3.2453,-3.2648,-3.2866,-3.2609,-3.3261,-3.4005,-3.3694,-3.3866,-3.4101,-3.4101,-3.4101,-3.4151,-3.425,-3.43,-3.4349,-3.4448,-3.4497,-3.4643,-3.5041,-3.5304,-3.556,-3.5975,-3.6174,-3.6301,-3.6301,-3.6232,-3.598,-3.5353,-3.5255,-3.471,-3.3293,-3.3317,-3.3247,-3.2773,-3.2866,-3.3055,-3.3321,-3.353,-3.3726,-3.3921,-3.4124,-3.4377,-3.4695,-3.6406,-3.6982,-3.6345,-3.8078,-3.8917,-3.8935,-3.9071,-3.9526,-1.0035,-0.9315,-0.8804,-0.9514,-0.9908,-1.0229,-1.0917,-1.0612,-1.0317,-1.0635,-1.0555,-1.0491,-1.0681,-1.0681,-1.1008,-1.1817,-1.202,-1.2487,-1.3732,-1.4133,-1.482,-1.6145,-1.6928,-1.8288,-2.0604,0.0,-2.3876,-2.6774,-2.8604,0.0,-2.9934,-3.0307,-3.0423,-3.0305,-3.0368,-3.0533,-3.0698,-3.0849,-3.0911,-3.0911,-3.0849,-3.1075,-3.1596,-3.1263,-3.1186,-3.1294,-3.0553,0.0,0.0,-3.0935,-3.1368,-3.1422,-3.191,-3.2038,-3.194,-3.1996,-3.1996,-3.2038,-3.2135,-3.2302,-3.2453,-3.2398,-3.2523,-3.2757,-3.2788,-3.3171,-3.365,-3.3745,-3.3933,-3.4101,-3.4101,-3.4151,-3.4201,-3.4201,-3.425,-3.4349,-3.4448,-3.4448,-3.4546,-3.5088,-3.5304,-3.5515,-3.5932,-3.6191,-3.6301,-3.6301,-3.6301,-3.618,-3.5928,-3.5538,-3.4864,-3.3848,-3.3554,-3.3142,-3.2474,-3.2557,-3.2755,-3.2993,-3.3238,-3.3473,-3.3698,-3.3947,-3.4197,-3.4409,-3.5724,-3.629,-3.6037,-3.7332,-3.8001,-3.8099,-3.8633,-3.9108,-0.9759,-0.8823,-0.8186,-0.9025,-0.9365,-0.9712,-1.0707,-1.0447,-1.024,-1.0828,-1.085,-1.0751,-1.0877,-1.087,-1.1121,-1.2102,-1.2357,-1.2863,-1.4182,-1.484,-1.5446,-1.6146,-1.7194,-1.8576,-2.0398,-2.2549,-2.4805,-2.7304,0.0,0.0,-2.8889,-2.9776,-3.0247,-3.0305,-3.0444,-3.0533,-3.0698,-3.0592,-3.0667,-3.0823,-3.0261,-3.042,-3.1156,-3.0467,-3.0405,-3.0692,-2.955,0.0,0.0,-3.0237,-3.0644,-3.0984,-3.1567,-3.1754,-3.1769,-3.1769,-3.1868,-3.1996,-3.2038,-3.2318,-3.2523,-3.2453,-3.2523,-3.2703,-3.2989,-3.315,-3.3361,-3.3694,-3.3949,-3.4151,-3.4151,-3.425,-3.43,-3.425,-3.425,-3.4349,-3.4448,-3.4399,-3.4448,-3.4947,-3.5165,-3.5379,-3.5756,-3.6045,-3.6147,-3.6008,-3.5973,-3.5904,-3.568,-3.5197,-3.4576,-3.3818,-3.3494,-3.3016,-3.2249,-3.2318,-3.2507,-3.274,-3.2993,-3.3268,-3.352,-3.3807,-3.4049,-3.4245,-3.5268,-3.5728,-3.5555,-3.6529,-3.7068,-3.7205,-3.8042,-3.8785,-1.0184,-0.9575,-0.9296,-0.9594,-1.0094,-1.0593,-1.1188,-1.1416,-1.1502,-1.1253,-1.1114,-1.1185,-1.1498,-1.1185,-1.1319,-1.2943,-1.3435,-1.3934,-1.4806,-1.5838,-1.6439,-1.6405,-1.7209,-1.8816,-2.1352,-2.3979,-2.5668,-2.6206,0.0,0.0,-2.7219,-2.8633,-2.9586,-3.0075,-3.047,-3.0698,-3.0698,-2.9905,-2.9817,-3.0432,-2.9068,-2.9044,-3.0072,-2.9536,-2.9319,0.0,0.0,0.0,0.0,-2.9822,-3.0297,-3.0389,-3.1029,-3.1452,-3.1682,-3.1394,-3.1781,-3.2342,-3.194,-3.2293,-3.2843,-3.2523,-3.2648,-3.2897,-3.2897,-3.3112,-3.3361,-3.345,-3.3899,-3.43,-3.43,-3.43,-3.4349,-3.4448,-3.4399,-3.4349,-3.4448,-3.4399,-3.4349,-3.4497,-3.4739,-3.5024,-3.5333,-3.5739,-3.5805,-3.5277,-3.5197,-3.4938,-3.4197,-3.4111,-3.3783,-3.3007,-3.3052,-3.2852,-3.2142,-3.2144,-3.2318,-3.2606,-3.2834,-3.3104,-3.3393,-3.3643,-3.3895,-3.4099,-3.5203,-3.5379,-3.4514,-3.5579,-3.6157,-3.6254,-3.7167,-3.8575,-0.995,-0.9087,-0.8505,-0.9223,-0.9635,-0.9984,-1.0695,-1.0883,-1.0987,-1.1413,-1.1163,-1.0933,-1.1052,-1.0933,-1.1383,-1.3127,-1.3427,-1.4069,-1.5852,-1.6732,-1.7451,-1.8118,-2.0127,-2.1982,0.0,0.0,-2.5904,-2.5775,0.0,0.0,-2.7441,-2.8155,-2.887,-2.9586,-3.0075,-3.0113,-2.9717,-2.9674,-2.9494,-2.9055,-2.8771,-2.8779,-2.915,-2.8653,-2.8582,0.0,0.0,0.0,0.0,-2.9498,-2.9931,-3.0054,-3.097,-3.1409,-3.1582,-3.1697,-3.1868,-3.1996,-3.2135,-3.2358,-3.2578,-3.2523,-3.2703,-3.2951,-3.3096,-3.3309,-3.3503,-3.3797,-3.4101,-3.43,-3.4201,-3.4151,-3.4151,-3.4201,-3.4201,-3.4151,-3.4201,-3.4201,-3.425,-3.4448,-3.4707,-3.4875,-3.4706,-3.4888,-3.4908,-3.4404,-3.4301,-3.4255,-3.4111,-3.3611,-3.3179,-3.2938,-3.2493,-3.2152,-3.1965,-3.2108,-3.2284,-3.2523,-3.2787,-3.3011,-3.3196,-3.3502,-3.3726,-3.3895,-3.4383,-3.4572,-3.4431,-3.4824,-3.5692,-3.7031,-3.7507,-3.8682,-1.0206,-0.9472,-0.9008,-0.9788,-0.9962,-1.0236,-1.0949,-1.1063,-1.0975,-1.1003,-1.0899,-1.0744,-1.0618,-1.0737,-1.1277,-1.2825,-1.3407,-1.4229,-1.5808,-1.7006,-1.8316,-1.9664,-2.1222,0.0,0.0,-2.49,-2.5496,0.0,0.0,0.0,-2.7163,-2.7643,-2.8107,-2.8487,-2.9474,-2.9707,-2.93,-2.9305,-2.9023,-2.852,-2.8112,-2.8023,-2.8344,-2.785,-2.7786,0.0,0.0,0.0,0.0,-2.9247,-2.9685,-2.987,-3.0732,-3.1219,-3.1509,-3.1739,-3.1868,-3.1996,-3.2191,-3.2358,-3.2523,-3.2563,-3.2757,-3.3005,-3.3309,-3.3555,-3.3797,-3.4151,-3.425,-3.43,-3.4201,-3.4151,-3.4101,-3.4101,-3.4101,-3.4036,-3.3777,-3.3922,-3.3989,-3.3616,-3.3955,-3.419,-3.3746,-3.3997,-3.4015,-3.3471,-3.3448,-3.3385,-3.3149,-3.2685,-3.2376,-3.2397,-3.1984,-3.1765,-3.1894,-3.2055,-3.2284,-3.2523,-3.2787,-3.2979,-3.3165,-3.3462,-3.3643,-3.3753,-3.3947,-3.4148,-3.4293,-3.4498,-3.5409,-3.6956,-3.7506,-3.8527,0.0,-1.0553,-1.0435,-1.0844,-1.0902,-1.1019,-1.1617,-1.1777,0.0,-1.0269,-1.0392,-1.0654,-1.0364,-1.0555,-1.115,-1.2163,-1.3346,-1.4372,-1.4951,-1.6897,-1.8909,-2.0977,-2.0918,0.0,-2.3913,-2.4087,0.0,0.0,0.0,0.0,-2.6484,-2.6956,-2.7179,-2.7023,-2.8635,-2.9416,-2.9272,-2.8651,-2.8371,-2.849,-2.7164,-2.6924,-2.7659,-2.7023,-2.6918,0.0,0.0,0.0,0.0,-2.8944,-2.9498,-2.987,-3.043,-3.1014,-3.1495,-3.1539,-3.1826,-3.215,-3.2038,-3.2262,-3.2578,-3.2602,-3.285,-3.315,-3.345,-3.3797,-3.4151,-3.4399,-3.4399,-3.43,-3.43,-3.4201,-3.4101,-3.4101,-3.4052,-3.3874,-3.3291,-3.3582,-3.3582,-3.2319,-3.2736,-3.3151,-3.2685,-3.2964,-3.3085,-3.2502,-3.2581,-3.2419,-3.1602,-3.1517,-3.1538,-3.1579,-3.1617,-3.1691,-3.1894,-3.2037,-3.2249,-3.2573,-3.2787,-3.3028,-3.3262,-3.3535,-3.3688,-3.3698,-3.3895,-3.4049,-3.4099,-3.4567,-3.5266,-3.6215,-3.7222,-3.8204,-1.1017,0.0,-0.9873,-1.0223,-1.0512,-1.079,0.0,-1.124,-1.1041,-1.0553,-1.035,-1.0226,-1.0072,-1.0491,-1.1023,-1.1704,-1.2681,-1.3822,-1.5264,-1.7513,-1.9573,-2.1134,-2.1609,-2.2128,-2.3031,-2.4041,0.0,0.0,0.0,-2.5965,-2.5888,-2.6043,-2.6186,-2.6482,-2.7059,-2.732,-2.7394,-2.7733,-2.7525,-2.6797,-2.6866,-2.6734,-2.6584,-2.6653,-2.6863,0.0,0.0,0.0,-2.8145,-2.8844,-2.9435,-3.0068,-3.1105,-3.1485,-3.1584,-3.218,-3.2191,-3.194,-3.2094,-3.2191,-3.2358,-3.2718,-3.3043,-3.3309,-3.3555,-3.3797,-3.3949,-3.4,-3.4151,-3.43,-3.4151,-3.405,-3.3949,-3.4101,-3.3712,-3.342,-3.3777,-3.3145,-3.261,-3.2836,-3.2688,-3.2338,-3.1913,-3.2057,-3.2018,-3.1562,-3.1584,-3.1611,-3.1496,-3.1538,-3.1579,-3.1579,-3.1709,-3.1819,-3.2037,-3.2073,-3.2214,-3.2489,-3.2755,-3.2979,-3.3135,-3.3973,-3.4215,-3.3716,-3.3998,-3.4173,-3.4173,-3.4604,-3.5264,-3.6157,-3.7204,-3.8204,-1.1368,-1.0857,-1.0416,-1.0581,-1.0583,-1.0484,-1.0491,-1.0436,-1.0249,-0.957,-0.9646,-0.9733,-0.9512,-1.0077,-1.0826,-1.1704,-1.2747,-1.4328,-1.6754,-1.8455,-2.0019,-2.1402,-2.205,-2.2584,0.0,0.0,0.0,0.0,0.0,-2.5207,-2.5207,-2.5272,-2.5489,-2.5791,-2.5855,-2.608,-2.6565,-2.7268,-2.7132,-2.6314,-2.6658,-2.6739,-2.6396,-2.6521,-2.6739,0.0,0.0,0.0,-2.8341,-2.8716,-2.9324,-3.0097,-3.0776,-3.1128,-3.1322,-3.1855,-3.2013,-3.194,-3.215,-3.2302,-3.2428,-3.2664,-3.2935,-3.3203,-3.3503,-3.347,-3.343,-3.3953,-3.4101,-3.4101,-3.405,-3.3848,-3.3745,-3.3797,-3.3367,-3.3064,-3.3435,-3.2708,-3.2012,-3.2154,-3.1908,-3.1511,-3.0953,-3.1037,-3.1158,-3.1002,-3.1095,-3.1213,-3.1363,-3.1368,-3.1445,-3.1521,-3.1634,-3.1819,-3.2073,-3.2196,-3.2336,-3.2523,-3.2787,-3.2979,-3.3086,-3.3821,-3.4043,-3.3753,-3.3947,-3.4099,-3.4148,-3.4517,-3.4975,-3.555,-3.7014,-3.8014,-1.1733,-1.1518,-1.1356,-1.1169,-1.0751,-1.0214,-0.9693,-0.9643,-0.9427,-0.8493,-0.8884,-0.9328,-0.9069,-0.9806,-1.0812,-1.1768,-1.3173,-1.5138,-1.8109,-1.9195,-2.0162,-2.1342,-2.2121,0.0,0.0,0.0,0.0,0.0,0.0,-2.4532,-2.4607,-2.4746,-2.4895,-2.5032,-2.4966,-2.5314,-2.613,-2.6788,-2.6834,-2.6277,-2.6496,-2.6645,-2.6589,-2.6521,-2.6739,0.0,0.0,0.0,-2.8522,-2.8522,-2.9162,-3.005,-3.0211,-3.0594,-3.1043,-3.1382,-3.1672,-3.1996,-3.215,-3.2358,-3.2539,-3.2594,-3.2718,-3.2951,-3.3346,-3.3045,-3.275,-3.3761,-3.3858,-3.3609,-3.3705,-3.3534,-3.3375,-3.3523,-3.315,-3.2819,-3.2915,-3.2337,-3.1688,-3.114,-3.0956,-3.0705,-3.0131,-3.0274,-3.0485,-3.0609,-3.0855,-3.1032,-3.1151,-3.119,-3.1269,-3.1479,-3.1559,-3.1765,-3.2073,-3.2301,-3.2473,-3.2606,-3.2852,-3.3096,-3.3327,-3.3517,-3.3716,-3.3963,-3.3915,-3.3947,-3.4074,-3.4427,-3.4647,-3.483,-3.6768,-3.775,-1.1701,-1.1707,-1.1607,-1.0653,-1.0178,-0.9836,-0.9258,-0.9233,-0.933,-0.9277,-0.9419,-0.958,-0.9629,-1.0577,-1.127,-1.1197,-1.3369,-1.5636,0.0,0.0,-1.9831,-1.9678,0.0,0.0,0.0,0.0,0.0,0.0,0.0,-2.3971,-2.4011,-2.4203,-2.4288,-2.4388,-2.4525,-2.4669,-2.4823,-2.5868,-2.6169,-2.5746,-2.622,-2.6302,-2.605,-2.6452,-2.6794,0.0,0.0,-2.7656,-2.8365,-2.8365,-2.8931,-2.9941,-3.0778,-3.1093,-3.1102,-3.1976,-3.2135,-3.1841,-3.2094,-3.2247,-3.2302,-3.2539,-3.2648,-3.2757,-3.3187,-3.2839,-3.2387,-3.2915,-3.2676,-3.2417,-3.2836,-3.2848,-3.2908,-3.3499,-3.3201,-3.2948,-3.3457,-3.2241,-3.1189,-3.1596,-3.0817,-3.0076,-2.9989,-3.0146,-3.0274,-3.0417,-3.0692,-3.0912,-3.0952,-3.1117,-3.1351,-3.1479,-3.1651,-3.1856,-3.2073,-3.2336,-3.2574,-3.2773,-3.2916,-3.344,-3.4401,-3.3913,-3.3943,-3.4723,-3.4164,-3.3895,-3.3921,-3.4316,-3.4561,-3.4663,-3.6691,-3.766,-1.2117,-1.211,-1.1945,-1.0943,-1.0538,-1.0255,-0.9616,-0.9434,-0.9473,-0.9735,-0.994,-1.014,-1.0458,-1.0677,-1.1185,-1.2167,-1.4563,-1.6866,-1.8311,-1.934,-1.9959,0.0,0.0,0.0,0.0,0.0,0.0,0.0,0.0,0.0,-2.3372,-2.3796,-2.4027,-2.4043,-2.4105,-2.4189,-2.4345,-2.4981,-2.5253,-2.53,-2.5734,-2.5955,-2.591,-2.6176,-2.6533,-2.7024,0.0,-2.7443,-2.8287,-2.8157,-2.8675,-2.9617,-3.0086,-3.0448,-3.0895,-3.1825,-3.1998,-3.1841,-3.2038,-3.215,-3.2247,-3.2358,-3.2413,-3.2501,-3.2572,-3.2065,-3.147,-3.163,-3.1742,-3.1823,-3.2079,-3.2127,-3.2221,-3.2873,-3.2606,-3.2447,-3.347,-3.2399,-3.1485,-3.2079,-3.1164,-3.0229,-3.0274,-3.0012,-2.9886,-3.0146,-3.0316,-3.0501,-3.0758,-3.0992,-3.123,-3.1431,-3.1706,-3.1929,-3.2073,-3.2387,-3.269,-3.2948,-3.3091,-3.3436,-3.4007,-3.3749,-3.3797,-3.4247,-3.399,-3.3868,-3.3895,-3.4269,-3.4495,-3.4661,-3.6632,-3.7604,-1.2377,-1.2089,-1.1757,-1.0953,-1.0692,-1.0511,-0.9985,-0.9723,-0.9728,-1.0033,-1.0424,-1.0815,-1.1282,-1.1031,-1.1539,-1.3793,-1.5633,-1.7404,-1.9297,-1.9773,-2.0032,-2.0469,0.0,0.0,0.0,0.0,0.0,0.0,0.0,0.0,-2.3001,-2.3405,-2.3711,-2.3824,-2.3728,-2.3801,-2.4043,-2.42,-2.4478,-2.4874,-2.5192,-2.5423,-2.5575,-2.5783,-2.6195,-2.6752,-2.6799,-2.731,-2.8105,-2.8039,-2.8444,-2.9149,-2.9352,-2.996,-3.0747,-3.1424,-3.167,-3.1727,-3.1883,-3.2038,-3.2135,-3.2191,-3.2287,-3.24,-3.2316,-3.1616,-3.0882,-3.0973,-3.1067,-3.1134,-3.1358,-3.1374,-3.155,-3.2155,-3.1965,-3.1966,-3.3131,-3.235,-3.163,-3.2428,-3.1438,-3.0526,-3.0526,-3.0094,-2.9785,-2.9918,-2.9973,-3.0119,-3.0542,-3.0783,-3.1049,-3.1331,-3.1631,-3.193,-3.2214,-3.2506,-3.2802,-3.3055,-3.3232,-3.3352,-3.3481,-3.3549,-3.3633,-3.3698,-3.3753,-3.3834,-3.3895,-3.4245,-3.4473,-3.462,-3.6384,-3.7376,-1.1894,-1.1088,-1.0468,-1.0066,-1.0003,-0.9933,-0.9819,-0.9857,-0.9988,-1.0491,-1.1038,-1.1586,-1.2129,-1.2211,-1.308,-1.5766,-1.5687,-1.6266,-1.8958,0.0,-2.0032,0.0,0.0,0.0,0.0,0.0,0.0,0.0,0.0,0.0,-2.3001,-2.3001,-2.3224,-2.3593,-2.3486,-2.3486,-2.3666,-2.3677,-2.397,-2.4562,-2.4541,-2.4578,-2.4647,-2.5339,-2.582,-2.6044,-2.6902,-2.7403,-2.759,-2.7934,-2.8197,-2.8481,-2.9275,-3.0144,-3.097,-3.1029,-3.1219,-3.1539,-3.1727,-3.1898,-3.2038,-3.2135,-3.2287,-3.2492,-3.3071,-3.2195,-3.1108,-3.1742,-3.0824,-2.9822,-3.0555,-3.0778,-3.0908,-3.1534,-3.1726,-3.1935,-3.2408,-3.1598,-3.1101,-3.2183,-3.1406,-3.0526,-3.0526,-3.0478,-3.0284,-2.9778,-2.9902,-3.0076,-3.0205,-3.0526,-3.0871,-3.1168,-3.1445,-3.1858,-3.2506,-3.2737,-3.2916,-3.3011,-3.3201,-3.3322,-3.3393,-3.3481,-3.3577,-3.3698,-3.3698,-3.378,-3.3895,-3.4245,-3.445,-3.4536,-3.5796,-3.6825,-1.2018,-1.1589,-1.1383,-1.1015,-1.1071,-1.105,-1.0604,-1.1104,-1.1805,-1.2495,-1.2735,-1.2711,-1.2297,-1.338,-1.4494,-1.5078,-1.5497,-1.6373,-1.8217,-1.8573,0.0,0.0,0.0,0.0,0.0,0.0,0.0,0.0,0.0,0.0,-2.2402,-2.2649,-2.2799,-2.2852,-2.2734,-2.2668,-2.2626,-2.2699,-2.2989,-2.3349,-2.3429,-2.3595,-2.37,-2.4037,-2.4688,-2.5624,-2.6117,-2.6665,-2.7255,-2.7603,-2.7855,-2.8222,-2.9212,-2.9974,-3.0522,-3.0851,-3.1087,-3.1219,-3.1539,-3.1712,-3.1898,-3.2038,-3.215,-3.2281,-3.2175,-3.1852,-3.1413,-3.0926,-3.0449,-3.0064,-3.0087,-3.01,-3.0215,-3.0876,-3.1036,-3.1182,-3.1854,-3.1485,-3.1149,-3.169,-3.0974,-3.0307,-3.0307,-2.9942,-2.9623,-2.9595,-2.9653,-2.9786,-3.0109,-3.0526,-3.0912,-3.1263,-3.1665,-3.2091,-3.2489,-3.2639,-3.2755,-3.287,-3.314,-3.3292,-3.3322,-3.3452,-3.3549,-3.3633,-3.3671,-3.378,-3.3895,-3.4245,-3.4431,-3.4536,-3.5699,-3.6426,-1.2501,-1.2187,-1.2018,-1.1894,-1.2027,-1.2196,-1.2005,-1.2484,-1.3126,-1.3767,-1.3769,-1.3577,-1.3459,-1.4162,-1.4806,0.0,-1.5309,-1.6135,-1.7838,0.0,0.0,0.0,0.0,0.0,0.0,0.0,0.0,0.0,0.0,0.0,0.0,-2.1775,-2.1914,-2.1955,-2.1744,-2.1659,-2.1776,-2.2049,-2.2204,-2.2275,-2.249,-2.2795,-2.3136,-2.3214,-2.3845,-2.4847,-2.5407,-2.6038,-2.6662,-2.7178,-2.7723,-2.817,-2.9008,-2.9588,-3.0036,-3.0568,-3.0851,-3.1029,-3.1278,-3.1539,-3.1841,-3.194,-3.2094,-3.2155,-3.1913,-3.1887,-3.1773,-3.1,-3.064,-3.04,-3.0057,-2.9814,-2.981,-3.0277,-3.0344,-3.0537,-3.1276,-3.1055,-3.0831,-3.1373,-3.0814,-3.0275,-3.0259,-2.9848,-2.9516,-2.9521,-2.9518,-2.9653,-3.0022,-3.0401,-3.0831,-3.136,-3.1852,-3.2214,-3.2473,-3.259,-3.269,-3.2773,-3.306,-3.3262,-3.3262,-3.3393,-3.3491,-3.3605,-3.3671,-3.378,-3.3921,-3.4269,-3.4473,-3.4558,-3.5395,-3.597,-1.3372,-1.2628,-1.2122,-1.2618,-1.273,-1.3018,-1.4082,-1.3978,-1.3674,-1.3933,-1.3867,-1.4228,-1.5817,-1.4396,-1.3813,-1.6237,-1.5291,-1.5266,0.0,0.0,0.0,0.0,0.0,0.0,0.0,0.0,0.0,0.0,0.0,0.0,0.0,-2.0348,-2.0597,-2.1093,-2.0616,-2.066,-2.1301,-2.1743,-2.1815,-2.1592,-2.1836,-2.2291,-2.2933,-2.327,-2.3513,-2.3564,-2.5069,-2.569,-2.574,-2.6822,-2.7709,-2.8352,-2.8675,-2.917,-2.9822,-3.0036,-3.0447,-3.1029,-3.1029,-3.1351,-3.1841,-3.194,-3.2094,-3.2318,-3.2734,-3.2572,-3.225,-3.2336,-3.15,-3.059,-3.0542,-3.0106,-2.9697,-2.9697,-2.9786,-3.0024,-3.0583,-3.006,-2.9888,-3.1294,-3.099,-3.0449,-3.0386,-3.0418,-3.0244,-2.9617,-2.9518,-2.9637,-2.9973,-3.0103,-3.0551,-3.1389,-3.1929,-3.2284,-3.2473,-3.2674,-3.2823,-3.2823,-3.2979,-3.3086,-3.3086,-3.3286,-3.3452,-3.3605,-3.3671,-3.3807,-3.3998,-3.434,-3.4539,-3.4583,-3.4811,-3.5401,-1.3875,-1.3537,-1.3406,-1.4128,-1.4744,-1.5393,-1.6424,-1.6359,-1.6211,-1.6589,-1.648,-1.6178,-1.6105,-1.5146,0.0,-1.6105,-1.5516,-1.5397,0.0,0.0,0.0,0.0,0.0,0.0,0.0,0.0,0.0,0.0,0.0,0.0,0.0,-1.9962,-2.0,-2.0256,-2.0257,-2.0336,-2.0392,-2.0658,-2.0968,-2.1382,-2.1583,-2.1923,-2.2309,-2.2227,-2.2647,-2.3484,-2.3904,-2.4437,-2.4953,-2.5902,-2.6959,-2.7973,-2.8157,-2.8688,-2.9401,-3.0021,-3.0447,-3.0807,-3.1219,-3.1467,-3.1655,-3.194,-3.2053,-3.2094,-3.2468,-3.2671,-3.2741,-3.2237,-3.1652,-3.1039,-3.0434,-2.9737,-2.9213,-2.9502,-2.9473,-2.9414,-2.9774,-2.9526,-2.9356,-2.9768,-2.9643,-2.947,-2.9344,-2.9438,-2.95,-2.9521,-2.9518,-2.9726,-3.0274,-3.0692,-3.1095,-3.1504,-3.1929,-3.2179,-3.2284,-3.2523,-3.2639,-3.2639,-3.293,-3.3086,-3.3086,-3.3286,-3.3452,-3.3605,-3.3671,-3.3807,-3.3998,-3.434,-3.4539,-3.4583,-3.4811,-3.5059,-1.459,-1.4687,-1.4949,-1.5959,-1.6768,-1.7571,-1.887,-1.8304,-1.7737,-1.8369,-1.7696,-1.7147,-1.7352,-1.6318,0.0,-1.6555,-1.6125,-1.5823,0.0,0.0,0.0,0.0,0.0,0.0,0.0,0.0,0.0,0.0,0.0,0.0,0.0,-1.8788,-1.8919,-1.9453,-1.9515,-1.9571,-1.9635,-2.0018,-2.0387,-2.0813,-2.1398,-2.1784,-2.2033,-2.2026,-2.246,-2.3215,-2.3304,-2.372,-2.4508,-2.5319,-2.62,-2.7117,-2.7749,-2.8379,-2.8972,-2.9713,-3.0144,-3.0568,-3.0999,-3.1292,-3.1539,-3.1826,-3.194,-3.194,-3.2206,-3.2523,-3.2826,-3.2298,-3.1898,-3.1344,-3.0568,-2.9668,-2.9075,-2.9293,-2.9213,-2.9167,-2.9428,-2.9321,-2.9213,-2.9321,-2.8791,-2.8527,-2.9058,-2.8761,-2.8667,-2.9319,-2.9592,-2.9858,-3.0316,-3.0855,-3.1269,-3.1466,-3.1839,-3.2108,-3.2179,-3.2438,-3.2606,-3.2606,-3.2912,-3.3086,-3.3086,-3.3316,-3.3509,-3.3605,-3.3698,-3.3834,-3.3998,-3.434,-3.4539,-3.4583,-3.4811,-3.4927,-1.5429,-1.5928,-1.6545,-1.774,-1.8593,-1.9507,-2.1029,-1.9928,-1.8834,-1.9376,-1.8113,-1.7459,-1.908,-1.7683,-1.6536,-1.7424,-1.6899,0.0,0.0,0.0,0.0,0.0,0.0,0.0,0.0,0.0,0.0,0.0,0.0,0.0,0.0,-1.7469,-1.7691,-1.8804,-1.8634,-1.8674,-1.9075,-1.9693,-2.006,0.0,-2.1087,-2.176,-2.2042,-2.2441,-2.2756,-2.3043,-2.2995,-2.3478,-2.4418,-2.5008,-2.5536,-2.6098,-2.7367,-2.813,-2.8587,-2.9162,-2.9775,-3.0312,-3.0568,-3.0999,-3.1539,-3.1727,-3.1799,-3.1841,-3.194,-3.2247,-3.2547,-3.2453,-3.2068,-3.156,-3.0768,-2.9869,-2.9162,-2.9061,-2.9059,-2.909,-2.9412,-2.9366,-2.9305,-2.9563,-2.8397,-2.7811,-2.9194,-2.8399,-2.795,-2.9132,-2.971,-3.006,-3.0189,-3.0773,-3.123,-3.1295,-3.1765,-3.2108,-3.2179,-3.2438,-3.2606,-3.2606,-3.2912,-3.3086,-3.3086,-3.3375,-3.3556,-3.3715,-3.3863,-3.3997,-3.4109,-3.4452,-3.4614,-3.4583,-3.4811,-3.4927,-1.5987,-1.6439,-1.6929,-1.8208,-1.9673,-2.0715,-2.0523,-2.0931,-2.1207,-2.0867,-1.9726,-1.892,-1.9222,-1.7681,-1.675,-1.7991,0.0,0.0,0.0,0.0,0.0,0.0,0.0,0.0,0.0,0.0,0.0,0.0,0.0,0.0,-1.781,-1.7558,-1.7705,-1.8408,-1.8464,-1.8617,-1.8875,-1.9245,-1.9609,0.0,-2.052,-2.1409,-2.2485,-2.2812,-2.3106,-2.3338,-2.2984,-2.3529,-2.4653,-2.4149,-2.4966,-2.6566,-2.6699,-2.7236,-2.8052,-2.8894,-2.9574,-3.0147,-3.0598,-3.1102,-3.1539,-3.1727,-3.1799,-3.1841,-3.194,-3.2038,-3.215,-3.2342,-3.1835,-3.1098,-3.0472,-2.9674,-2.8992,-2.8614,-2.8525,-2.8668,-2.9091,-2.906,-2.892,-2.8967,-2.8325,-2.8013,-2.8795,-2.8478,-2.8465,-2.9435,-2.993,-3.0146,-3.0205,-3.0773,-3.123,-3.1295,-3.1765,-3.2108,-3.2179,-3.2438,-3.2606,-3.2606,-3.2912,-3.3086,-3.3086,-3.3375,-3.3811,-3.4546,-3.478,-3.4934,-3.5032,-3.5352,-3.5199,-3.4583,-3.4811,-3.4908,-1.5852,-1.6609,-1.7445,-1.901,-2.0586,-2.1621,-2.1172,-2.1837,-2.2339,-2.1593,-2.0833,-2.0061,-1.9507,-1.8831,-1.8353,-1.8773,0.0,0.0,0.0,0.0,0.0,0.0,0.0,0.0,0.0,0.0,0.0,0.0,0.0,-1.7493,-1.7862,-1.7574,-1.7725,-1.8539,-1.8347,-1.8405,-1.8808,-1.8885,-1.9065,-1.9301,-1.9928,-2.1075,-2.2639,-2.3279,-2.3358,-2.2943,-2.2678,-2.2853,-2.3311,-2.3286,-2.4116,-2.5503,-2.6127,-2.6935,-2.7789,-2.8573,-2.9261,-2.9856,-3.0418,-3.0911,-3.1409,-3.1597,-3.167,-3.167,-3.164,-3.1769,-3.1883,-3.191,-3.1581,-3.1132,-3.0428,-2.9708,-2.9034,-2.8662,-2.8415,-2.8429,-2.8873,-2.892,-2.8701,-2.8435,-2.8029,-2.7811,-2.7978,-2.8142,-2.8586,-2.9451,-2.9902,-3.0103,-3.0189,-3.0733,-3.1134,-3.1295,-3.1711,-3.2073,-3.2179,-3.2438,-3.2606,-3.2606,-3.2912,-3.3247,-3.3674,-3.3924,-3.4284,-3.4801,-3.4962,-3.5138,-3.5283,-3.5584,-3.5323,-3.4583,-3.4811,-3.4908,-1.5337,-1.652,-1.7889,-1.9731,-2.1226,-2.2237,-2.2165,-2.2652,-2.2859,-2.1942,-2.1499,-2.0943,-1.9817,-1.9937,-2.0043,0.0,0.0,0.0,0.0,0.0,0.0,0.0,0.0,0.0,0.0,0.0,0.0,0.0,0.0,-1.7451,-1.794,-1.752,-1.7716,-1.8741,-1.8279,-1.8279,-1.8741,-1.8607,-1.8607,-1.8751,-1.9541,-2.0711,-2.2313,-2.3328,-2.3372,-2.262,-2.2467,-2.2251,-2.206,-2.2639,-2.3365,-2.4312,-2.5729,-2.6674,-2.7406,-2.8222,-2.8944,-2.9623,-3.0129,-3.0747,-3.1351,-3.1409,-3.1467,-3.1409,-3.1292,-3.1482,-3.1612,-3.1394,-3.1379,-3.1245,-3.045,-2.977,-2.9154,-2.8786,-2.8394,-2.822,-2.8732,-2.8763,-2.856,-2.8091,-2.7859,-2.7657,-2.7308,-2.7957,-2.8713,-2.9422,-2.9814,-3.006,-3.0231,-3.0675,-3.1038,-3.1257,-3.1674,-3.1984,-3.2179,-3.2438,-3.2606,-3.2606,-3.2912,-3.3422,-3.4087,-3.4341,-3.4575,-3.479,-3.5005,-3.5321,-3.5688,-3.5615,-3.5306,-3.4745,-3.4827,-3.487,-1.4502,-1.598,-1.7754,-1.9843,-2.1171,-2.2083,-2.2499,-2.3234,-2.3385,-2.2172,-2.1754,-2.1282,-2.0028,-1.9866,-1.999,0.0,0.0,0.0,0.0,0.0,0.0,0.0,0.0,0.0,0.0,0.0,0.0,0.0,-1.7666,-1.7529,-1.7706,-1.7638,-1.792,-1.8549,-1.8337,-1.8347,-1.8549,-1.8482,-1.8482,-1.8549,-1.9687,-2.045,-2.0942,-2.2391,-2.3199,-2.3375,-2.255,-2.2507,-2.3119,-2.2681,-2.3164,-2.4394,-2.532,-2.5975,-2.6543,-2.7696,-2.8624,-2.9435,-2.9931,-3.0613,-3.1278,-3.1351,-3.1351,-3.1292,-3.119,-3.1146,-3.119,-3.1276,-3.1248,-3.1014,-3.0337,-2.9608,-2.9045,-2.8644,-2.809,-2.7825,-2.8348,-2.8396,-2.8301,-2.8321,-2.8401,-2.8358,-2.8034,-2.8611,-2.9284,-2.9705,-2.9913,-3.0103,-3.0443,-3.0658,-3.0965,-3.1257,-3.1674,-3.1948,-3.2108,-3.2404,-3.2606,-3.2606,-3.2912,-3.314,-3.3278,-3.3448,-3.3923,-3.4684,-3.5582,-3.647,-3.7377,-3.6129,-3.5472,-3.5384,-3.4943,-3.4708,-1.4929,-1.6305,-1.7787,-1.9493,-2.0694,-2.1544,-2.2139,-2.2753,-2.2899,-2.1929,-2.1611,-2.1188,-2.01,-2.0553,-2.1022,0.0,0.0,0.0,0.0,0.0,0.0,0.0,0.0,0.0,0.0,0.0,0.0,0.0,-1.8144,-1.8066,-1.8056,-1.7842,-1.792,-1.8482,-1.8124,-1.8134,-1.8482,-1.8279,-1.8279,-1.8482,-1.9349,-1.9995,-2.0465,-2.1218,-2.1898,-2.2378,-2.2409,-2.2399,-2.2286,-2.2354,-2.2983,-2.3961,-2.5216,-2.5973,-2.6505,-2.7956,-2.8817,-2.9261,-2.9946,-3.0628,-3.119,-3.1292,-3.1278,-3.1292,-3.1132,-3.1132,-3.1176,-3.0955,-3.0984,-3.0999,-3.054,-2.9725,-2.9079,-2.8907,-2.8204,-2.7675,-2.8005,-2.8137,-2.8235,-2.8493,-2.8,-2.7749,-2.8432,-2.8735,-2.9038,-2.9556,-2.993,-3.0189,-3.0401,-3.0692,-3.1021,-3.1411,-3.1711,-3.202,-3.2284,-3.2557,-3.2722,-3.277,-3.2993,-3.3332,-3.3862,-3.4021,-3.4504,-3.5417,-3.5415,-3.5716,-3.6297,-3.5751,-3.5328,-3.4997,-3.4835,-3.4747,-1.4854,-1.603,-1.7155,-1.8788,-1.9966,-2.0877,-2.1701,-2.2269,-2.2445,0.0,-2.1676,-2.1397,-2.0543,-2.1132,-2.1639,0.0,0.0,0.0,0.0,0.0,0.0,0.0,0.0,0.0,0.0,0.0,0.0,0.0,-1.861,-1.8414,-1.8134,-1.7784,-1.7784,-1.8134,-1.7716,-1.7716,-1.8202,-1.8144,-1.8212,-1.8482,-1.9019,-1.9596,-2.0147,-2.0525,-2.0929,-2.1251,-2.2014,-2.2053,-2.1586,-2.2209,-2.2751,-2.3417,-2.497,-2.5788,-2.6193,-2.7917,-2.8711,-2.9066,-2.995,-3.0642,-3.1073,-3.1176,-3.1234,-3.1176,-3.1073,-3.1058,-3.1102,-3.0718,-3.069,-3.0705,-3.0425,-2.9578,-2.8792,-2.8862,-2.8151,-2.7575,-2.779,-2.8039,-2.8284,-2.8525,-2.7829,-2.7547,-2.8685,-2.8785,-2.891,-2.9483,-2.9902,-3.0231,-3.0459,-3.0692,-3.1015,-3.1521,-3.1765,-3.202,-3.2387,-3.2623,-3.2805,-3.2852,-3.3042,-3.3386,-3.4127,-3.4238,-3.4631,-3.5344,-3.4819,-3.4852,-3.5522,-3.5305,-3.5067,-3.4813,-3.4757,-3.4708,-1.3501,-1.4205,-1.5229,-1.7573,-1.8955,-2.019,-2.1625,-2.2344,-2.2536,-2.1964,-2.2105,-2.2151,-2.1431,-2.117,-2.1222,0.0,0.0,0.0,0.0,0.0,0.0,0.0,0.0,0.0,0.0,0.0,0.0,0.0,-1.8985,-1.8269,-1.7774,-1.7442,-1.7235,-1.7304,-1.7038,-1.7107,-1.7442,-1.7998,-1.8337,-1.8482,-1.9019,-1.9428,-1.9658,-2.0631,-2.093,-2.0736,-2.124,-2.1619,-2.1912,-2.2392,-2.2628,-2.28,-2.4403,-2.5014,-2.5205,-2.7085,-2.8078,-2.8591,-2.9868,-3.0507,-3.0821,-3.1073,-3.0955,-3.0821,-3.0821,-3.0821,-3.0807,-3.0645,-3.0309,-2.99,-2.974,-2.8805,-2.8008,-2.813,-2.7668,-2.7335,-2.7855,-2.8103,-2.8284,-2.8525,-2.8574,-2.8575,-2.8858,-2.912,-2.9364,-2.9637,-2.9858,-3.0189,-3.0609,-3.0692,-3.0895,-3.144,-3.1688,-3.1946,-3.2179,-3.2438,-3.269,-3.2823,-3.2979,-3.3135,-3.3188,-3.3358,-3.3513,-3.3619,-3.3706,-3.4651,-3.6436,-3.4976,-3.4686,-3.5429,-3.4801,-3.4473,-1.3875,-1.4696,-1.5885,-1.7604,-1.869,-1.9742,-2.1165,-2.1753,-2.202,-2.206,-2.1894,-2.1732,-2.1706,-2.1989,-2.2237,0.0,0.0,0.0,0.0,0.0,0.0,0.0,0.0,0.0,0.0,0.0,0.0,0.0,0.0,0.0,-1.7891,-1.7051,-1.6624,-1.6811,-1.6751,-1.689,-1.7235,-1.7716,-1.792,-1.7988,-1.8462,-1.8942,-1.9417,-1.9908,-2.0293,-2.054,-2.116,-2.1562,-2.1818,-2.2395,-2.2738,-2.3067,-2.4666,-2.5189,-2.5282,-2.6963,-2.7936,-2.8554,-2.9383,-3.0174,-3.0821,-3.0895,-3.0895,-3.0748,-3.0338,-3.0528,-3.0674,-2.9667,-2.9731,-2.9937,-2.9298,-2.8773,-2.8338,-2.7987,-2.782,-2.7755,-2.797,-2.8152,-2.8396,-2.87,-2.8747,-2.8826,-2.9121,-2.9305,-2.9486,-2.9738,-3.006,-3.0316,-3.0526,-3.0773,-3.1015,-3.1329,-3.1654,-3.1948,-3.2179,-3.2523,-3.2773,-3.287,-3.2993,-3.3135,-3.3214,-3.3393,-3.3509,-3.3549,-3.3698,-3.4154,-3.4884,-3.442,-3.4134,-3.4023,-3.3792,-3.3642,-1.3988,-1.4841,-1.6027,-1.7252,-1.8032,-1.8964,-2.0643,-2.1043,-2.1231,-2.1946,-2.1856,-2.1741,-2.202,-2.2536,-2.2888,0.0,0.0,0.0,0.0,0.0,0.0,0.0,0.0,0.0,0.0,0.0,0.0,0.0,0.0,0.0,-1.7473,-1.655,-1.6138,-1.6324,-1.6403,-1.6682,-1.7107,-1.7373,-1.7569,-1.7706,-1.8134,-1.8674,-1.933,-1.9594,-2.0064,-2.0593,-2.121,-2.1537,-2.1561,-2.2322,-2.275,-2.3175,-2.4385,-2.4899,-2.5156,-2.6548,-2.7384,-2.7966,-2.8983,-2.9638,-3.009,-3.0382,-3.0309,-3.0046,-2.9737,-2.9866,-2.9952,-2.9024,-2.9028,-2.9213,-2.8723,-2.8409,-2.812,-2.746,-2.7674,-2.7894,-2.7618,-2.8,-2.8508,-2.8747,-2.8794,-2.8936,-2.9259,-2.9412,-2.9592,-2.9766,-3.0087,-3.0401,-3.0568,-3.0855,-3.1173,-3.1428,-3.1765,-3.2055,-3.2284,-3.2574,-3.2787,-3.2884,-3.3042,-3.3165,-3.3322,-3.3452,-3.3549,-3.3615,-3.3753,-3.3842,-3.3972,-3.4124,-3.3836,-3.3082,-3.3168,-3.3212,0.0,0.0,0.0,-1.6426,-1.6941,-1.7771,-2.0039,-2.0249,-2.028,-2.155,-2.1959,-2.2169,-2.2386,-2.2827,-2.3021,0.0,0.0,0.0,0.0,0.0,0.0,0.0,0.0,0.0,0.0,0.0,0.0,0.0,0.0,-1.7866,-1.6465,-1.599,-1.572,-1.5771,-1.5982,-1.6324,-1.6872,-1.7079,-1.7345,-1.7599,-1.8037,-1.8633,-1.9267,-1.9803,-2.0344,-2.088,-2.1439,-2.1514,-2.1285,-2.2211,-2.2714,-2.2969,-2.3556,-2.4144,-2.4744,-2.5772,-2.6337,-2.6861,-2.8537,-2.8886,-2.8669,-2.9594,-2.936,-2.8722,-2.8972,-2.8861,-2.8708,-2.8805,-2.8283,-2.7748,-2.7881,-2.7623,-2.7259,-2.6589,-2.7214,-2.7713,-2.6804,-2.7522,-2.8462,-2.8747,-2.8794,-2.892,-2.9259,-2.9412,-2.9592,-2.9766,-3.0044,-3.0316,-3.0651,-3.0992,-3.1346,-3.1763,-3.1965,-3.2179,-3.2473,-3.2539,-3.2672,-3.2884,-3.3024,-3.3196,-3.3393,-3.3481,-3.3577,-3.3698,-3.378,-3.386,-3.3895,-3.408,-3.3727,-3.2858,-3.3049,-3.3178,-1.4925,0.0,0.0,0.0,0.0,0.0,0.0,0.0,-2.0275,-2.1926,-2.207,-2.1982,-2.2356,-2.2498,-2.248,-2.2162,0.0,0.0,0.0,0.0,0.0,0.0,0.0,0.0,0.0,0.0,0.0,0.0,-1.9241,-1.7906,-1.7139,-1.6056,-1.553,-1.5703,-1.5575,-1.5512,-1.5641,-1.6129,-1.6254,-1.5905,-1.7053,-1.7625,-1.7818,-1.8797,-1.9594,-2.0223,-2.088,-2.1337,-2.16,-2.2334,-2.2775,-2.3138,-2.378,-2.4189,-2.4434,-2.5124,-2.5807,-2.6521,-2.7143,-2.7997,-2.8884,-2.9128,-2.8768,-2.825,-2.8444,-2.8468,-2.8286,-2.7691,-2.7646,-2.7859,-2.8162,-2.7713,-2.7152,-2.705,-2.6979,-2.6811,-2.6566,-2.6886,-2.7502,-2.8607,-2.8858,-2.8982,-2.9366,-2.9473,-2.9637,-3.0017,-3.0231,-3.0443,-3.0651,-3.0895,-3.1134,-3.1428,-3.1709,-3.1965,-3.2179,-3.2438,-3.269,-3.2805,-3.3011,-3.3196,-3.3393,-3.3491,-3.3633,-3.378,-3.386,-3.3895,-3.3972,-3.3482,-3.2868,-3.2089,-3.1613,-3.1776,-1.652,-1.6955,-1.7512,-1.7264,0.0,0.0,-1.949,-1.9773,-2.0144,0.0,-2.1964,-2.1931,-2.2222,-2.2399,-2.2355,-2.1835,0.0,0.0,0.0,0.0,0.0,0.0,0.0,0.0,0.0,-2.315,-2.2479,-2.1024,-1.9208,-1.7707,-1.6646,-1.555,-1.5077,-1.53,-1.5109,-1.5005,-1.4985,-1.5579,-1.5704,-1.544,-1.6431,-1.7045,-1.7451,-1.8166,-1.904,-1.9897,-2.0415,-2.0831,-2.1259,-2.1787,-2.2414,-2.3138,-2.3616,-2.4015,-2.435,-2.4835,-2.5435,-2.6048,-2.6609,-2.7341,-2.8126,-2.8455,-2.8152,-2.7675,-2.7859,-2.7691,-2.7306,-2.6814,-2.6935,-2.727,-2.758,-2.7537,-2.737,-2.7255,-2.6965,-2.6657,-2.653,-2.666,-2.7092,-2.8201,-2.8512,-2.8679,-2.907,-2.9203,-2.9265,-2.9353,-2.951,-2.9812,-3.0352,-3.0661,-3.0874,-3.1156,-3.1702,-3.2091,-3.2213,-3.247,-3.2426,-3.1977,-3.2675,-3.3028,-3.2853,-3.3386,-3.3753,-3.3868,-3.3972,-3.3716,-3.3123,-3.2993,-3.2391,-3.1328,-3.0889,-3.1194,-1.8289,-1.8436,-1.8732,-1.9051,0.0,0.0,-2.0358,-2.0182,-2.0208,0.0,-2.1744,-2.1998,-2.2089,-2.2232,-2.2166,-2.1622,0.0,0.0,0.0,0.0,0.0,0.0,0.0,0.0,-2.3343,-2.2926,-2.2202,-2.1009,-1.9168,-1.7362,-1.5652,-1.4808,-1.4556,-1.4768,-1.4711,-1.4629,-1.4586,-1.5106,-1.5437,-1.5496,-1.602,-1.6696,-1.7472,-1.78,-1.8611,-1.982,-1.9913,-2.0204,-2.0601,-2.1043,-2.1886,-2.2949,-2.32,-2.3651,-2.4257,-2.4727,-2.5148,-2.5522,-2.6538,-2.6849,-2.6919,-2.7588,-2.7504,-2.7233,-2.7386,-2.6825,-2.6194,-2.612,-2.6238,-2.6385,-2.6572,-2.7173,-2.7625,-2.7316,-2.7055,-2.6795,-2.6512,-2.6561,-2.6907,-2.7614,-2.7876,-2.8144,-2.8464,-2.866,-2.8682,-2.83,-2.8395,-2.8896,-2.9892,-3.0219,-3.0525,-3.0818,-3.1618,-3.2122,-3.2178,-3.2284,-3.1912,-3.0924,-3.2133,-3.2636,-3.2083,-3.3103,-3.3739,-3.3869,-3.4018,-3.3371,-3.1908,-3.2497,-3.2017,-3.0596,-3.0596,-3.1085,-2.007,-2.0198,-2.0166,0.0,0.0,0.0,-2.063,-2.0966,-2.1531,0.0,-2.1694,-2.1706,-2.2024,-2.1496,-2.1004,-2.1034,0.0,0.0,0.0,0.0,0.0,0.0,0.0,0.0,-2.277,-2.2639,-2.1995,-2.0416,-1.861,-1.7266,-1.649,-1.5732,-1.5173,-1.5024,-1.4584,-1.4176,-1.3733,-1.4425,-1.455,-1.4179,-1.5614,-1.6196,-1.6056,-1.721,-1.8284,-1.9103,-1.9205,-1.997,-2.1211,-2.1284,-2.1506,-2.1864,-2.2313,-2.2988,-2.3745,-2.4259,-2.4819,-2.5398,-2.5376,-2.5997,-2.6817,-2.7063,-2.7225,-2.7314,-2.7488,-2.6926,-2.6105,-2.5657,-2.5747,-2.6071,-2.6741,-2.6903,-2.7008,-2.7472,-2.6847,-2.615,-2.6261,-2.5787,-2.5622,-2.6459,-2.7173,-2.7666,-2.7833,-2.8038,-2.827,-2.8553,-2.8649,-2.8848,-2.9399,-2.9557,-2.973,-3.0086,-3.0339,-3.0539,-3.0698,-3.0792,-3.0932,-3.12,-3.1286,-3.1519,-3.1931,-3.2566,-3.2988,-3.3111,-3.3343,-3.301,-3.2056,-3.1493,-3.0786,-2.9908,-2.9963,-3.0414,-2.18,-2.1458,0.0,-2.0975,0.0,0.0,0.0,-2.1689,-2.1939,-2.2337,-2.1794,-2.1354,-2.1805,-2.1341,-2.0751,-2.0253,0.0,0.0,0.0,0.0,0.0,0.0,0.0,0.0,-2.2134,-2.1642,-2.0756,-1.9205,-1.8257,-1.7407,-1.6562,-1.5393,-1.4799,-1.4781,-1.4056,-1.3597,-1.3407,-1.4082,-1.4268,-1.401,-1.5135,-1.566,-1.571,-1.6618,-1.76,-1.8646,-1.8885,-1.9641,-2.0725,-2.1055,-2.1107,-2.1209,-2.2437,-2.3111,-2.3431,-2.4324,-2.4806,-2.5037,-2.5103,-2.5916,-2.6878,-2.6651,-2.6914,-2.7365,-2.7524,-2.6788,-2.5612,-2.4713,-2.4852,-2.55,-2.6305,-2.6765,-2.7177,-2.7595,-2.6983,-2.6267,-2.6186,-2.564,-2.5249,-2.5821,-2.6377,-2.6873,-2.7201,-2.7502,-2.7677,-2.7537,-2.7702,-2.81,-2.8716,-2.892,-2.9119,-2.9474,-2.9871,-3.0053,-2.9828,-3.0238,-3.0545,-3.0612,-3.083,-3.083,-3.0509,-3.1617,-3.2487,-3.3146,-3.2884,-3.2535,-3.2161,-3.0941,-3.0133,-2.9701,-3.0168,-3.0619,-2.3344,0.0,0.0,0.0,0.0,-2.255,0.0,0.0,0.0,-2.2665,-2.1894,0.0,0.0,0.0,0.0,0.0,0.0,0.0,0.0,0.0,0.0,0.0,0.0,0.0,0.0,-2.0263,-1.9246,-1.8338,-1.7991,-1.741,-1.6546,-1.5118,-1.4345,-1.4458,-1.3535,-1.316,-1.3302,-1.3898,-1.4206,-1.4189,-1.4827,-1.5292,-1.5672,-1.6208,-1.7081,-1.8272,-1.8726,-1.928,-1.9963,-2.0807,-2.1101,-2.1117,-2.2694,-2.3308,-2.3375,-2.435,-2.4778,-2.4908,-2.5157,-2.5951,-2.6725,-2.6335,-2.6751,-2.7408,-2.7425,-2.6494,-2.5206,-2.403,-2.4118,-2.4791,-2.5561,-2.6382,-2.7149,-2.7565,-2.7094,-2.6506,-2.6408,-2.5783,-2.5297,-2.5584,-2.5848,-2.6158,-2.6613,-2.6991,-2.7067,-2.6535,-2.6792,-2.7328,-2.8077,-2.8337,-2.857,-2.8859,-2.9503,-2.9686,-2.9155,-2.9794,-3.0032,-2.9646,-3.0251,-3.017,-2.9168,-3.0664,-3.2113,-3.3381,-3.2445,-3.2032,-3.2221,-3.0655,-2.9841,-2.9754,-3.0467,-3.0806,0.0,0.0,0.0,0.0,-2.404,0.0,0.0,0.0,-2.3348,-2.2303,0.0,0.0,0.0,0.0,0.0,0.0,0.0,0.0,0.0,0.0,0.0,0.0,0.0,0.0,0.0,0.0,-1.8163,-1.885,-1.7854,-1.7245,-1.7278,-1.5918,-1.4851,-1.427,-1.3681,-1.3336,-1.3302,-1.3822,-1.4054,-1.401,-1.484,-1.5244,-1.5478,-1.6492,-1.7256,-1.7823,-1.8667,-1.9268,-1.9686,-2.1198,-2.1777,-2.1774,-2.2145,-2.2734,-2.3464,-2.3567,-2.4512,-2.564,-2.502,-2.54,-2.6096,-2.6188,-2.6837,-2.747,-2.6871,-2.6183,-2.5418,-2.461,-2.4148,-2.4053,-2.476,-2.5341,-2.6032,-2.7317,-2.6823,-2.6277,-2.6931,-2.6182,-2.5438,-2.5663,-2.5954,-2.622,-2.625,-2.6516,-2.6741,-2.6893,-2.7087,-2.7296,-2.7648,-2.7906,-2.811,-2.8195,-2.8405,-2.8506,-2.8416,-2.8604,-2.8696,-2.8567,-2.8978,-2.9232,-2.9289,-3.0269,-3.1665,-3.3443,-3.1939,-3.1525,-3.2279,-3.0671,-2.9891,-2.9876,-3.0037,-3.0124,0.0,0.0,0.0,0.0,0.0,0.0,-2.3035,0.0,-2.3486,0.0,0.0,0.0,0.0,0.0,0.0,0.0,-1.9823,0.0,0.0,0.0,0.0,0.0,0.0,0.0,0.0,0.0,0.0,0.0,0.0,-1.7233,-1.6897,-1.5603,-1.4763,-1.4579,-1.3532,-1.3093,-1.3398,-1.383,-1.401,-1.401,-1.4734,-1.5088,-1.5196,-1.6104,-1.6935,-1.7763,-1.843,-1.9043,-1.9754,-2.0827,-2.1203,-2.1194,-2.2158,-2.2916,-2.353,-2.3863,-2.4585,-2.5396,-2.5661,-2.5828,-2.5944,-2.6109,-2.6584,-2.6871,-2.6213,-2.5555,-2.4851,-2.4194,-2.3878,-2.3975,-2.4859,-2.533,-2.58,-2.6479,-2.6503,-2.6326,-2.619,-2.5879,-2.5689,-2.5848,-2.6134,-2.638,-2.6364,-2.6503,-2.664,-2.6742,-2.7087,-2.7355,-2.7465,-2.7795,-2.8042,-2.8099,-2.8219,-2.8327,-2.8406,-2.8569,-2.8707,-2.8792,-2.9181,-2.9407,-2.9433,-3.0317,-3.1203,-3.2033,-3.1374,-3.1186,-3.1599,-3.0495,-2.9956,-2.9959,-3.0022,-3.0038,-2.3403,0.0,0.0,0.0,0.0,0.0,0.0,0.0,0.0,0.0,0.0,0.0,0.0,0.0,-2.1003,-1.9936,0.0,-1.9244,0.0,0.0,0.0,0.0,0.0,0.0,0.0,0.0,0.0,0.0,0.0,0.0,-1.6394,-1.5344,-1.4756,-1.478,-1.3415,-1.3033,-1.3623,-1.3881,-1.401,-1.4079,-1.4734,-1.5029,-1.5098,-1.5894,-1.6749,-1.7644,-1.835,-1.903,-1.9648,-2.0548,-2.0804,-2.0694,-2.2013,-2.2929,-2.3564,-2.3981,-2.4381,-2.4817,-2.5568,-2.5727,-2.5602,-2.5639,-2.5942,-2.618,-2.5749,-2.5151,-2.4477,-2.4029,-2.3788,-2.393,-2.4759,-2.5153,-2.5483,-2.5853,-2.615,-2.6225,-2.5786,-2.5761,-2.5892,-2.5974,-2.6258,-2.6485,-2.6485,-2.6572,-2.664,-2.664,-2.7087,-2.7404,-2.7434,-2.7795,-2.8099,-2.8154,-2.83,-2.8432,-2.8536,-2.8712,-2.8929,-2.9138,-2.9526,-2.9682,-2.957,-3.0246,-3.0735,-3.1016,-3.0808,-3.0843,-3.1124,-3.0357,-3.0007,-3.0007,-3.0068,-3.0083,0.0,0.0,0.0,-2.2368,0.0,0.0,0.0,0.0,-2.4619,0.0,0.0,0.0,0.0,-2.2263,-2.1412,-2.0342,-2.0084,0.0,0.0,0.0,0.0,0.0,0.0,0.0,0.0,0.0,0.0,0.0,0.0,0.0,-1.602,-1.5626,-1.506,-1.445,-1.3485,-1.3325,-1.4001,-1.401,-1.4079,-1.4267,-1.4803,-1.5098,-1.5215,-1.6181,-1.6807,-1.7289,-1.8723,-1.9262,-1.9148,-2.0656,-2.1039,-2.0761,-2.1606,-2.2572,-2.3486,-2.3511,-2.3754,-2.4033,-2.4066,-2.4563,-2.5033,-2.4557,-2.4843,-2.5473,-2.5568,-2.5151,-2.4582,-2.4552,-2.4118,-2.3653,-2.3955,-2.4265,-2.4741,-2.5508,-2.568,-2.5788,-2.6262,-2.6168,-2.5974,-2.601,-2.6258,-2.6485,-2.6485,-2.6623,-2.6691,-2.6691,-2.7103,-2.7434,-2.7496,-2.7911,-2.8209,-2.8273,-2.8484,-2.8587,-2.8587,-2.8785,-2.9026,-2.9272,-2.9608,-2.9756,-2.9699,-2.9773,-3.0222,-3.1068,-3.033,-3.0347,-3.1193,-3.0389,-3.0007,-3.0007,-3.0064,-3.0123,0.0,0.0,-2.4688,-2.2747,0.0,0.0,0.0,0.0,0.0,0.0,0.0,0.0,0.0,-2.2219,-2.1614,-2.1061,-2.0508,-1.9488,0.0,0.0,0.0,0.0,0.0,0.0,0.0,0.0,0.0,0.0,-1.6588,0.0,0.0,-1.5188,-1.4625,-1.4328,-1.3657,-1.355,-1.4121,-1.413,-1.4249,-1.4419,-1.5147,-1.5498,-1.5556,-1.6353,-1.7078,-1.77,-1.8452,-1.8982,-1.934,-2.0014,-2.017,-2.0005,-2.0636,-2.1225,-2.1779,-2.2469,-2.3403,-2.4319,-2.4134,-2.4593,-2.5213,-2.4637,-2.4609,-2.4865,-2.491,-2.4492,-2.3939,-2.3939,-2.3833,-2.3824,-2.4234,-2.4549,-2.4918,-2.552,-2.5724,-2.5909,-2.6101,-2.6175,-2.6189,-2.6189,-2.6399,-2.6572,-2.6607,-2.6725,-2.6842,-2.6842,-2.7184,-2.7496,-2.7557,-2.7996,-2.8273,-2.83,-2.8484,-2.8662,-2.8785,-2.9097,-2.9372,-2.955,-2.9664,-2.9736,-2.9771,-2.979,-2.9956,-3.0288,-3.0042,-3.0092,-3.0475,-3.0202,-3.0064,-3.0064,-3.0123,-3.0157,-2.4462,-2.4682,0.0,-2.3555,-2.4012,0.0,-2.3699,0.0,0.0,0.0,0.0,0.0,0.0,0.0,-2.1801,-2.1342,-2.0352,-1.8979,0.0,-1.6326,0.0,0.0,0.0,0.0,0.0,0.0,-1.676,-1.648,-1.6145,0.0,0.0,0.0,-1.4439,-1.4237,-1.3766,-1.371,-1.415,-1.4355,-1.4478,-1.4588,-1.543,-1.5846,-1.5778,-1.6513,-1.7245,-1.7897,-1.8429,-1.9028,-1.9565,-1.9862,-1.994,-1.9837,-2.0476,-2.088,-2.1291,-2.2312,-2.3242,-2.3914,-2.3841,-2.4143,-2.4515,-2.4253,-2.4149,-2.4224,-2.4224,-2.3954,-2.3653,-2.3653,-2.3616,-2.3644,-2.4029,-2.4374,-2.4764,-2.5115,-2.5628,-2.6063,-2.6063,-2.6241,-2.6382,-2.6382,-2.6521,-2.6657,-2.6691,-2.6875,-2.7007,-2.7007,-2.731,-2.7587,-2.7672,-2.8063,-2.8353,-2.8406,-2.8562,-2.8761,-2.8998,-2.9291,-2.9513,-2.9645,-2.9719,-2.979,-2.9825,-2.9842,-2.9857,-2.9888,-2.9905,-2.9972,-3.0053,-3.0083,-3.0094,-3.0109,-3.0171,-3.0171]}]]